Darstellungsparameter: Aktuell verwendete Einstellungen:
Skalierung der Graphiken ... ?
xyx+y,   Skalierungsfaktor:      Skalierung: Modus: x, Faktor: 1
Darstellungszeitraum ... ?
Vom - - bis: - -   Zeitraum: 11.04.2020 - 24.04.2020
Min/Max/Avg-Anzeige ... ?
Zeige MMA aktuell
Zeige MMA Monat
Zeige MMA alles
Zeige --A aktuell
Zeige --A Monat
Zeige --A alles
Keine MMA-Anzeige
MMA:
Average (ber die Originaldaten)
MMA-Basis: 11.04.2020 - 24.04.2020
Quicknavigation für Darstellung... ?
Tage:      1T, 2T, 3T, 5T -1T -2T -3T -5T +1T +2T +3T +5T
Wochen: 1W, 2W, 3W -1W -2W -3W +1W +2W +3W
Monate: 1M, 3M, 6M -1M -3M -6M +1M +3M +6M
Jahre:    1J, 3J, 5J, 10J -1J -3J -5J -10J +1J +3J +5J +10J
Nutze für die Darstellung ... ?
Originaldaten oder Mittelwerte auf ...
Stundenbasis Tagesbasis Wochenbasis
Monatsbasis Jahresbasis      Datenbasis: Original-Daten
Darstellen als:
Statistik (Auto) Statistik J:M      Darstellung:
Zur Graphik,    zurück zur Übersicht aller Sensoren.
 
Tabellarische Datenbersicht: ?
 
Sensor: Nr:Datum:Temp:Abs-Feuchte:Windchill:Wind:
Aussen-T/F 1 11-04-2020 00:00:00 11.8 C 7.37 g/m*3 11.8 C 3.2 km/h
2 11-04-2020 00:05:00 11.7 C 7.32 g/m*3 11.7 C 4.8 km/h
3 11-04-2020 00:10:00 11.5 C 7.33 g/m*3 11.5 C 3.2 km/h
4 11-04-2020 00:15:00 11.4 C 7.29 g/m*3 11.4 C 0 km/h
5 11-04-2020 00:20:00 11.3 C 7.24 g/m*3 11.3 C 4.8 km/h
6 11-04-2020 00:25:00 11.2 C 7.3 g/m*3 11.2 C 4.8 km/h
7 11-04-2020 00:30:00 11.1 C 7.25 g/m*3 11.1 C 1.6 km/h
8 11-04-2020 00:35:00 11 C 7.21 g/m*3 11 C 1.6 km/h
9 11-04-2020 00:40:00 10.8 C 7.22 g/m*3 10.8 C 3.2 km/h
10 11-04-2020 00:45:00 10.8 C 7.12 g/m*3 10.8 C 0 km/h
11 11-04-2020 00:50:00 10.7 C 7.17 g/m*3 10.7 C 0 km/h
12 11-04-2020 00:55:00 10.7 C 7.07 g/m*3 10.7 C 1.6 km/h
13 11-04-2020 01:00:00 10.6 C 7.03 g/m*3 10.6 C 0 km/h
14 11-04-2020 01:05:00 10.5 C 6.98 g/m*3 10.5 C 0 km/h
15 11-04-2020 01:10:00 10.4 C 6.94 g/m*3 10.4 C 0 km/h
16 11-04-2020 01:15:00 10.3 C 6.99 g/m*3 10.3 C 0 km/h
17 11-04-2020 01:20:00 10.2 C 6.95 g/m*3 10.2 C 0 km/h
18 11-04-2020 01:25:00 10 C 6.86 g/m*3 10 C 0 km/h
19 11-04-2020 01:30:00 9.9 C 6.91 g/m*3 9.9 C 0 km/h
20 11-04-2020 01:35:00 9.8 C 6.87 g/m*3 9.8 C 0 km/h
21 11-04-2020 01:40:00 9.7 C 6.73 g/m*3 9.7 C 1.6 km/h
22 11-04-2020 01:45:00 9.6 C 6.69 g/m*3 9.6 C 0 km/h
23 11-04-2020 01:50:00 9.6 C 6.78 g/m*3 9.6 C 0 km/h
24 11-04-2020 01:55:00 9.4 C 6.69 g/m*3 9.4 C 0 km/h
25 11-04-2020 02:00:00 9.3 C 6.65 g/m*3 9.3 C 0 km/h
Sensor: Nr:Datum:Temp:Abs-Feuchte:Windchill:Wind:
Aussen-T/F 26 11-04-2020 02:05:00 9.2 C 6.61 g/m*3 9.2 C 1.6 km/h
27 11-04-2020 02:10:00 9.1 C 6.57 g/m*3 9.1 C 1.6 km/h
28 11-04-2020 02:15:00 9.1 C 6.65 g/m*3 9.1 C 3.2 km/h
29 11-04-2020 02:20:00 9 C 6.52 g/m*3 9 C 4.8 km/h
30 11-04-2020 02:25:00 8.9 C 6.48 g/m*3 8.9 C 1.6 km/h
31 11-04-2020 02:30:00 8.9 C 6.48 g/m*3 8.9 C 4.8 km/h
32 11-04-2020 02:35:00 8.9 C 6.48 g/m*3 8.9 C 3.2 km/h
33 11-04-2020 02:40:00 8.9 C 6.48 g/m*3 8.9 C 0 km/h
34 11-04-2020 02:45:00 8.9 C 6.48 g/m*3 8.9 C 0 km/h
35 11-04-2020 02:50:00 8.8 C 6.44 g/m*3 8.8 C 0 km/h
36 11-04-2020 02:55:00 8.7 C 6.4 g/m*3 8.7 C 0 km/h
37 11-04-2020 03:00:00 8.7 C 6.4 g/m*3 8.7 C 4.8 km/h
38 11-04-2020 03:05:00 8.6 C 6.27 g/m*3 8.6 C 3.2 km/h
39 11-04-2020 03:10:00 8.6 C 6.27 g/m*3 8.6 C 4.8 km/h
40 11-04-2020 03:15:00 8.6 C 6.1 g/m*3 8.6 C 4.8 km/h
41 11-04-2020 03:20:00 8.6 C 6.02 g/m*3 8.6 C 4.8 km/h
42 11-04-2020 03:25:00 8.6 C 6.02 g/m*3 8.6 C 4.8 km/h
43 11-04-2020 03:30:00 8.6 C 6.02 g/m*3 8.6 C 3.2 km/h
44 11-04-2020 03:35:00 8.5 C 5.98 g/m*3 8.5 C 3.2 km/h
45 11-04-2020 03:40:00 8.4 C 6.11 g/m*3 8.4 C 1.6 km/h
46 11-04-2020 03:45:00 8.3 C 5.98 g/m*3 8.3 C 3.2 km/h
47 11-04-2020 03:50:00 8.3 C 5.98 g/m*3 8.3 C 3.2 km/h
48 11-04-2020 03:55:00 8.2 C 5.86 g/m*3 8.2 C 4.8 km/h
49 11-04-2020 04:00:00 8.2 C 5.95 g/m*3 8.2 C 1.6 km/h
50 11-04-2020 04:05:00 8.1 C 5.91 g/m*3 8.1 C 3.2 km/h
Sensor: Nr:Datum:Temp:Abs-Feuchte:Windchill:Wind:
Aussen-T/F 51 11-04-2020 04:10:00 8.1 C 5.91 g/m*3 8.1 C 3.2 km/h
52 11-04-2020 04:15:00 8 C 5.79 g/m*3 8 C 4.8 km/h
53 11-04-2020 04:20:00 7.9 C 5.67 g/m*3 7.9 C 4.8 km/h
54 11-04-2020 04:25:00 7.9 C 5.75 g/m*3 7.9 C 4.8 km/h
55 11-04-2020 04:30:00 7.8 C 5.63 g/m*3 7.8 C 4.8 km/h
56 11-04-2020 04:35:00 7.8 C 5.71 g/m*3 7.8 C 4.8 km/h
57 11-04-2020 04:40:00 7.7 C 5.68 g/m*3 7.7 C 4.8 km/h
58 11-04-2020 04:45:00 7.7 C 5.68 g/m*3 7.7 C 4.8 km/h
59 11-04-2020 04:50:00 7.6 C 5.56 g/m*3 7.6 C 4.8 km/h
60 11-04-2020 04:55:00 7.6 C 5.48 g/m*3 7.6 C 4.8 km/h
61 11-04-2020 05:00:00 7.5 C 5.44 g/m*3 7.5 C 4.8 km/h
62 11-04-2020 05:05:00 7.5 C 5.52 g/m*3 7.5 C 4.8 km/h
63 11-04-2020 05:10:00 7.4 C 5.49 g/m*3 7.4 C 3.2 km/h
64 11-04-2020 05:15:00 7.3 C 5.37 g/m*3 7.3 C 4.8 km/h
65 11-04-2020 05:20:00 7.3 C 5.53 g/m*3 7.3 C 3.2 km/h
66 11-04-2020 05:25:00 7.2 C 5.42 g/m*3 7.2 C 3.2 km/h
67 11-04-2020 05:30:00 7.1 C 5.46 g/m*3 7.1 C 3.2 km/h
68 11-04-2020 05:35:00 6.9 C 5.39 g/m*3 6.9 C 3.2 km/h
69 11-04-2020 05:40:00 6.8 C 5.51 g/m*3 6.8 C 0 km/h
70 11-04-2020 05:45:00 6.7 C 5.55 g/m*3 6.7 C 0 km/h
71 11-04-2020 05:50:00 6.6 C 5.44 g/m*3 6.6 C 0 km/h
72 11-04-2020 05:55:00 6.5 C 5.47 g/m*3 6.5 C 0 km/h
73 11-04-2020 06:00:00 6.4 C 5.44 g/m*3 6.4 C 0 km/h
74 11-04-2020 06:05:00 6.3 C 5.48 g/m*3 6.3 C 0 km/h
75 11-04-2020 06:10:00 6.2 C 5.52 g/m*3 6.2 C 0 km/h
Sensor: Nr:Datum:Temp:Abs-Feuchte:Windchill:Wind:
Aussen-T/F 76 11-04-2020 06:15:00 6 C 5.52 g/m*3 6 C 0 km/h
77 11-04-2020 06:20:00 5.8 C 5.44 g/m*3 5.8 C 0 km/h
78 11-04-2020 06:25:00 5.7 C 5.41 g/m*3 5.7 C 0 km/h
79 11-04-2020 06:30:00 5.7 C 5.41 g/m*3 5.7 C 0 km/h
80 11-04-2020 06:35:00 5.7 C 5.41 g/m*3 5.7 C 0 km/h
81 11-04-2020 06:40:00 5.6 C 5.37 g/m*3 5.6 C 0 km/h
82 11-04-2020 06:45:00 5.5 C 5.41 g/m*3 5.5 C 0 km/h
83 11-04-2020 06:50:00 5.4 C 5.37 g/m*3 5.4 C 0 km/h
84 11-04-2020 06:55:00 5.4 C 5.37 g/m*3 5.4 C 0 km/h
85 11-04-2020 07:00:00 5.3 C 5.34 g/m*3 5.3 C 0 km/h
86 11-04-2020 07:05:00 5.2 C 5.37 g/m*3 5.2 C 0 km/h
87 11-04-2020 07:10:00 5.2 C 5.37 g/m*3 5.2 C 0 km/h
88 11-04-2020 07:15:00 5.2 C 5.37 g/m*3 5.2 C 0 km/h
89 11-04-2020 07:20:00 5.2 C 5.44 g/m*3 5.2 C 0 km/h
90 11-04-2020 07:25:00 5.2 C 5.44 g/m*3 5.2 C 0 km/h
91 11-04-2020 07:30:00 5.1 C 5.4 g/m*3 5.1 C 0 km/h
92 11-04-2020 07:35:00 5.2 C 5.44 g/m*3 5.2 C 0 km/h
93 11-04-2020 07:40:00 5.2 C 5.44 g/m*3 5.2 C 0 km/h
94 11-04-2020 07:45:00 5.2 C 5.37 g/m*3 5.2 C 0 km/h
95 11-04-2020 07:50:00 5.3 C 5.41 g/m*3 5.3 C 0 km/h
96 11-04-2020 07:55:00 5.4 C 5.44 g/m*3 5.4 C 0 km/h
97 11-04-2020 08:00:00 5.4 C 5.44 g/m*3 5.4 C 0 km/h
98 11-04-2020 08:05:00 5.5 C 5.48 g/m*3 5.5 C 0 km/h
99 11-04-2020 08:10:00 5.6 C 5.51 g/m*3 5.6 C 0 km/h
100 11-04-2020 08:15:00 5.6 C 5.51 g/m*3 5.6 C 0 km/h
Sensor: Nr:Datum:Temp:Abs-Feuchte:Windchill:Wind:
Aussen-T/F 101 11-04-2020 08:20:00 5.7 C 5.55 g/m*3 5.7 C 0 km/h
102 11-04-2020 08:25:00 5.7 C 5.55 g/m*3 5.7 C 0 km/h
103 11-04-2020 08:30:00 5.8 C 5.59 g/m*3 5.8 C 1.6 km/h
104 11-04-2020 08:35:00 5.8 C 5.44 g/m*3 5.8 C 3.2 km/h
105 11-04-2020 08:40:00 5.9 C 5.48 g/m*3 5.9 C 1.6 km/h
106 11-04-2020 08:45:00 6.1 C 5.63 g/m*3 6.1 C 0 km/h
107 11-04-2020 08:50:00 6.2 C 5.59 g/m*3 6.2 C 0 km/h
108 11-04-2020 08:55:00 6.3 C 5.7 g/m*3 6.3 C 3.2 km/h
109 11-04-2020 09:00:00 6.4 C 5.59 g/m*3 6.4 C 3.2 km/h
110 11-04-2020 09:05:00 6.6 C 5.59 g/m*3 6.6 C 1.6 km/h
111 11-04-2020 09:10:00 6.7 C 5.62 g/m*3 6.7 C 0 km/h
112 11-04-2020 09:15:00 6.9 C 5.7 g/m*3 6.9 C 0 km/h
113 11-04-2020 09:20:00 7 C 5.73 g/m*3 7 C 0 km/h
114 11-04-2020 09:25:00 7.2 C 5.81 g/m*3 7.2 C 0 km/h
115 11-04-2020 09:30:00 7.3 C 5.85 g/m*3 7.3 C 0 km/h
116 11-04-2020 09:35:00 7.5 C 5.92 g/m*3 7.5 C 0 km/h
117 11-04-2020 09:40:00 7.7 C 6 g/m*3 7.7 C 0 km/h
118 11-04-2020 09:45:00 7.9 C 6 g/m*3 7.9 C 0 km/h
119 11-04-2020 09:50:00 8.2 C 6.03 g/m*3 8.2 C 0 km/h
120 11-04-2020 09:55:00 8.4 C 6.02 g/m*3 8.4 C 3.2 km/h
121 11-04-2020 10:00:00 8.6 C 6.1 g/m*3 8.6 C 1.6 km/h
122 11-04-2020 10:05:00 8.8 C 6.01 g/m*3 8.8 C 1.6 km/h
123 11-04-2020 10:10:00 9.1 C 6.12 g/m*3 9.1 C 1.6 km/h
124 11-04-2020 10:15:00 9.3 C 6.29 g/m*3 9.3 C 1.6 km/h
125 11-04-2020 10:20:00 9.5 C 6.19 g/m*3 9.5 C 4.8 km/h
Sensor: Nr:Datum:Temp:Abs-Feuchte:Windchill:Wind:
Aussen-T/F 126 11-04-2020 10:25:00 9.8 C 6.22 g/m*3 9.8 C 1.6 km/h
127 11-04-2020 10:30:00 10.1 C 6.24 g/m*3 10.1 C 1.6 km/h
128 11-04-2020 10:35:00 10.4 C 5.98 g/m*3 10.4 C 0 km/h
129 11-04-2020 10:40:00 10.7 C 6.09 g/m*3 10.7 C 3.2 km/h
130 11-04-2020 10:45:00 11.2 C 5.57 g/m*3 11.2 C 1.6 km/h
131 11-04-2020 10:50:00 11.6 C 6.13 g/m*3 11.6 C 0 km/h
132 11-04-2020 10:55:00 11.9 C 6.25 g/m*3 11.9 C 0 km/h
133 11-04-2020 11:00:00 12.2 C 6.04 g/m*3 12.2 C 1.6 km/h
134 11-04-2020 11:05:00 12.4 C 6.34 g/m*3 12.4 C 0 km/h
135 11-04-2020 11:10:00 12.7 C 6.12 g/m*3 12.7 C 0 km/h
136 11-04-2020 11:15:00 13.1 C 5.93 g/m*3 13.1 C 0 km/h
137 11-04-2020 11:20:00 13.5 C 5.97 g/m*3 13.5 C 1.6 km/h
138 11-04-2020 11:25:00 14 C 6.15 g/m*3 14 C 1.6 km/h
139 11-04-2020 11:30:00 14.4 C 6.06 g/m*3 14.4 C 0 km/h
140 11-04-2020 11:35:00 14.8 C 5.95 g/m*3 14.8 C 1.6 km/h
141 11-04-2020 11:40:00 15.2 C 5.97 g/m*3 15.2 C 0 km/h
142 11-04-2020 11:45:00 15.6 C 6.38 g/m*3 15.6 C 0 km/h
143 11-04-2020 11:50:00 15.8 C 6.06 g/m*3 15.8 C 0 km/h
144 11-04-2020 11:55:00 16.2 C 6.07 g/m*3 16.2 C 4.8 km/h
145 11-04-2020 12:00:00 16.6 C 6.07 g/m*3 16.6 C 3.2 km/h
146 11-04-2020 12:05:00 16.9 C 6.18 g/m*3 16.9 C 4.8 km/h
147 11-04-2020 12:10:00 17.2 C 6.15 g/m*3 17.2 C 1.6 km/h
148 11-04-2020 12:15:00 17.5 C 6.11 g/m*3 17.5 C 1.6 km/h
149 11-04-2020 12:20:00 17.8 C 6.07 g/m*3 17.8 C 3.2 km/h
150 11-04-2020 12:25:00 18.1 C 5.87 g/m*3 18.1 C 8.1 km/h
Sensor: Nr:Datum:Temp:Abs-Feuchte:Windchill:Wind:
Aussen-T/F 151 11-04-2020 12:30:00 18.3 C 5.94 g/m*3 18.3 C 9.7 km/h
152 11-04-2020 12:35:00 18.6 C 6.37 g/m*3 18.6 C 9.7 km/h
153 11-04-2020 12:40:00 18.7 C 6.24 g/m*3 18.7 C 8.1 km/h
154 11-04-2020 12:45:00 18.8 C 5.96 g/m*3 18.8 C 8.1 km/h
155 11-04-2020 12:50:00 18.8 C 5.96 g/m*3 18.8 C 9.7 km/h
156 11-04-2020 12:55:00 18.9 C 5.99 g/m*3 18.9 C 12.9 km/h
157 11-04-2020 13:00:00 19.1 C 5.9 g/m*3 19.1 C 14.5 km/h
158 11-04-2020 13:05:00 19.2 C 5.94 g/m*3 19.2 C 9.7 km/h
159 11-04-2020 13:10:00 19.4 C 6.01 g/m*3 19.4 C 9.7 km/h
160 11-04-2020 13:15:00 19.5 C 6.04 g/m*3 19.5 C 8.1 km/h
161 11-04-2020 13:20:00 19.6 C 5.91 g/m*3 19.6 C 8.1 km/h
162 11-04-2020 13:25:00 19.6 C 6.08 g/m*3 19.6 C 12.9 km/h
163 11-04-2020 13:30:00 19.8 C 6.32 g/m*3 19.8 C 9.7 km/h
164 11-04-2020 13:35:00 19.9 C 6.19 g/m*3 19.9 C 6.4 km/h
165 11-04-2020 13:40:00 20.1 C 6.26 g/m*3 20.1 C 14.5 km/h
166 11-04-2020 13:45:00 20.2 C 6.29 g/m*3 20.2 C 12.9 km/h
167 11-04-2020 13:50:00 20.3 C 6.33 g/m*3 20.3 C 11.3 km/h
168 11-04-2020 13:55:00 20.4 C 6.37 g/m*3 20.4 C 12.9 km/h
169 11-04-2020 14:00:00 20.6 C 6.62 g/m*3 20.6 C 9.7 km/h
170 11-04-2020 14:05:00 20.6 C 6.62 g/m*3 20.6 C 8.1 km/h
171 11-04-2020 14:10:00 20.7 C 6.48 g/m*3 20.7 C 11.3 km/h
172 11-04-2020 14:15:00 20.9 C 6.56 g/m*3 20.9 C 11.3 km/h
173 11-04-2020 14:20:00 20.9 C 6.74 g/m*3 20.9 C 6.4 km/h
174 11-04-2020 14:25:00 21.2 C 6.86 g/m*3 21.2 C 8.1 km/h
175 11-04-2020 14:30:00 21.4 C 6.75 g/m*3 21.4 C 9.7 km/h
Sensor: Nr:Datum:Temp:Abs-Feuchte:Windchill:Wind:
Aussen-T/F 176 11-04-2020 14:35:00 21.4 C 6.56 g/m*3 21.4 C 8.1 km/h
177 11-04-2020 14:40:00 21.5 C 6.6 g/m*3 21.5 C 9.7 km/h
178 11-04-2020 14:45:00 21.7 C 6.49 g/m*3 21.7 C 9.7 km/h
179 11-04-2020 14:50:00 21.8 C 6.91 g/m*3 21.8 C 9.7 km/h
180 11-04-2020 14:55:00 22.1 C 6.83 g/m*3 22.1 C 8.1 km/h
181 11-04-2020 15:00:00 22.1 C 6.64 g/m*3 22.1 C 8.1 km/h
182 11-04-2020 15:05:00 22.1 C 7.03 g/m*3 22.1 C 11.3 km/h
183 11-04-2020 15:10:00 22.1 C 6.83 g/m*3 22.1 C 6.4 km/h
184 11-04-2020 15:15:00 22.2 C 6.68 g/m*3 22.2 C 11.3 km/h
185 11-04-2020 15:20:00 22.2 C 6.87 g/m*3 22.2 C 11.3 km/h
186 11-04-2020 15:25:00 22.1 C 6.83 g/m*3 22.1 C 12.9 km/h
187 11-04-2020 15:30:00 22.1 C 6.83 g/m*3 22.1 C 6.4 km/h
188 11-04-2020 15:35:00 22.1 C 6.83 g/m*3 22.1 C 9.7 km/h
189 11-04-2020 15:40:00 22.1 C 6.83 g/m*3 22.1 C 9.7 km/h
190 11-04-2020 15:45:00 22.2 C 7.07 g/m*3 22.2 C 3.2 km/h
191 11-04-2020 15:50:00 22.2 C 6.87 g/m*3 22.2 C 4.8 km/h
192 11-04-2020 15:55:00 22.2 C 6.87 g/m*3 22.2 C 4.8 km/h
193 11-04-2020 16:00:00 22.2 C 7.07 g/m*3 22.2 C 4.8 km/h
194 11-04-2020 16:05:00 22.2 C 7.26 g/m*3 22.2 C 4.8 km/h
195 11-04-2020 16:10:00 22.4 C 7.15 g/m*3 22.4 C 6.4 km/h
196 11-04-2020 16:15:00 22.7 C 7.07 g/m*3 22.7 C 6.4 km/h
197 11-04-2020 16:20:00 22.8 C 7.11 g/m*3 22.8 C 3.2 km/h
198 11-04-2020 16:25:00 23 C 6.99 g/m*3 23 C 1.6 km/h
199 11-04-2020 16:30:00 23.3 C 7.53 g/m*3 23.3 C 3.2 km/h
200 11-04-2020 16:35:00 23.7 C 7.06 g/m*3 23.7 C 6.4 km/h
Sensor: Nr:Datum:Temp:Abs-Feuchte:Windchill:Wind:
Aussen-T/F 201 11-04-2020 16:40:00 24.1 C 7.44 g/m*3 24.1 C 3.2 km/h
202 11-04-2020 16:45:00 24.4 C 7.79 g/m*3 24.4 C 3.2 km/h
203 11-04-2020 16:50:00 24.8 C 7.28 g/m*3 24.8 C 8.1 km/h
204 11-04-2020 16:55:00 24.9 C 7.55 g/m*3 24.9 C 4.8 km/h
205 11-04-2020 17:00:00 24.8 C 7.06 g/m*3 24.8 C 6.4 km/h
206 11-04-2020 17:05:00 24.7 C 7.24 g/m*3 24.7 C 8.1 km/h
207 11-04-2020 17:10:00 24.6 C 7.2 g/m*3 24.6 C 6.4 km/h
208 11-04-2020 17:15:00 24.6 C 7.2 g/m*3 24.6 C 8.1 km/h
209 11-04-2020 17:20:00 24.4 C 7.34 g/m*3 24.4 C 8.1 km/h
210 11-04-2020 17:25:00 24.6 C 7.43 g/m*3 24.6 C 4.8 km/h
211 11-04-2020 17:30:00 24.6 C 7.2 g/m*3 24.6 C 11.3 km/h
212 11-04-2020 17:35:00 24.2 C 7.26 g/m*3 24.2 C 9.7 km/h
213 11-04-2020 17:40:00 24.1 C 7.22 g/m*3 24.1 C 16.1 km/h
214 11-04-2020 17:45:00 23.9 C 7.36 g/m*3 23.9 C 9.7 km/h
215 11-04-2020 17:50:00 24.1 C 7.22 g/m*3 24.1 C 8.1 km/h
216 11-04-2020 17:55:00 24.1 C 7 g/m*3 24.1 C 6.4 km/h
217 11-04-2020 18:00:00 24.2 C 7.26 g/m*3 24.2 C 8.1 km/h
218 11-04-2020 18:05:00 24.1 C 7.22 g/m*3 24.1 C 8.1 km/h
219 11-04-2020 18:10:00 23.9 C 7.14 g/m*3 23.9 C 8.1 km/h
220 11-04-2020 18:15:00 23.8 C 7.1 g/m*3 23.8 C 9.7 km/h
221 11-04-2020 18:20:00 23.8 C 7.1 g/m*3 23.8 C 8.1 km/h
222 11-04-2020 18:25:00 23.9 C 7.14 g/m*3 23.9 C 9.7 km/h
223 11-04-2020 18:30:00 24 C 7.18 g/m*3 24 C 3.2 km/h
224 11-04-2020 18:35:00 24.3 C 7.3 g/m*3 24.3 C 4.8 km/h
225 11-04-2020 18:40:00 24.2 C 7.48 g/m*3 24.2 C 6.4 km/h
Sensor: Nr:Datum:Temp:Abs-Feuchte:Windchill:Wind:
Aussen-T/F 226 11-04-2020 18:45:00 24.2 C 7.04 g/m*3 24.2 C 4.8 km/h
227 11-04-2020 18:50:00 24.1 C 7 g/m*3 24.1 C 8.1 km/h
228 11-04-2020 18:55:00 23.8 C 7.1 g/m*3 23.8 C 8.1 km/h
229 11-04-2020 19:00:00 23.8 C 7.1 g/m*3 23.8 C 4.8 km/h
230 11-04-2020 19:05:00 23.9 C 7.14 g/m*3 23.9 C 4.8 km/h
231 11-04-2020 19:10:00 23.8 C 7.31 g/m*3 23.8 C 4.8 km/h
232 11-04-2020 19:15:00 23.6 C 7.66 g/m*3 23.6 C 6.4 km/h
233 11-04-2020 19:20:00 23.4 C 7.78 g/m*3 23.4 C 1.6 km/h
234 11-04-2020 19:25:00 23.2 C 6.86 g/m*3 23.2 C 4.8 km/h
235 11-04-2020 19:30:00 22.9 C 7.15 g/m*3 22.9 C 4.8 km/h
236 11-04-2020 19:35:00 22.7 C 7.07 g/m*3 22.7 C 4.8 km/h
237 11-04-2020 19:40:00 22.4 C 7.55 g/m*3 22.4 C 1.6 km/h
238 11-04-2020 19:45:00 22.1 C 8 g/m*3 22.1 C 1.6 km/h
239 11-04-2020 19:50:00 21.5 C 7.92 g/m*3 21.5 C 3.2 km/h
240 11-04-2020 19:55:00 20.7 C 8.1 g/m*3 20.7 C 3.2 km/h
241 11-04-2020 20:00:00 19.9 C 7.9 g/m*3 19.9 C 3.2 km/h
242 11-04-2020 20:05:00 19.2 C 7.75 g/m*3 19.2 C 4.8 km/h
243 11-04-2020 20:10:00 18.6 C 7.8 g/m*3 18.6 C 6.4 km/h
244 11-04-2020 20:15:00 18 C 7.68 g/m*3 18 C 3.2 km/h
245 11-04-2020 20:20:00 17.6 C 7.65 g/m*3 17.6 C 4.8 km/h
246 11-04-2020 20:25:00 17.1 C 7.71 g/m*3 17.1 C 4.8 km/h
247 11-04-2020 20:30:00 16.8 C 7.58 g/m*3 16.8 C 4.8 km/h
248 11-04-2020 20:35:00 16.5 C 7.44 g/m*3 16.5 C 4.8 km/h
249 11-04-2020 20:40:00 16.3 C 7.49 g/m*3 16.3 C 6.4 km/h
250 11-04-2020 20:45:00 16.1 C 7.4 g/m*3 16.1 C 6.4 km/h
Sensor: Nr:Datum:Temp:Abs-Feuchte:Windchill:Wind:
Aussen-T/F 251 11-04-2020 20:50:00 15.9 C 7.45 g/m*3 15.9 C 4.8 km/h
252 11-04-2020 20:55:00 15.8 C 7.4 g/m*3 15.8 C 6.4 km/h
253 11-04-2020 21:00:00 15.7 C 7.09 g/m*3 15.7 C 4.8 km/h
254 11-04-2020 21:05:00 15.6 C 7.45 g/m*3 15.6 C 6.4 km/h
255 11-04-2020 21:10:00 15.5 C 7.4 g/m*3 15.5 C 6.4 km/h
256 11-04-2020 21:15:00 15.4 C 7.36 g/m*3 15.4 C 4.8 km/h
257 11-04-2020 21:20:00 15.3 C 7.31 g/m*3 15.3 C 6.4 km/h
258 11-04-2020 21:25:00 15.3 C 7.31 g/m*3 15.3 C 6.4 km/h
259 11-04-2020 21:30:00 15.2 C 7.4 g/m*3 15.2 C 6.4 km/h
260 11-04-2020 21:35:00 15.1 C 7.48 g/m*3 15.1 C 6.4 km/h
261 11-04-2020 21:40:00 14.9 C 7.26 g/m*3 14.9 C 4.8 km/h
262 11-04-2020 21:45:00 14.8 C 7.22 g/m*3 14.8 C 4.8 km/h
263 11-04-2020 21:50:00 14.8 C 7.35 g/m*3 14.8 C 4.8 km/h
264 11-04-2020 21:55:00 14.6 C 7.51 g/m*3 14.6 C 4.8 km/h
265 11-04-2020 22:00:00 14.4 C 7.29 g/m*3 14.4 C 4.8 km/h
266 11-04-2020 22:05:00 14.3 C 7.37 g/m*3 14.3 C 4.8 km/h
267 11-04-2020 22:10:00 14.2 C 7.33 g/m*3 14.2 C 4.8 km/h
268 11-04-2020 22:15:00 14.1 C 7.28 g/m*3 14.1 C 4.8 km/h
269 11-04-2020 22:20:00 14.1 C 7.28 g/m*3 14.1 C 4.8 km/h
270 11-04-2020 22:25:00 14.1 C 7.4 g/m*3 14.1 C 4.8 km/h
271 11-04-2020 22:30:00 14.1 C 7.52 g/m*3 14.1 C 3.2 km/h
272 11-04-2020 22:35:00 14.1 C 7.65 g/m*3 14.1 C 1.6 km/h
273 11-04-2020 22:40:00 14.1 C 7.65 g/m*3 14.1 C 3.2 km/h
274 11-04-2020 22:45:00 14.2 C 7.69 g/m*3 14.2 C 1.6 km/h
275 11-04-2020 22:50:00 14.2 C 7.82 g/m*3 14.2 C 0 km/h
Sensor: Nr:Datum:Temp:Abs-Feuchte:Windchill:Wind:
Aussen-T/F 276 11-04-2020 22:55:00 14.2 C 7.94 g/m*3 14.2 C 0 km/h
277 11-04-2020 23:00:00 14.2 C 7.82 g/m*3 14.2 C 0 km/h
278 11-04-2020 23:05:00 14 C 7.72 g/m*3 14 C 0 km/h
279 11-04-2020 23:10:00 13.8 C 7.51 g/m*3 13.8 C 0 km/h
280 11-04-2020 23:15:00 13.6 C 7.53 g/m*3 13.6 C 0 km/h
281 11-04-2020 23:20:00 13.4 C 7.44 g/m*3 13.4 C 1.6 km/h
282 11-04-2020 23:25:00 13.3 C 7.51 g/m*3 13.3 C 3.2 km/h
283 11-04-2020 23:30:00 13.1 C 7.42 g/m*3 13.1 C 0 km/h
284 11-04-2020 23:35:00 12.8 C 7.39 g/m*3 12.8 C 0 km/h
285 11-04-2020 23:40:00 12.7 C 7.46 g/m*3 12.7 C 0 km/h
286 11-04-2020 23:45:00 12.5 C 7.37 g/m*3 12.5 C 0 km/h
287 11-04-2020 23:50:00 12.3 C 7.49 g/m*3 12.3 C 0 km/h
288 11-04-2020 23:55:00 12.2 C 7.45 g/m*3 12.2 C 0 km/h
289 12-04-2020 00:00:00 12.1 C 7.4 g/m*3 12.1 C 0 km/h
290 12-04-2020 00:05:00 12.2 C 7.55 g/m*3 12.2 C 0 km/h
291 12-04-2020 00:10:00 12.1 C 7.4 g/m*3 12.1 C 0 km/h
292 12-04-2020 00:15:00 12 C 7.35 g/m*3 12 C 0 km/h
293 12-04-2020 00:20:00 11.9 C 7.41 g/m*3 11.9 C 0 km/h
294 12-04-2020 00:25:00 11.8 C 7.47 g/m*3 11.8 C 0 km/h
295 12-04-2020 00:30:00 11.7 C 7.43 g/m*3 11.7 C 0 km/h
296 12-04-2020 00:35:00 11.6 C 7.48 g/m*3 11.6 C 0 km/h
297 12-04-2020 00:40:00 11.6 C 7.38 g/m*3 11.6 C 0 km/h
298 12-04-2020 00:45:00 11.6 C 7.38 g/m*3 11.6 C 0 km/h
299 12-04-2020 00:50:00 11.7 C 7.32 g/m*3 11.7 C 0 km/h
300 12-04-2020 00:55:00 11.7 C 7.32 g/m*3 11.7 C 0 km/h
Sensor: Nr:Datum:Temp:Abs-Feuchte:Windchill:Wind:
Aussen-T/F 301 12-04-2020 01:00:00 11.6 C 7.28 g/m*3 11.6 C 0 km/h
302 12-04-2020 01:05:00 11.5 C 7.23 g/m*3 11.5 C 0 km/h
303 12-04-2020 01:10:00 11.4 C 7.29 g/m*3 11.4 C 0 km/h
304 12-04-2020 01:15:00 11.3 C 7.24 g/m*3 11.3 C 0 km/h
305 12-04-2020 01:20:00 11.1 C 7.05 g/m*3 11.1 C 0 km/h
306 12-04-2020 01:25:00 11 C 7.11 g/m*3 11 C 0 km/h
307 12-04-2020 01:30:00 10.9 C 7.06 g/m*3 10.9 C 0 km/h
308 12-04-2020 01:35:00 10.8 C 7.12 g/m*3 10.8 C 0 km/h
309 12-04-2020 01:40:00 10.7 C 6.97 g/m*3 10.7 C 0 km/h
310 12-04-2020 01:45:00 10.6 C 7.03 g/m*3 10.6 C 0 km/h
311 12-04-2020 01:50:00 10.6 C 6.93 g/m*3 10.6 C 0 km/h
312 12-04-2020 01:55:00 10.7 C 7.07 g/m*3 10.7 C 0 km/h
313 12-04-2020 02:00:00 10.8 C 7.12 g/m*3 10.8 C 0 km/h
314 12-04-2020 02:05:00 10.8 C 7.22 g/m*3 10.8 C 0 km/h
315 12-04-2020 02:10:00 10.9 C 7.36 g/m*3 10.9 C 0 km/h
316 12-04-2020 02:15:00 10.9 C 7.46 g/m*3 10.9 C 0 km/h
317 12-04-2020 02:20:00 10.9 C 7.46 g/m*3 10.9 C 0 km/h
318 12-04-2020 02:25:00 10.8 C 7.31 g/m*3 10.8 C 0 km/h
319 12-04-2020 02:30:00 10.7 C 7.17 g/m*3 10.7 C 0 km/h
320 12-04-2020 02:35:00 10.7 C 7.17 g/m*3 10.7 C 0 km/h
321 12-04-2020 02:40:00 10.7 C 7.17 g/m*3 10.7 C 0 km/h
322 12-04-2020 02:45:00 10.7 C 7.17 g/m*3 10.7 C 0 km/h
323 12-04-2020 02:50:00 10.6 C 7.22 g/m*3 10.6 C 0 km/h
324 12-04-2020 02:55:00 10.5 C 7.27 g/m*3 10.5 C 0 km/h
325 12-04-2020 03:00:00 10.4 C 7.13 g/m*3 10.4 C 0 km/h
Sensor: Nr:Datum:Temp:Abs-Feuchte:Windchill:Wind:
Aussen-T/F 326 12-04-2020 03:05:00 10.4 C 7.23 g/m*3 10.4 C 0 km/h
327 12-04-2020 03:10:00 10.4 C 7.32 g/m*3 10.4 C 0 km/h
328 12-04-2020 03:15:00 10.4 C 7.42 g/m*3 10.4 C 0 km/h
329 12-04-2020 03:20:00 10.4 C 7.42 g/m*3 10.4 C 0 km/h
330 12-04-2020 03:25:00 10.4 C 7.32 g/m*3 10.4 C 0 km/h
331 12-04-2020 03:30:00 10.4 C 7.32 g/m*3 10.4 C 0 km/h
332 12-04-2020 03:35:00 10.4 C 7.42 g/m*3 10.4 C 0 km/h
333 12-04-2020 03:40:00 10.4 C 7.42 g/m*3 10.4 C 0 km/h
334 12-04-2020 03:45:00 10.3 C 7.37 g/m*3 10.3 C 0 km/h
335 12-04-2020 03:50:00 10.3 C 7.37 g/m*3 10.3 C 0 km/h
336 12-04-2020 03:55:00 10.3 C 7.37 g/m*3 10.3 C 0 km/h
337 12-04-2020 04:00:00 10.3 C 7.37 g/m*3 10.3 C 0 km/h
338 12-04-2020 04:05:00 10.3 C 7.47 g/m*3 10.3 C 0 km/h
339 12-04-2020 04:10:00 10.2 C 7.42 g/m*3 10.2 C 0 km/h
340 12-04-2020 04:15:00 10.1 C 7.28 g/m*3 10.1 C 0 km/h
341 12-04-2020 04:20:00 9.9 C 7.19 g/m*3 9.9 C 0 km/h
342 12-04-2020 04:25:00 9.7 C 7.19 g/m*3 9.7 C 0 km/h
343 12-04-2020 04:30:00 9.6 C 7.15 g/m*3 9.6 C 0 km/h
344 12-04-2020 04:35:00 9.4 C 7.15 g/m*3 9.4 C 0 km/h
345 12-04-2020 04:40:00 9.3 C 7.1 g/m*3 9.3 C 3.2 km/h
346 12-04-2020 04:45:00 9.3 C 7.19 g/m*3 9.3 C 4.8 km/h
347 12-04-2020 04:50:00 9.2 C 7.14 g/m*3 9.2 C 0 km/h
348 12-04-2020 04:55:00 9.1 C 7.1 g/m*3 9.1 C 0 km/h
349 12-04-2020 05:00:00 8.9 C 7.1 g/m*3 8.9 C 0 km/h
350 12-04-2020 05:05:00 8.8 C 7.05 g/m*3 8.8 C 0 km/h
Sensor: Nr:Datum:Temp:Abs-Feuchte:Windchill:Wind:
Aussen-T/F 351 12-04-2020 05:10:00 8.8 C 7.14 g/m*3 8.8 C 0 km/h
352 12-04-2020 05:15:00 8.8 C 7.14 g/m*3 8.8 C 0 km/h
353 12-04-2020 05:20:00 8.8 C 7.14 g/m*3 8.8 C 0 km/h
354 12-04-2020 05:25:00 8.8 C 7.14 g/m*3 8.8 C 0 km/h
355 12-04-2020 05:30:00 8.8 C 7.14 g/m*3 8.8 C 0 km/h
356 12-04-2020 05:35:00 8.7 C 7.09 g/m*3 8.7 C 0 km/h
357 12-04-2020 05:40:00 8.6 C 7.05 g/m*3 8.6 C 0 km/h
358 12-04-2020 05:45:00 8.4 C 7.04 g/m*3 8.4 C 0 km/h
359 12-04-2020 05:50:00 8.4 C 7.04 g/m*3 8.4 C 0 km/h
360 12-04-2020 05:55:00 8.3 C 7 g/m*3 8.3 C 0 km/h
361 12-04-2020 06:00:00 8.2 C 6.95 g/m*3 8.2 C 0 km/h
362 12-04-2020 06:05:00 8.2 C 7.03 g/m*3 8.2 C 0 km/h
363 12-04-2020 06:10:00 8.1 C 6.99 g/m*3 8.1 C 0 km/h
364 12-04-2020 06:15:00 8.1 C 6.99 g/m*3 8.1 C 1.6 km/h
365 12-04-2020 06:20:00 7.9 C 6.9 g/m*3 7.9 C 0 km/h
366 12-04-2020 06:25:00 7.9 C 6.98 g/m*3 7.9 C 3.2 km/h
367 12-04-2020 06:30:00 7.8 C 6.94 g/m*3 7.8 C 0 km/h
368 12-04-2020 06:35:00 7.8 C 7.02 g/m*3 7.8 C 1.6 km/h
369 12-04-2020 06:40:00 7.8 C 7.02 g/m*3 7.8 C 1.6 km/h
370 12-04-2020 06:45:00 7.8 C 7.02 g/m*3 7.8 C 0 km/h
371 12-04-2020 06:50:00 7.8 C 7.02 g/m*3 7.8 C 1.6 km/h
372 12-04-2020 06:55:00 7.7 C 6.97 g/m*3 7.7 C 0 km/h
373 12-04-2020 07:00:00 7.6 C 6.93 g/m*3 7.6 C 0 km/h
374 12-04-2020 07:05:00 7.5 C 6.88 g/m*3 7.5 C 0 km/h
375 12-04-2020 07:10:00 7.4 C 6.84 g/m*3 7.4 C 0 km/h
Sensor: Nr:Datum:Temp:Abs-Feuchte:Windchill:Wind:
Aussen-T/F 376 12-04-2020 07:15:00 7.3 C 6.87 g/m*3 7.3 C 0 km/h
377 12-04-2020 07:20:00 7.3 C 6.87 g/m*3 7.3 C 0 km/h
378 12-04-2020 07:25:00 7.3 C 6.87 g/m*3 7.3 C 0 km/h
379 12-04-2020 07:30:00 7.3 C 6.95 g/m*3 7.3 C 0 km/h
380 12-04-2020 07:35:00 7.3 C 6.95 g/m*3 7.3 C 0 km/h
381 12-04-2020 07:40:00 7.3 C 6.95 g/m*3 7.3 C 0 km/h
382 12-04-2020 07:45:00 7.4 C 7.08 g/m*3 7.4 C 0 km/h
383 12-04-2020 07:50:00 7.4 C 7.08 g/m*3 7.4 C 0 km/h
384 12-04-2020 07:55:00 7.5 C 7.04 g/m*3 7.5 C 0 km/h
385 12-04-2020 08:00:00 7.6 C 7.17 g/m*3 7.6 C 1.6 km/h
386 12-04-2020 08:05:00 7.7 C 7.22 g/m*3 7.7 C 0 km/h
387 12-04-2020 08:10:00 7.9 C 7.23 g/m*3 7.9 C 0 km/h
388 12-04-2020 08:15:00 7.9 C 7.23 g/m*3 7.9 C 0 km/h
389 12-04-2020 08:20:00 7.9 C 7.23 g/m*3 7.9 C 0 km/h
390 12-04-2020 08:25:00 8 C 7.36 g/m*3 8 C 0 km/h
391 12-04-2020 08:30:00 8 C 7.36 g/m*3 8 C 0 km/h
392 12-04-2020 08:35:00 8.1 C 7.41 g/m*3 8.1 C 0 km/h
393 12-04-2020 08:40:00 8.1 C 7.41 g/m*3 8.1 C 0 km/h
394 12-04-2020 08:45:00 8.2 C 7.45 g/m*3 8.2 C 0 km/h
395 12-04-2020 08:50:00 8.3 C 7.5 g/m*3 8.3 C 0 km/h
396 12-04-2020 08:55:00 8.4 C 7.55 g/m*3 8.4 C 0 km/h
397 12-04-2020 09:00:00 8.6 C 7.65 g/m*3 8.6 C 0 km/h
398 12-04-2020 09:05:00 8.7 C 7.7 g/m*3 8.7 C 0 km/h
399 12-04-2020 09:10:00 8.8 C 7.75 g/m*3 8.8 C 3.2 km/h
400 12-04-2020 09:15:00 8.9 C 7.8 g/m*3 8.9 C 1.6 km/h
Sensor: Nr:Datum:Temp:Abs-Feuchte:Windchill:Wind:
Aussen-T/F 401 12-04-2020 09:20:00 9.1 C 7.9 g/m*3 9.1 C 0 km/h
402 12-04-2020 09:25:00 9.3 C 8 g/m*3 9.3 C 0 km/h
403 12-04-2020 09:30:00 9.4 C 8.05 g/m*3 9.4 C 0 km/h
404 12-04-2020 09:35:00 9.6 C 8.15 g/m*3 9.6 C 0 km/h
405 12-04-2020 09:40:00 9.7 C 8.11 g/m*3 9.7 C 0 km/h
406 12-04-2020 09:45:00 9.9 C 8.22 g/m*3 9.9 C 0 km/h
407 12-04-2020 09:50:00 10.2 C 8.37 g/m*3 10.2 C 0 km/h
408 12-04-2020 09:55:00 10.3 C 8.43 g/m*3 10.3 C 1.6 km/h
409 12-04-2020 10:00:00 10.7 C 8.55 g/m*3 10.7 C 1.6 km/h
410 12-04-2020 10:05:00 10.9 C 8.55 g/m*3 10.9 C 1.6 km/h
411 12-04-2020 10:10:00 11.2 C 8.72 g/m*3 11.2 C 0 km/h
412 12-04-2020 10:15:00 11.4 C 8.72 g/m*3 11.4 C 0 km/h
413 12-04-2020 10:20:00 11.7 C 8.89 g/m*3 11.7 C 0 km/h
414 12-04-2020 10:25:00 12 C 8.95 g/m*3 12 C 1.6 km/h
415 12-04-2020 10:30:00 12.3 C 9.01 g/m*3 12.3 C 0 km/h
416 12-04-2020 10:35:00 12.6 C 9.07 g/m*3 12.6 C 1.6 km/h
417 12-04-2020 10:40:00 13.1 C 9.01 g/m*3 13.1 C 3.2 km/h
418 12-04-2020 10:45:00 13.5 C 9.24 g/m*3 13.5 C 0 km/h
419 12-04-2020 10:50:00 13.9 C 9.23 g/m*3 13.9 C 0 km/h
420 12-04-2020 10:55:00 14.2 C 9.4 g/m*3 14.2 C 0 km/h
421 12-04-2020 11:00:00 14.4 C 9.39 g/m*3 14.4 C 0 km/h
422 12-04-2020 11:05:00 14.7 C 9.44 g/m*3 14.7 C 1.6 km/h
423 12-04-2020 11:10:00 15.2 C 9.35 g/m*3 15.2 C 1.6 km/h
424 12-04-2020 11:15:00 15.7 C 9.5 g/m*3 15.7 C 1.6 km/h
425 12-04-2020 11:20:00 16.2 C 9.52 g/m*3 16.2 C 3.2 km/h
Sensor: Nr:Datum:Temp:Abs-Feuchte:Windchill:Wind:
Aussen-T/F 426 12-04-2020 11:25:00 16.7 C 9.81 g/m*3 16.7 C 0 km/h
427 12-04-2020 11:30:00 17 C 9.84 g/m*3 17 C 0 km/h
428 12-04-2020 11:35:00 17.3 C 9.72 g/m*3 17.3 C 0 km/h
429 12-04-2020 11:40:00 17.6 C 9.3 g/m*3 17.6 C 1.6 km/h
430 12-04-2020 11:45:00 17.9 C 9.16 g/m*3 17.9 C 4.8 km/h
431 12-04-2020 11:50:00 18.3 C 8.91 g/m*3 18.3 C 6.4 km/h
432 12-04-2020 11:55:00 18.6 C 8.91 g/m*3 18.6 C 4.8 km/h
433 12-04-2020 12:00:00 18.9 C 9.07 g/m*3 18.9 C 1.6 km/h
434 12-04-2020 12:05:00 19.3 C 8.79 g/m*3 19.3 C 6.4 km/h
435 12-04-2020 12:10:00 19.7 C 9.17 g/m*3 19.7 C 6.4 km/h
436 12-04-2020 12:15:00 19.9 C 8.93 g/m*3 19.9 C 6.4 km/h
437 12-04-2020 12:20:00 20.1 C 8.87 g/m*3 20.1 C 4.8 km/h
438 12-04-2020 12:25:00 20.3 C 8.62 g/m*3 20.3 C 6.4 km/h
439 12-04-2020 12:30:00 20.4 C 8.85 g/m*3 20.4 C 6.4 km/h
440 12-04-2020 12:35:00 20.6 C 8.41 g/m*3 20.6 C 8.1 km/h
441 12-04-2020 12:40:00 20.6 C 8.05 g/m*3 20.6 C 6.4 km/h
442 12-04-2020 12:45:00 20.7 C 8.1 g/m*3 20.7 C 4.8 km/h
443 12-04-2020 12:50:00 20.8 C 7.97 g/m*3 20.8 C 6.4 km/h
444 12-04-2020 12:55:00 20.8 C 7.6 g/m*3 20.8 C 9.7 km/h
445 12-04-2020 13:00:00 20.9 C 7.65 g/m*3 20.9 C 9.7 km/h
446 12-04-2020 13:05:00 21.1 C 6.82 g/m*3 21.1 C 14.5 km/h
447 12-04-2020 13:10:00 21.3 C 6.71 g/m*3 21.3 C 8.1 km/h
448 12-04-2020 13:15:00 21.3 C 6.9 g/m*3 21.3 C 8.1 km/h
449 12-04-2020 13:20:00 21.5 C 7.17 g/m*3 21.5 C 9.7 km/h
450 12-04-2020 13:25:00 21.7 C 7.25 g/m*3 21.7 C 11.3 km/h
Sensor: Nr:Datum:Temp:Abs-Feuchte:Windchill:Wind:
Aussen-T/F 451 12-04-2020 13:30:00 21.8 C 7.1 g/m*3 21.8 C 11.3 km/h
452 12-04-2020 13:35:00 21.8 C 6.91 g/m*3 21.8 C 12.9 km/h
453 12-04-2020 13:40:00 21.9 C 6.95 g/m*3 21.9 C 14.5 km/h
454 12-04-2020 13:45:00 21.9 C 6.56 g/m*3 21.9 C 9.7 km/h
455 12-04-2020 13:50:00 21.9 C 6.37 g/m*3 21.9 C 12.9 km/h
456 12-04-2020 13:55:00 21.9 C 6.37 g/m*3 21.9 C 14.5 km/h
457 12-04-2020 14:00:00 21.9 C 6.37 g/m*3 21.9 C 14.5 km/h
458 12-04-2020 14:05:00 22 C 6.6 g/m*3 22 C 11.3 km/h
459 12-04-2020 14:10:00 22.1 C 6.44 g/m*3 22.1 C 8.1 km/h
460 12-04-2020 14:15:00 22.2 C 6.28 g/m*3 22.2 C 6.4 km/h
461 12-04-2020 14:20:00 22.3 C 6.32 g/m*3 22.3 C 16.1 km/h
462 12-04-2020 14:25:00 22.4 C 6.16 g/m*3 22.4 C 16.1 km/h
463 12-04-2020 14:30:00 22.4 C 6.55 g/m*3 22.4 C 6.4 km/h
464 12-04-2020 14:35:00 22.4 C 6.36 g/m*3 22.4 C 8.1 km/h
465 12-04-2020 14:40:00 22.6 C 6.43 g/m*3 22.6 C 11.3 km/h
466 12-04-2020 14:45:00 22.7 C 6.26 g/m*3 22.7 C 14.5 km/h
467 12-04-2020 14:50:00 22.9 C 6.34 g/m*3 22.9 C 9.7 km/h
468 12-04-2020 14:55:00 23.1 C 6.41 g/m*3 23.1 C 11.3 km/h
469 12-04-2020 15:00:00 23.1 C 6.41 g/m*3 23.1 C 4.8 km/h
470 12-04-2020 15:05:00 23.2 C 6.24 g/m*3 23.2 C 17.7 km/h
471 12-04-2020 15:10:00 23.2 C 6.24 g/m*3 23.2 C 11.3 km/h
472 12-04-2020 15:15:00 23.1 C 5.99 g/m*3 23.1 C 6.4 km/h
473 12-04-2020 15:20:00 23.2 C 5.82 g/m*3 23.2 C 16.1 km/h
474 12-04-2020 15:25:00 23.3 C 5.65 g/m*3 23.3 C 11.3 km/h
475 12-04-2020 15:30:00 23.4 C 5.68 g/m*3 23.4 C 8.1 km/h
Sensor: Nr:Datum:Temp:Abs-Feuchte:Windchill:Wind:
Aussen-T/F 476 12-04-2020 15:35:00 23.5 C 5.92 g/m*3 23.5 C 8.1 km/h
477 12-04-2020 15:40:00 23.7 C 5.99 g/m*3 23.7 C 11.3 km/h
478 12-04-2020 15:45:00 23.9 C 6.92 g/m*3 23.9 C 19.3 km/h
479 12-04-2020 15:50:00 23.6 C 6.59 g/m*3 23.6 C 11.3 km/h
480 12-04-2020 15:55:00 23.3 C 6.48 g/m*3 23.3 C 9.7 km/h
481 12-04-2020 16:00:00 23.2 C 7.28 g/m*3 23.2 C 8.1 km/h
482 12-04-2020 16:05:00 23.4 C 6.73 g/m*3 23.4 C 1.6 km/h
483 12-04-2020 16:10:00 23.8 C 6.88 g/m*3 23.8 C 3.2 km/h
484 12-04-2020 16:15:00 24.2 C 6.38 g/m*3 24.2 C 6.4 km/h
485 12-04-2020 16:20:00 24.6 C 5.85 g/m*3 24.6 C 11.3 km/h
486 12-04-2020 16:25:00 24.8 C 5.24 g/m*3 24.8 C 9.7 km/h
487 12-04-2020 16:30:00 24.6 C 6.08 g/m*3 24.6 C 11.3 km/h
488 12-04-2020 16:35:00 24.1 C 6.35 g/m*3 24.1 C 8.1 km/h
489 12-04-2020 16:40:00 23.7 C 6.2 g/m*3 23.7 C 3.2 km/h
490 12-04-2020 16:45:00 23.4 C 6.1 g/m*3 23.4 C 8.1 km/h
491 12-04-2020 16:50:00 23.2 C 6.24 g/m*3 23.2 C 6.4 km/h
492 12-04-2020 16:55:00 23.2 C 6.44 g/m*3 23.2 C 8.1 km/h
493 12-04-2020 17:00:00 23.8 C 6.45 g/m*3 23.8 C 8.1 km/h
494 12-04-2020 17:05:00 24.3 C 6.42 g/m*3 24.3 C 9.7 km/h
495 12-04-2020 17:10:00 24.4 C 6.23 g/m*3 24.4 C 9.7 km/h
496 12-04-2020 17:15:00 24.5 C 6.27 g/m*3 24.5 C 9.7 km/h
497 12-04-2020 17:20:00 24.3 C 6.42 g/m*3 24.3 C 6.4 km/h
498 12-04-2020 17:25:00 24.3 C 6.42 g/m*3 24.3 C 4.8 km/h
499 12-04-2020 17:30:00 24.2 C 5.94 g/m*3 24.2 C 4.8 km/h
500 12-04-2020 17:35:00 24.1 C 6.56 g/m*3 24.1 C 4.8 km/h
Sensor: Nr:Datum:Temp:Abs-Feuchte:Windchill:Wind:
Aussen-T/F 501 12-04-2020 17:40:00 24.3 C 6.42 g/m*3 24.3 C 6.4 km/h
502 12-04-2020 17:45:00 24.5 C 6.04 g/m*3 24.5 C 6.4 km/h
503 12-04-2020 17:50:00 24.6 C 6.08 g/m*3 24.6 C 8.1 km/h
504 12-04-2020 17:55:00 24.7 C 6.11 g/m*3 24.7 C 8.1 km/h
505 12-04-2020 18:00:00 24.6 C 6.3 g/m*3 24.6 C 4.8 km/h
506 12-04-2020 18:05:00 24.6 C 5.85 g/m*3 24.6 C 6.4 km/h
507 12-04-2020 18:10:00 24.6 C 6.08 g/m*3 24.6 C 4.8 km/h
508 12-04-2020 18:15:00 24.7 C 5.88 g/m*3 24.7 C 6.4 km/h
509 12-04-2020 18:20:00 24.7 C 6.11 g/m*3 24.7 C 3.2 km/h
510 12-04-2020 18:25:00 24.9 C 6.18 g/m*3 24.9 C 6.4 km/h
511 12-04-2020 18:30:00 24.8 C 5.92 g/m*3 24.8 C 8.1 km/h
512 12-04-2020 18:35:00 24.7 C 6.11 g/m*3 24.7 C 6.4 km/h
513 12-04-2020 18:40:00 24.3 C 5.97 g/m*3 24.3 C 9.7 km/h
514 12-04-2020 18:45:00 24.1 C 6.35 g/m*3 24.1 C 4.8 km/h
515 12-04-2020 18:50:00 24.1 C 6.13 g/m*3 24.1 C 8.1 km/h
516 12-04-2020 18:55:00 23.8 C 5.81 g/m*3 23.8 C 9.7 km/h
517 12-04-2020 19:00:00 23.7 C 5.99 g/m*3 23.7 C 6.4 km/h
518 12-04-2020 19:05:00 23.7 C 6.2 g/m*3 23.7 C 8.1 km/h
519 12-04-2020 19:10:00 23.4 C 5.89 g/m*3 23.4 C 8.1 km/h
520 12-04-2020 19:15:00 23.3 C 6.06 g/m*3 23.3 C 4.8 km/h
521 12-04-2020 19:20:00 23.1 C 5.99 g/m*3 23.1 C 4.8 km/h
522 12-04-2020 19:25:00 22.9 C 5.72 g/m*3 22.9 C 4.8 km/h
523 12-04-2020 19:30:00 22.7 C 6.06 g/m*3 22.7 C 3.2 km/h
524 12-04-2020 19:35:00 22.5 C 6.99 g/m*3 22.5 C 1.6 km/h
525 12-04-2020 19:40:00 22.2 C 7.26 g/m*3 22.2 C 3.2 km/h
Sensor: Nr:Datum:Temp:Abs-Feuchte:Windchill:Wind:
Aussen-T/F 526 12-04-2020 19:45:00 21.9 C 7.14 g/m*3 21.9 C 3.2 km/h
527 12-04-2020 19:50:00 21.4 C 7.5 g/m*3 21.4 C 3.2 km/h
528 12-04-2020 19:55:00 20.7 C 7.2 g/m*3 20.7 C 4.8 km/h
529 12-04-2020 20:00:00 20.1 C 7.13 g/m*3 20.1 C 4.8 km/h
530 12-04-2020 20:05:00 19.3 C 7.13 g/m*3 19.3 C 6.4 km/h
531 12-04-2020 20:10:00 18.8 C 6.93 g/m*3 18.8 C 6.4 km/h
532 12-04-2020 20:15:00 18.3 C 7.04 g/m*3 18.3 C 6.4 km/h
533 12-04-2020 20:20:00 17.9 C 6.87 g/m*3 17.9 C 8.1 km/h
534 12-04-2020 20:25:00 17.6 C 6.9 g/m*3 17.6 C 6.4 km/h
535 12-04-2020 20:30:00 17.3 C 6.92 g/m*3 17.3 C 6.4 km/h
536 12-04-2020 20:35:00 17.1 C 6.99 g/m*3 17.1 C 6.4 km/h
537 12-04-2020 20:40:00 16.8 C 6.72 g/m*3 16.8 C 4.8 km/h
538 12-04-2020 20:45:00 16.6 C 6.78 g/m*3 16.6 C 6.4 km/h
539 12-04-2020 20:50:00 16.4 C 6.7 g/m*3 16.4 C 6.4 km/h
540 12-04-2020 20:55:00 16.2 C 6.9 g/m*3 16.2 C 6.4 km/h
541 12-04-2020 21:00:00 16 C 6.95 g/m*3 16 C 4.8 km/h
542 12-04-2020 21:05:00 15.8 C 7.13 g/m*3 15.8 C 4.8 km/h
543 12-04-2020 21:10:00 15.4 C 7.09 g/m*3 15.4 C 3.2 km/h
544 12-04-2020 21:15:00 15.2 C 7.14 g/m*3 15.2 C 3.2 km/h
545 12-04-2020 21:20:00 14.8 C 7.22 g/m*3 14.8 C 0 km/h
546 12-04-2020 21:25:00 14.5 C 7.09 g/m*3 14.5 C 1.6 km/h
547 12-04-2020 21:30:00 14.2 C 7.33 g/m*3 14.2 C 0 km/h
548 12-04-2020 21:35:00 14.1 C 7.04 g/m*3 14.1 C 1.6 km/h
549 12-04-2020 21:40:00 13.9 C 7.19 g/m*3 13.9 C 3.2 km/h
550 12-04-2020 21:45:00 13.9 C 6.95 g/m*3 13.9 C 1.6 km/h
Sensor: Nr:Datum:Temp:Abs-Feuchte:Windchill:Wind:
Aussen-T/F 551 12-04-2020 21:50:00 13.8 C 7.15 g/m*3 13.8 C 0 km/h
552 12-04-2020 21:55:00 13.7 C 7.1 g/m*3 13.7 C 0 km/h
553 12-04-2020 22:00:00 13.6 C 7.3 g/m*3 13.6 C 0 km/h
554 12-04-2020 22:05:00 13.6 C 7.18 g/m*3 13.6 C 0 km/h
555 12-04-2020 22:10:00 13.5 C 7.25 g/m*3 13.5 C 0 km/h
556 12-04-2020 22:15:00 13.4 C 7.09 g/m*3 13.4 C 1.6 km/h
557 12-04-2020 22:20:00 13.3 C 7.05 g/m*3 13.3 C 0 km/h
558 12-04-2020 22:25:00 13.2 C 6.89 g/m*3 13.2 C 0 km/h
559 12-04-2020 22:30:00 13.2 C 6.89 g/m*3 13.2 C 0 km/h
560 12-04-2020 22:35:00 13 C 6.92 g/m*3 13 C 0 km/h
561 12-04-2020 22:40:00 12.8 C 6.94 g/m*3 12.8 C 0 km/h
562 12-04-2020 22:45:00 12.6 C 6.97 g/m*3 12.6 C 0 km/h
563 12-04-2020 22:50:00 12.4 C 6.77 g/m*3 12.4 C 0 km/h
564 12-04-2020 22:55:00 12.2 C 6.69 g/m*3 12.2 C 0 km/h
565 12-04-2020 23:00:00 12.2 C 6.8 g/m*3 12.2 C 0 km/h
566 12-04-2020 23:05:00 12.1 C 6.86 g/m*3 12.1 C 0 km/h
567 12-04-2020 23:10:00 11.9 C 6.88 g/m*3 11.9 C 0 km/h
568 12-04-2020 23:15:00 11.7 C 6.9 g/m*3 11.7 C 0 km/h
569 12-04-2020 23:20:00 11.6 C 6.86 g/m*3 11.6 C 0 km/h
570 12-04-2020 23:25:00 11.6 C 6.86 g/m*3 11.6 C 0 km/h
571 12-04-2020 23:30:00 11.4 C 6.77 g/m*3 11.4 C 0 km/h
572 12-04-2020 23:35:00 11.3 C 6.83 g/m*3 11.3 C 0 km/h
573 12-04-2020 23:40:00 11.1 C 6.85 g/m*3 11.1 C 0 km/h
574 12-04-2020 23:45:00 10.9 C 6.86 g/m*3 10.9 C 0 km/h
575 12-04-2020 23:50:00 10.8 C 6.92 g/m*3 10.8 C 3.2 km/h
Sensor: Nr:Datum:Temp:Abs-Feuchte:Windchill:Wind:
Aussen-T/F 576 12-04-2020 23:55:00 10.8 C 6.82 g/m*3 10.8 C 0 km/h
577 13-04-2020 00:00:00 10.8 C 6.92 g/m*3 10.8 C 0 km/h
578 13-04-2020 00:05:00 10.8 C 6.92 g/m*3 10.8 C 0 km/h
579 13-04-2020 00:10:00 10.8 C 7.02 g/m*3 10.8 C 0 km/h
580 13-04-2020 00:15:00 10.8 C 7.02 g/m*3 10.8 C 0 km/h
581 13-04-2020 00:20:00 10.8 C 7.12 g/m*3 10.8 C 0 km/h
582 13-04-2020 00:25:00 10.8 C 7.12 g/m*3 10.8 C 0 km/h
583 13-04-2020 00:30:00 10.7 C 7.07 g/m*3 10.7 C 0 km/h
584 13-04-2020 00:35:00 10.7 C 7.07 g/m*3 10.7 C 0 km/h
585 13-04-2020 00:40:00 10.6 C 7.03 g/m*3 10.6 C 0 km/h
586 13-04-2020 00:45:00 10.4 C 7.04 g/m*3 10.4 C 0 km/h
587 13-04-2020 00:50:00 10.3 C 6.99 g/m*3 10.3 C 0 km/h
588 13-04-2020 00:55:00 10.2 C 7.04 g/m*3 10.2 C 0 km/h
589 13-04-2020 01:00:00 10.1 C 7 g/m*3 10.1 C 0 km/h
590 13-04-2020 01:05:00 9.9 C 6.91 g/m*3 9.9 C 0 km/h
591 13-04-2020 01:10:00 9.8 C 6.87 g/m*3 9.8 C 0 km/h
592 13-04-2020 01:15:00 9.8 C 6.96 g/m*3 9.8 C 0 km/h
593 13-04-2020 01:20:00 9.8 C 6.96 g/m*3 9.8 C 0 km/h
594 13-04-2020 01:25:00 9.7 C 7.01 g/m*3 9.7 C 0 km/h
595 13-04-2020 01:30:00 9.7 C 7.01 g/m*3 9.7 C 0 km/h
596 13-04-2020 01:35:00 9.7 C 7.01 g/m*3 9.7 C 0 km/h
597 13-04-2020 01:40:00 9.6 C 6.96 g/m*3 9.6 C 0 km/h
598 13-04-2020 01:45:00 9.6 C 6.96 g/m*3 9.6 C 0 km/h
599 13-04-2020 01:50:00 9.6 C 6.96 g/m*3 9.6 C 0 km/h
600 13-04-2020 01:55:00 9.6 C 6.96 g/m*3 9.6 C 4.8 km/h
Sensor: Nr:Datum:Temp:Abs-Feuchte:Windchill:Wind:
Aussen-T/F 601 13-04-2020 02:00:00 9.6 C 6.96 g/m*3 9.6 C 3.2 km/h
602 13-04-2020 02:05:00 9.5 C 6.92 g/m*3 9.5 C 1.6 km/h
603 13-04-2020 02:10:00 9.4 C 6.87 g/m*3 9.4 C 1.6 km/h
604 13-04-2020 02:15:00 9.4 C 6.87 g/m*3 9.4 C 0 km/h
605 13-04-2020 02:20:00 9.4 C 6.87 g/m*3 9.4 C 1.6 km/h
606 13-04-2020 02:25:00 9.4 C 6.96 g/m*3 9.4 C 4.8 km/h
607 13-04-2020 02:30:00 9.4 C 6.96 g/m*3 8.68 C 6.4 km/h
608 13-04-2020 02:35:00 9.4 C 6.96 g/m*3 9.4 C 1.6 km/h
609 13-04-2020 02:40:00 9.3 C 6.92 g/m*3 9.3 C 0 km/h
610 13-04-2020 02:45:00 9.2 C 6.88 g/m*3 9.2 C 3.2 km/h
611 13-04-2020 02:50:00 9.3 C 6.92 g/m*3 9.3 C 3.2 km/h
612 13-04-2020 02:55:00 9.3 C 6.92 g/m*3 9.3 C 0 km/h
613 13-04-2020 03:00:00 9.2 C 6.88 g/m*3 9.2 C 1.6 km/h
614 13-04-2020 03:05:00 9.1 C 6.92 g/m*3 9.1 C 3.2 km/h
615 13-04-2020 03:10:00 8.9 C 6.92 g/m*3 8.9 C 0 km/h
616 13-04-2020 03:15:00 8.8 C 6.88 g/m*3 8.8 C 0 km/h
617 13-04-2020 03:20:00 8.7 C 6.83 g/m*3 8.7 C 0 km/h
618 13-04-2020 03:25:00 8.6 C 6.87 g/m*3 8.6 C 4.8 km/h
619 13-04-2020 03:30:00 8.6 C 6.87 g/m*3 8.6 C 4.8 km/h
620 13-04-2020 03:35:00 8.6 C 6.87 g/m*3 8.6 C 1.6 km/h
621 13-04-2020 03:40:00 8.5 C 6.92 g/m*3 8.5 C 0 km/h
622 13-04-2020 03:45:00 8.4 C 6.87 g/m*3 8.4 C 1.6 km/h
623 13-04-2020 03:50:00 8.4 C 6.79 g/m*3 8.4 C 0 km/h
624 13-04-2020 03:55:00 8.3 C 6.83 g/m*3 8.3 C 1.6 km/h
625 13-04-2020 04:00:00 8.3 C 6.83 g/m*3 8.3 C 1.6 km/h
Sensor: Nr:Datum:Temp:Abs-Feuchte:Windchill:Wind:
Aussen-T/F 626 13-04-2020 04:05:00 8.2 C 6.78 g/m*3 8.2 C 0 km/h
627 13-04-2020 04:10:00 8.1 C 6.74 g/m*3 8.1 C 0 km/h
628 13-04-2020 04:15:00 7.9 C 6.74 g/m*3 7.9 C 0 km/h
629 13-04-2020 04:20:00 7.8 C 6.77 g/m*3 7.8 C 0 km/h
630 13-04-2020 04:25:00 7.6 C 6.69 g/m*3 7.6 C 0 km/h
631 13-04-2020 04:30:00 7.5 C 6.72 g/m*3 7.5 C 0 km/h
632 13-04-2020 04:35:00 7.4 C 6.76 g/m*3 7.4 C 0 km/h
633 13-04-2020 04:40:00 7.3 C 6.72 g/m*3 7.3 C 0 km/h
634 13-04-2020 04:45:00 7.3 C 6.72 g/m*3 7.3 C 1.6 km/h
635 13-04-2020 04:50:00 7.3 C 6.79 g/m*3 6.25 C 6.4 km/h
636 13-04-2020 04:55:00 7.3 C 6.79 g/m*3 7.3 C 3.2 km/h
637 13-04-2020 05:00:00 7.4 C 6.84 g/m*3 7.4 C 0 km/h
638 13-04-2020 05:05:00 7.4 C 6.76 g/m*3 7.4 C 0 km/h
639 13-04-2020 05:10:00 7.4 C 6.76 g/m*3 7.4 C 1.6 km/h
640 13-04-2020 05:15:00 7.4 C 6.84 g/m*3 7.4 C 4.8 km/h
641 13-04-2020 05:20:00 7.5 C 6.96 g/m*3 7.5 C 0 km/h
642 13-04-2020 05:25:00 7.6 C 7.01 g/m*3 7.6 C 0 km/h
643 13-04-2020 05:30:00 7.6 C 7.01 g/m*3 7.6 C 0 km/h
644 13-04-2020 05:35:00 7.6 C 6.93 g/m*3 7.6 C 0 km/h
645 13-04-2020 05:40:00 7.6 C 6.93 g/m*3 7.6 C 4.8 km/h
646 13-04-2020 05:45:00 7.7 C 6.97 g/m*3 7.7 C 1.6 km/h
647 13-04-2020 05:50:00 7.7 C 6.89 g/m*3 7.7 C 3.2 km/h
648 13-04-2020 05:55:00 7.7 C 6.89 g/m*3 7.7 C 0 km/h
649 13-04-2020 06:00:00 7.8 C 6.94 g/m*3 7.8 C 0 km/h
650 13-04-2020 06:05:00 7.8 C 6.94 g/m*3 7.8 C 0 km/h
Sensor: Nr:Datum:Temp:Abs-Feuchte:Windchill:Wind:
Aussen-T/F 651 13-04-2020 06:10:00 7.7 C 6.81 g/m*3 7.7 C 0 km/h
652 13-04-2020 06:15:00 7.6 C 6.77 g/m*3 7.6 C 0 km/h
653 13-04-2020 06:20:00 7.4 C 6.76 g/m*3 7.4 C 0 km/h
654 13-04-2020 06:25:00 7.3 C 6.72 g/m*3 7.3 C 0 km/h
655 13-04-2020 06:30:00 7.2 C 6.75 g/m*3 7.2 C 0 km/h
656 13-04-2020 06:35:00 7.2 C 6.75 g/m*3 7.2 C 0 km/h
657 13-04-2020 06:40:00 7.1 C 6.71 g/m*3 7.1 C 0 km/h
658 13-04-2020 06:45:00 6.9 C 6.7 g/m*3 6.9 C 0 km/h
659 13-04-2020 06:50:00 6.9 C 6.7 g/m*3 6.9 C 0 km/h
660 13-04-2020 06:55:00 6.9 C 6.7 g/m*3 6.9 C 0 km/h
661 13-04-2020 07:00:00 6.9 C 6.77 g/m*3 6.9 C 0 km/h
662 13-04-2020 07:05:00 7 C 6.82 g/m*3 7 C 0 km/h
663 13-04-2020 07:10:00 7.1 C 6.86 g/m*3 7.1 C 0 km/h
664 13-04-2020 07:15:00 7.2 C 6.91 g/m*3 7.2 C 0 km/h
665 13-04-2020 07:20:00 7.3 C 6.95 g/m*3 7.3 C 0 km/h
666 13-04-2020 07:25:00 7.4 C 7 g/m*3 7.4 C 0 km/h
667 13-04-2020 07:30:00 7.6 C 7.09 g/m*3 7.6 C 1.6 km/h
668 13-04-2020 07:35:00 7.8 C 7.18 g/m*3 7.8 C 1.6 km/h
669 13-04-2020 07:40:00 7.9 C 7.15 g/m*3 7.9 C 1.6 km/h
670 13-04-2020 07:45:00 8.1 C 7.16 g/m*3 8.1 C 1.6 km/h
671 13-04-2020 07:50:00 8.2 C 7.2 g/m*3 8.2 C 1.6 km/h
672 13-04-2020 07:55:00 8.3 C 7.16 g/m*3 8.3 C 4.8 km/h
673 13-04-2020 08:00:00 8.4 C 7.21 g/m*3 8.4 C 0 km/h
674 13-04-2020 08:05:00 8.5 C 7.26 g/m*3 8.5 C 1.6 km/h
675 13-04-2020 08:10:00 8.6 C 7.3 g/m*3 8.6 C 1.6 km/h
Sensor: Nr:Datum:Temp:Abs-Feuchte:Windchill:Wind:
Aussen-T/F 676 13-04-2020 08:15:00 8.7 C 7.35 g/m*3 8.7 C 1.6 km/h
677 13-04-2020 08:20:00 8.8 C 7.4 g/m*3 8.8 C 3.2 km/h
678 13-04-2020 08:25:00 8.9 C 7.45 g/m*3 8.9 C 4.8 km/h
679 13-04-2020 08:30:00 9.1 C 7.54 g/m*3 9.1 C 3.2 km/h
680 13-04-2020 08:35:00 9.3 C 7.73 g/m*3 9.3 C 4.8 km/h
681 13-04-2020 08:40:00 9.7 C 8.11 g/m*3 9.02 C 6.4 km/h
682 13-04-2020 08:45:00 10.3 C 8.43 g/m*3 10.3 C 4.8 km/h
683 13-04-2020 08:50:00 10.7 C 8.55 g/m*3 8.84 C 14.5 km/h
684 13-04-2020 08:55:00 10.9 C 8.55 g/m*3 10.41 C 6.4 km/h
685 13-04-2020 09:00:00 11.2 C 8.72 g/m*3 11.2 C 8.1 km/h
686 13-04-2020 09:05:00 11.3 C 8.67 g/m*3 11.3 C 9.7 km/h
687 13-04-2020 09:10:00 11.3 C 8.67 g/m*3 11.3 C 12.9 km/h
688 13-04-2020 09:15:00 11.3 C 8.57 g/m*3 11.3 C 11.3 km/h
689 13-04-2020 09:20:00 11.4 C 8.72 g/m*3 11.4 C 9.7 km/h
690 13-04-2020 09:25:00 11.4 C 8.62 g/m*3 11.4 C 11.3 km/h
691 13-04-2020 09:30:00 11.5 C 8.68 g/m*3 11.5 C 4.8 km/h
692 13-04-2020 09:35:00 11.6 C 8.63 g/m*3 11.6 C 8.1 km/h
693 13-04-2020 09:40:00 11.7 C 8.68 g/m*3 11.7 C 9.7 km/h
694 13-04-2020 09:45:00 11.8 C 8.74 g/m*3 11.8 C 9.7 km/h
695 13-04-2020 09:50:00 11.8 C 8.63 g/m*3 11.8 C 14.5 km/h
696 13-04-2020 09:55:00 11.6 C 8.21 g/m*3 11.6 C 19.3 km/h
697 13-04-2020 10:00:00 11.5 C 8.26 g/m*3 11.5 C 11.3 km/h
698 13-04-2020 10:05:00 11.4 C 8.21 g/m*3 11.4 C 8.1 km/h
699 13-04-2020 10:10:00 11.3 C 8.16 g/m*3 11.3 C 8.1 km/h
700 13-04-2020 10:15:00 11.3 C 8.06 g/m*3 11.3 C 12.9 km/h
Sensor: Nr:Datum:Temp:Abs-Feuchte:Windchill:Wind:
Aussen-T/F 701 13-04-2020 10:20:00 11.2 C 7.91 g/m*3 11.2 C 14.5 km/h
702 13-04-2020 10:25:00 11.2 C 8.01 g/m*3 11.2 C 9.7 km/h
703 13-04-2020 10:30:00 11.2 C 8.01 g/m*3 11.2 C 9.7 km/h
704 13-04-2020 10:35:00 11.1 C 7.96 g/m*3 11.1 C 8.1 km/h
705 13-04-2020 10:40:00 11.1 C 7.96 g/m*3 11.1 C 9.7 km/h
706 13-04-2020 10:45:00 11.2 C 7.91 g/m*3 11.2 C 12.9 km/h
707 13-04-2020 10:50:00 11.2 C 7.8 g/m*3 11.2 C 12.9 km/h
708 13-04-2020 10:55:00 11.3 C 7.85 g/m*3 11.3 C 8.1 km/h
709 13-04-2020 11:00:00 11.3 C 7.75 g/m*3 11.3 C 14.5 km/h
710 13-04-2020 11:05:00 11.3 C 7.75 g/m*3 11.3 C 12.9 km/h
711 13-04-2020 11:10:00 11.3 C 7.65 g/m*3 11.3 C 11.3 km/h
712 13-04-2020 11:15:00 11.3 C 7.65 g/m*3 11.3 C 14.5 km/h
713 13-04-2020 11:20:00 11.3 C 7.65 g/m*3 11.3 C 11.3 km/h
714 13-04-2020 11:25:00 11.3 C 7.55 g/m*3 11.3 C 17.7 km/h
715 13-04-2020 11:30:00 11.3 C 7.55 g/m*3 11.3 C 16.1 km/h
716 13-04-2020 11:35:00 11.3 C 7.45 g/m*3 11.3 C 16.1 km/h
717 13-04-2020 11:40:00 11.2 C 7.3 g/m*3 11.2 C 17.7 km/h
718 13-04-2020 11:45:00 11 C 7.31 g/m*3 9.4 C 12.9 km/h
719 13-04-2020 11:50:00 10.8 C 7.12 g/m*3 8.78 C 16.1 km/h
720 13-04-2020 11:55:00 10.8 C 7.12 g/m*3 8.78 C 16.1 km/h
721 13-04-2020 12:00:00 10.7 C 7.17 g/m*3 8.84 C 14.5 km/h
722 13-04-2020 12:05:00 10.7 C 7.17 g/m*3 8.84 C 14.5 km/h
723 13-04-2020 12:10:00 10.6 C 7.42 g/m*3 8.53 C 16.1 km/h
724 13-04-2020 12:15:00 10.4 C 7.32 g/m*3 8.11 C 17.7 km/h
725 13-04-2020 12:20:00 10.2 C 7.33 g/m*3 7.54 C 20.9 km/h
Sensor: Nr:Datum:Temp:Abs-Feuchte:Windchill:Wind:
Aussen-T/F 726 13-04-2020 12:25:00 10.1 C 7.28 g/m*3 7.42 C 20.9 km/h
727 13-04-2020 12:30:00 10.2 C 7.42 g/m*3 7.86 C 17.7 km/h
728 13-04-2020 12:35:00 10.3 C 7.37 g/m*3 8.16 C 16.1 km/h
729 13-04-2020 12:40:00 10.3 C 7.28 g/m*3 7.98 C 17.7 km/h
730 13-04-2020 12:45:00 10.4 C 7.42 g/m*3 8.28 C 16.1 km/h
731 13-04-2020 12:50:00 10.3 C 7.28 g/m*3 7.82 C 19.3 km/h
732 13-04-2020 12:55:00 10.2 C 7.23 g/m*3 7.7 C 19.3 km/h
733 13-04-2020 13:00:00 10.1 C 7.28 g/m*3 7.91 C 16.1 km/h
734 13-04-2020 13:05:00 10 C 7.24 g/m*3 7.78 C 16.1 km/h
735 13-04-2020 13:10:00 9.9 C 7.28 g/m*3 7.66 C 16.1 km/h
736 13-04-2020 13:15:00 9.9 C 7.28 g/m*3 7.32 C 19.3 km/h
737 13-04-2020 13:20:00 9.9 C 7.19 g/m*3 7.48 C 17.7 km/h
738 13-04-2020 13:25:00 9.8 C 7.14 g/m*3 7.19 C 19.3 km/h
739 13-04-2020 13:30:00 9.7 C 7.1 g/m*3 6.63 C 24.1 km/h
740 13-04-2020 13:35:00 9.5 C 7.1 g/m*3 6.66 C 20.9 km/h
741 13-04-2020 13:40:00 9.3 C 7.1 g/m*3 6.26 C 22.5 km/h
742 13-04-2020 13:45:00 9.1 C 7.19 g/m*3 6.15 C 20.9 km/h
743 13-04-2020 13:50:00 8.7 C 7.18 g/m*3 6.17 C 16.1 km/h
744 13-04-2020 13:55:00 8.4 C 7.21 g/m*3 5.61 C 17.7 km/h
745 13-04-2020 14:00:00 8.2 C 7.2 g/m*3 6.87 C 8.1 km/h
746 13-04-2020 14:05:00 8.1 C 7.24 g/m*3 6.42 C 9.7 km/h
747 13-04-2020 14:10:00 8.1 C 7.16 g/m*3 7.17 C 6.4 km/h
748 13-04-2020 14:15:00 8.1 C 7.16 g/m*3 6.42 C 9.7 km/h
749 13-04-2020 14:20:00 8.2 C 7.12 g/m*3 6.54 C 9.7 km/h
750 13-04-2020 14:25:00 8.3 C 7.08 g/m*3 6.37 C 11.3 km/h
Sensor: Nr:Datum:Temp:Abs-Feuchte:Windchill:Wind:
Aussen-T/F 751 13-04-2020 14:30:00 8.4 C 6.96 g/m*3 6.49 C 11.3 km/h
752 13-04-2020 14:35:00 8.6 C 7.13 g/m*3 7.75 C 6.4 km/h
753 13-04-2020 14:40:00 8.8 C 7.05 g/m*3 7.25 C 9.7 km/h
754 13-04-2020 14:45:00 9 C 6.96 g/m*3 7.49 C 9.7 km/h
755 13-04-2020 14:50:00 9.3 C 7.1 g/m*3 7.33 C 12.9 km/h
756 13-04-2020 14:55:00 9.6 C 6.78 g/m*3 7.11 C 17.7 km/h
757 13-04-2020 15:00:00 9.9 C 6.82 g/m*3 8.06 C 12.9 km/h
758 13-04-2020 15:05:00 10.2 C 6.85 g/m*3 8.22 C 14.5 km/h
759 13-04-2020 15:10:00 10.4 C 6.65 g/m*3 8.67 C 12.9 km/h
760 13-04-2020 15:15:00 10.6 C 6.73 g/m*3 8.71 C 14.5 km/h
761 13-04-2020 15:20:00 10.7 C 6.19 g/m*3 8.65 C 16.1 km/h
762 13-04-2020 15:25:00 10.6 C 5.95 g/m*3 8.05 C 20.9 km/h
763 13-04-2020 15:30:00 10.6 C 5.86 g/m*3 8.53 C 16.1 km/h
764 13-04-2020 15:35:00 10.6 C 5.86 g/m*3 8.53 C 16.1 km/h
765 13-04-2020 15:40:00 10.7 C 5.8 g/m*3 9.04 C 12.9 km/h
766 13-04-2020 15:45:00 10.8 C 5.44 g/m*3 8.78 C 16.1 km/h
767 13-04-2020 15:50:00 10.8 C 5.54 g/m*3 8.61 C 17.7 km/h
768 13-04-2020 15:55:00 10.9 C 5.47 g/m*3 8.58 C 19.3 km/h
769 13-04-2020 16:00:00 10.9 C 5.37 g/m*3 8.58 C 19.3 km/h
770 13-04-2020 16:05:00 10.7 C 5.21 g/m*3 7.91 C 24.1 km/h
771 13-04-2020 16:10:00 10.8 C 5.14 g/m*3 8.61 C 17.7 km/h
772 13-04-2020 16:15:00 10.9 C 5.27 g/m*3 9.28 C 12.9 km/h
773 13-04-2020 16:20:00 10.9 C 5.17 g/m*3 8.58 C 19.3 km/h
774 13-04-2020 16:25:00 11.3 C 5.3 g/m*3 11.3 C 14.5 km/h
775 13-04-2020 16:30:00 11.6 C 5.2 g/m*3 11.6 C 19.3 km/h
Sensor: Nr:Datum:Temp:Abs-Feuchte:Windchill:Wind:
Aussen-T/F 776 13-04-2020 16:35:00 11.9 C 4.98 g/m*3 11.9 C 19.3 km/h
777 13-04-2020 16:40:00 11.9 C 4.87 g/m*3 11.9 C 20.9 km/h
778 13-04-2020 16:45:00 11.9 C 4.87 g/m*3 11.9 C 16.1 km/h
779 13-04-2020 16:50:00 12 C 4.9 g/m*3 12 C 14.5 km/h
780 13-04-2020 16:55:00 12.3 C 4.99 g/m*3 12.3 C 17.7 km/h
781 13-04-2020 17:00:00 12.3 C 4.78 g/m*3 12.3 C 16.1 km/h
782 13-04-2020 17:05:00 12.3 C 4.89 g/m*3 12.3 C 14.5 km/h
783 13-04-2020 17:10:00 12.4 C 4.92 g/m*3 12.4 C 14.5 km/h
784 13-04-2020 17:15:00 12.6 C 4.98 g/m*3 12.6 C 19.3 km/h
785 13-04-2020 17:20:00 12.5 C 4.73 g/m*3 12.5 C 17.7 km/h
786 13-04-2020 17:25:00 12.6 C 4.87 g/m*3 12.6 C 14.5 km/h
787 13-04-2020 17:30:00 12.6 C 4.76 g/m*3 12.6 C 19.3 km/h
788 13-04-2020 17:35:00 12.6 C 4.87 g/m*3 12.6 C 20.9 km/h
789 13-04-2020 17:40:00 12.7 C 4.79 g/m*3 12.7 C 12.9 km/h
790 13-04-2020 17:45:00 12.7 C 4.56 g/m*3 12.7 C 19.3 km/h
791 13-04-2020 17:50:00 12.5 C 4.62 g/m*3 12.5 C 16.1 km/h
792 13-04-2020 17:55:00 12.8 C 4.82 g/m*3 12.8 C 14.5 km/h
793 13-04-2020 18:00:00 13.1 C 4.68 g/m*3 13.1 C 16.1 km/h
794 13-04-2020 18:05:00 13.1 C 4.68 g/m*3 13.1 C 14.5 km/h
795 13-04-2020 18:10:00 12.9 C 4.62 g/m*3 12.9 C 12.9 km/h
796 13-04-2020 18:15:00 12.7 C 4.45 g/m*3 12.7 C 14.5 km/h
797 13-04-2020 18:20:00 12.7 C 4.45 g/m*3 12.7 C 17.7 km/h
798 13-04-2020 18:25:00 12.6 C 4.65 g/m*3 12.6 C 20.9 km/h
799 13-04-2020 18:30:00 12.6 C 4.65 g/m*3 12.6 C 20.9 km/h
800 13-04-2020 18:35:00 12.4 C 4.26 g/m*3 12.4 C 19.3 km/h
Sensor: Nr:Datum:Temp:Abs-Feuchte:Windchill:Wind:
Aussen-T/F 801 13-04-2020 18:40:00 12.2 C 4.21 g/m*3 12.2 C 19.3 km/h
802 13-04-2020 18:45:00 12 C 4.16 g/m*3 12 C 16.1 km/h
803 13-04-2020 18:50:00 12 C 4.16 g/m*3 12 C 12.9 km/h
804 13-04-2020 18:55:00 11.9 C 4.13 g/m*3 11.9 C 14.5 km/h
805 13-04-2020 19:00:00 11.8 C 4.21 g/m*3 11.8 C 14.5 km/h
806 13-04-2020 19:05:00 11.7 C 4.18 g/m*3 11.7 C 17.7 km/h
807 13-04-2020 19:10:00 11.4 C 4.21 g/m*3 11.4 C 14.5 km/h
808 13-04-2020 19:15:00 11.3 C 4.28 g/m*3 11.3 C 14.5 km/h
809 13-04-2020 19:20:00 11.2 C 4.26 g/m*3 11.2 C 11.3 km/h
810 13-04-2020 19:25:00 10.9 C 4.28 g/m*3 8.9 C 16.1 km/h
811 13-04-2020 19:30:00 10.8 C 4.35 g/m*3 9.38 C 11.3 km/h
812 13-04-2020 19:35:00 10.7 C 4.22 g/m*3 8.48 C 17.7 km/h
813 13-04-2020 19:40:00 10.6 C 4.2 g/m*3 8.05 C 20.9 km/h
814 13-04-2020 19:45:00 10.4 C 4.14 g/m*3 8.67 C 12.9 km/h
815 13-04-2020 19:50:00 10.2 C 4.09 g/m*3 8.03 C 16.1 km/h
816 13-04-2020 19:55:00 10.1 C 4.07 g/m*3 7.91 C 16.1 km/h
817 13-04-2020 20:00:00 9.9 C 4.11 g/m*3 8.56 C 9.7 km/h
818 13-04-2020 20:05:00 9.7 C 4.15 g/m*3 8.06 C 11.3 km/h
819 13-04-2020 20:10:00 9.6 C 4.12 g/m*3 7.94 C 11.3 km/h
820 13-04-2020 20:15:00 9.3 C 4.13 g/m*3 7.85 C 9.7 km/h
821 13-04-2020 20:20:00 9.2 C 4.11 g/m*3 7.73 C 9.7 km/h
822 13-04-2020 20:25:00 9.1 C 4.08 g/m*3 6.67 C 16.1 km/h
823 13-04-2020 20:30:00 9 C 3.97 g/m*3 6.75 C 14.5 km/h
824 13-04-2020 20:35:00 9 C 3.97 g/m*3 6.97 C 12.9 km/h
825 13-04-2020 20:40:00 8.9 C 4.03 g/m*3 7.37 C 9.7 km/h
Sensor: Nr:Datum:Temp:Abs-Feuchte:Windchill:Wind:
Aussen-T/F 826 13-04-2020 20:45:00 8.8 C 4 g/m*3 7.25 C 9.7 km/h
827 13-04-2020 20:50:00 8.7 C 4.06 g/m*3 7.46 C 8.1 km/h
828 13-04-2020 20:55:00 8.5 C 4.01 g/m*3 7.22 C 8.1 km/h
829 13-04-2020 21:00:00 8.3 C 3.96 g/m*3 6.99 C 8.1 km/h
830 13-04-2020 21:05:00 8.3 C 3.96 g/m*3 6.99 C 8.1 km/h
831 13-04-2020 21:10:00 8.2 C 3.94 g/m*3 6.87 C 8.1 km/h
832 13-04-2020 21:15:00 8.2 C 4.02 g/m*3 6.25 C 11.3 km/h
833 13-04-2020 21:20:00 8.1 C 3.99 g/m*3 6.13 C 11.3 km/h
834 13-04-2020 21:25:00 8 C 3.97 g/m*3 7.06 C 6.4 km/h
835 13-04-2020 21:30:00 7.9 C 3.94 g/m*3 5.89 C 11.3 km/h
836 13-04-2020 21:35:00 7.8 C 3.92 g/m*3 7.8 C 4.8 km/h
837 13-04-2020 21:40:00 7.7 C 3.97 g/m*3 6.28 C 8.1 km/h
838 13-04-2020 21:45:00 7.6 C 4.03 g/m*3 5.82 C 9.7 km/h
839 13-04-2020 21:50:00 7.5 C 4.08 g/m*3 6.05 C 8.1 km/h
840 13-04-2020 21:55:00 7.4 C 3.98 g/m*3 7.4 C 3.2 km/h
841 13-04-2020 22:00:00 7.3 C 4.11 g/m*3 7.3 C 3.2 km/h
842 13-04-2020 22:05:00 7.1 C 4.21 g/m*3 7.1 C 3.2 km/h
843 13-04-2020 22:10:00 6.9 C 4 g/m*3 6.9 C 3.2 km/h
844 13-04-2020 22:15:00 6.7 C 4.18 g/m*3 6.7 C 1.6 km/h
845 13-04-2020 22:20:00 6.5 C 4.2 g/m*3 6.5 C 1.6 km/h
846 13-04-2020 22:25:00 6.3 C 4.07 g/m*3 6.3 C 4.8 km/h
847 13-04-2020 22:30:00 6.1 C 4.16 g/m*3 6.1 C 0 km/h
848 13-04-2020 22:35:00 5.8 C 4.23 g/m*3 5.8 C 0 km/h
849 13-04-2020 22:40:00 5.4 C 4.26 g/m*3 5.4 C 4.8 km/h
850 13-04-2020 22:45:00 5.1 C 4.31 g/m*3 5.1 C 0 km/h
Sensor: Nr:Datum:Temp:Abs-Feuchte:Windchill:Wind:
Aussen-T/F 851 13-04-2020 22:50:00 4.8 C 4.29 g/m*3 4.8 C 3.2 km/h
852 13-04-2020 22:55:00 4.7 C 4.33 g/m*3 4.7 C 3.2 km/h
853 13-04-2020 23:00:00 4.5 C 4.21 g/m*3 4.5 C 4.8 km/h
854 13-04-2020 23:05:00 4.4 C 4.24 g/m*3 4.4 C 0 km/h
855 13-04-2020 23:10:00 4.4 C 4.31 g/m*3 4.4 C 3.2 km/h
856 13-04-2020 23:15:00 4.3 C 4.28 g/m*3 4.3 C 3.2 km/h
857 13-04-2020 23:20:00 4.3 C 4.35 g/m*3 4.3 C 3.2 km/h
858 13-04-2020 23:25:00 4.2 C 4.38 g/m*3 4.2 C 4.8 km/h
859 13-04-2020 23:30:00 4.1 C 4.29 g/m*3 4.1 C 3.2 km/h
860 13-04-2020 23:35:00 4 C 4.26 g/m*3 4 C 4.8 km/h
861 13-04-2020 23:40:00 4.2 C 4.19 g/m*3 2.17 C 8.1 km/h
862 13-04-2020 23:45:00 4.3 C 4.15 g/m*3 4.3 C 3.2 km/h
863 13-04-2020 23:50:00 4.4 C 4.18 g/m*3 4.4 C 1.6 km/h
864 13-04-2020 23:55:00 4.4 C 4.18 g/m*3 4.4 C 1.6 km/h
865 14-04-2020 00:00:00 4.3 C 4.15 g/m*3 4.3 C 1.6 km/h
866 14-04-2020 00:05:00 4.2 C 4.12 g/m*3 4.2 C 3.2 km/h
867 14-04-2020 00:10:00 4.1 C 4.16 g/m*3 2.55 C 6.4 km/h
868 14-04-2020 00:15:00 4.2 C 4.19 g/m*3 2.17 C 8.1 km/h
869 14-04-2020 00:20:00 4.1 C 4.16 g/m*3 4.1 C 4.8 km/h
870 14-04-2020 00:25:00 4.1 C 4.16 g/m*3 4.1 C 0 km/h
871 14-04-2020 00:30:00 4.1 C 4.1 g/m*3 4.1 C 3.2 km/h
872 14-04-2020 00:35:00 4.1 C 4.16 g/m*3 4.1 C 0 km/h
873 14-04-2020 00:40:00 4 C 4.2 g/m*3 4 C 1.6 km/h
874 14-04-2020 00:45:00 3.9 C 4.17 g/m*3 3.9 C 1.6 km/h
875 14-04-2020 00:50:00 3.8 C 4.14 g/m*3 3.8 C 3.2 km/h
Sensor: Nr:Datum:Temp:Abs-Feuchte:Windchill:Wind:
Aussen-T/F 876 14-04-2020 00:55:00 3.8 C 4.08 g/m*3 3.8 C 1.6 km/h
877 14-04-2020 01:00:00 3.8 C 4.08 g/m*3 3.8 C 3.2 km/h
878 14-04-2020 01:05:00 3.9 C 4.04 g/m*3 3.9 C 4.8 km/h
879 14-04-2020 01:10:00 4 C 4.13 g/m*3 4 C 3.2 km/h
880 14-04-2020 01:15:00 4.1 C 4.16 g/m*3 2.55 C 6.4 km/h
881 14-04-2020 01:20:00 4.1 C 4.16 g/m*3 4.1 C 1.6 km/h
882 14-04-2020 01:25:00 3.9 C 4.23 g/m*3 3.9 C 0 km/h
883 14-04-2020 01:30:00 3.6 C 4.15 g/m*3 3.6 C 3.2 km/h
884 14-04-2020 01:35:00 3.4 C 4.15 g/m*3 3.4 C 3.2 km/h
885 14-04-2020 01:40:00 3.3 C 4.19 g/m*3 3.3 C 0 km/h
886 14-04-2020 01:45:00 3.1 C 4.19 g/m*3 3.1 C 0 km/h
887 14-04-2020 01:50:00 2.8 C 4.16 g/m*3 2.8 C 0 km/h
888 14-04-2020 01:55:00 2.6 C 4.17 g/m*3 2.6 C 1.6 km/h
889 14-04-2020 02:00:00 2.4 C 4.17 g/m*3 2.4 C 0 km/h
890 14-04-2020 02:05:00 2.4 C 4.17 g/m*3 2.4 C 0 km/h
891 14-04-2020 02:10:00 2.3 C 4.14 g/m*3 2.3 C 0 km/h
892 14-04-2020 02:15:00 2.3 C 4.2 g/m*3 2.3 C 0 km/h
893 14-04-2020 02:20:00 2.2 C 4.17 g/m*3 2.2 C 1.6 km/h
894 14-04-2020 02:25:00 2.1 C 4.14 g/m*3 2.1 C 0 km/h
895 14-04-2020 02:30:00 2 C 4.17 g/m*3 2 C 1.6 km/h
896 14-04-2020 02:35:00 1.9 C 4.14 g/m*3 1.9 C 1.6 km/h
897 14-04-2020 02:40:00 1.9 C 4.14 g/m*3 1.9 C 1.6 km/h
898 14-04-2020 02:45:00 1.8 C 4.11 g/m*3 1.8 C 0 km/h
899 14-04-2020 02:50:00 1.7 C 4.14 g/m*3 1.7 C 1.6 km/h
900 14-04-2020 02:55:00 1.6 C 4.16 g/m*3 1.6 C 0 km/h
Sensor: Nr:Datum:Temp:Abs-Feuchte:Windchill:Wind:
Aussen-T/F 901 14-04-2020 03:00:00 1.5 C 4.14 g/m*3 1.5 C 0 km/h
902 14-04-2020 03:05:00 1.4 C 4.11 g/m*3 1.4 C 4.8 km/h
903 14-04-2020 03:10:00 1.3 C 4.08 g/m*3 1.3 C 4.8 km/h
904 14-04-2020 03:15:00 1.4 C 4.11 g/m*3 1.4 C 3.2 km/h
905 14-04-2020 03:20:00 1.6 C 4.16 g/m*3 1.6 C 0 km/h
906 14-04-2020 03:25:00 1.6 C 4.16 g/m*3 1.6 C 1.6 km/h
907 14-04-2020 03:30:00 1.5 C 4.19 g/m*3 1.5 C 1.6 km/h
908 14-04-2020 03:35:00 1.5 C 4.14 g/m*3 1.5 C 4.8 km/h
909 14-04-2020 03:40:00 1.5 C 4.14 g/m*3 1.5 C 3.2 km/h
910 14-04-2020 03:45:00 1.5 C 4.19 g/m*3 1.5 C 1.6 km/h
911 14-04-2020 03:50:00 1.5 C 4.14 g/m*3 1.5 C 1.6 km/h
912 14-04-2020 03:55:00 1.5 C 4.14 g/m*3 1.5 C 1.6 km/h
913 14-04-2020 04:00:00 1.4 C 4.11 g/m*3 1.4 C 3.2 km/h
914 14-04-2020 04:05:00 1.4 C 4.16 g/m*3 1.4 C 0 km/h
915 14-04-2020 04:10:00 1.4 C 4.16 g/m*3 1.4 C 0 km/h
916 14-04-2020 04:15:00 1.3 C 4.13 g/m*3 1.3 C 0 km/h
917 14-04-2020 04:20:00 1.3 C 4.13 g/m*3 1.3 C 0 km/h
918 14-04-2020 04:25:00 1.2 C 4.16 g/m*3 1.2 C 1.6 km/h
919 14-04-2020 04:30:00 1.2 C 4.1 g/m*3 1.2 C 0 km/h
920 14-04-2020 04:35:00 1.1 C 4.13 g/m*3 1.1 C 4.8 km/h
921 14-04-2020 04:40:00 1 C 4.05 g/m*3 1 C 4.8 km/h
922 14-04-2020 04:45:00 0.9 C 4.02 g/m*3 0.9 C 4.8 km/h
923 14-04-2020 04:50:00 0.9 C 4.07 g/m*3 0.9 C 4.8 km/h
924 14-04-2020 04:55:00 0.9 C 4.07 g/m*3 0.9 C 4.8 km/h
925 14-04-2020 05:00:00 0.9 C 4.07 g/m*3 0.9 C 3.2 km/h
Sensor: Nr:Datum:Temp:Abs-Feuchte:Windchill:Wind:
Aussen-T/F 926 14-04-2020 05:05:00 0.8 C 4.1 g/m*3 0.8 C 0 km/h
927 14-04-2020 05:10:00 0.7 C 4.07 g/m*3 0.7 C 1.6 km/h
928 14-04-2020 05:15:00 0.6 C 4.04 g/m*3 0.6 C 3.2 km/h
929 14-04-2020 05:20:00 0.6 C 4.09 g/m*3 0.6 C 4.8 km/h
930 14-04-2020 05:25:00 0.6 C 4.09 g/m*3 0.6 C 3.2 km/h
931 14-04-2020 05:30:00 0.7 C 4.17 g/m*3 0.7 C 1.6 km/h
932 14-04-2020 05:35:00 0.8 C 4.2 g/m*3 0.8 C 0 km/h
933 14-04-2020 05:40:00 0.8 C 4.2 g/m*3 0.8 C 0 km/h
934 14-04-2020 05:45:00 0.9 C 4.23 g/m*3 0.9 C 0 km/h
935 14-04-2020 05:50:00 1 C 4.26 g/m*3 1 C 0 km/h
936 14-04-2020 05:55:00 0.9 C 4.23 g/m*3 0.9 C 3.2 km/h
937 14-04-2020 06:00:00 0.8 C 4.2 g/m*3 0.8 C 0 km/h
938 14-04-2020 06:05:00 0.7 C 4.17 g/m*3 0.7 C 0 km/h
939 14-04-2020 06:10:00 0.6 C 4.14 g/m*3 0.6 C 0 km/h
940 14-04-2020 06:15:00 0.4 C 4.08 g/m*3 0.4 C 0 km/h
941 14-04-2020 06:20:00 0.3 C 4.11 g/m*3 0.3 C 0 km/h
942 14-04-2020 06:25:00 0.2 C 4.13 g/m*3 0.2 C 0 km/h
943 14-04-2020 06:30:00 0.2 C 4.13 g/m*3 0.2 C 1.6 km/h
944 14-04-2020 06:35:00 0.2 C 4.18 g/m*3 0.2 C 0 km/h
945 14-04-2020 06:40:00 0.2 C 4.18 g/m*3 0.2 C 0 km/h
946 14-04-2020 06:45:00 0.3 C 4.25 g/m*3 0.3 C 4.8 km/h
947 14-04-2020 06:50:00 0.5 C 4.31 g/m*3 0.5 C 0 km/h
948 14-04-2020 06:55:00 0.6 C 4.34 g/m*3 0.6 C 0 km/h
949 14-04-2020 07:00:00 0.7 C 4.37 g/m*3 0.7 C 0 km/h
950 14-04-2020 07:05:00 0.8 C 4.4 g/m*3 0.8 C 0 km/h
Sensor: Nr:Datum:Temp:Abs-Feuchte:Windchill:Wind:
Aussen-T/F 951 14-04-2020 07:10:00 0.9 C 4.38 g/m*3 0.9 C 0 km/h
952 14-04-2020 07:15:00 0.9 C 4.38 g/m*3 0.9 C 0 km/h
953 14-04-2020 07:20:00 1.1 C 4.44 g/m*3 1.1 C 0 km/h
954 14-04-2020 07:25:00 1.2 C 4.47 g/m*3 1.2 C 0 km/h
955 14-04-2020 07:30:00 1.4 C 4.53 g/m*3 1.4 C 0 km/h
956 14-04-2020 07:35:00 1.5 C 4.51 g/m*3 1.5 C 0 km/h
957 14-04-2020 07:40:00 1.6 C 4.54 g/m*3 1.6 C 0 km/h
958 14-04-2020 07:45:00 1.8 C 4.6 g/m*3 1.8 C 0 km/h
959 14-04-2020 07:50:00 1.9 C 4.58 g/m*3 1.9 C 0 km/h
960 14-04-2020 07:55:00 2.1 C 4.64 g/m*3 2.1 C 0 km/h
961 14-04-2020 08:00:00 2.2 C 4.68 g/m*3 2.2 C 0 km/h
962 14-04-2020 08:05:00 2.3 C 4.71 g/m*3 2.3 C 0 km/h
963 14-04-2020 08:10:00 2.4 C 4.74 g/m*3 2.4 C 0 km/h
964 14-04-2020 08:15:00 2.5 C 4.71 g/m*3 2.5 C 0 km/h
965 14-04-2020 08:20:00 2.6 C 4.75 g/m*3 2.6 C 0 km/h
966 14-04-2020 08:25:00 2.6 C 4.75 g/m*3 2.6 C 0 km/h
967 14-04-2020 08:30:00 2.6 C 4.8 g/m*3 2.6 C 0 km/h
968 14-04-2020 08:35:00 2.6 C 4.8 g/m*3 2.6 C 4.8 km/h
969 14-04-2020 08:40:00 2.6 C 4.8 g/m*3 2.6 C 3.2 km/h
970 14-04-2020 08:45:00 2.6 C 4.8 g/m*3 2.6 C 0 km/h
971 14-04-2020 08:50:00 2.7 C 4.84 g/m*3 2.7 C 0 km/h
972 14-04-2020 08:55:00 2.8 C 4.87 g/m*3 2.8 C 1.6 km/h
973 14-04-2020 09:00:00 2.9 C 4.84 g/m*3 2.9 C 1.6 km/h
974 14-04-2020 09:05:00 3.1 C 4.91 g/m*3 3.1 C 1.6 km/h
975 14-04-2020 09:10:00 3.3 C 4.97 g/m*3 3.3 C 0 km/h
Sensor: Nr:Datum:Temp:Abs-Feuchte:Windchill:Wind:
Aussen-T/F 976 14-04-2020 09:15:00 3.6 C 4.95 g/m*3 3.6 C 1.6 km/h
977 14-04-2020 09:20:00 3.9 C 4.99 g/m*3 3.9 C 1.6 km/h
978 14-04-2020 09:25:00 4.3 C 5.12 g/m*3 4.3 C 1.6 km/h
979 14-04-2020 09:30:00 4.6 C 5.1 g/m*3 4.6 C 0 km/h
980 14-04-2020 09:35:00 4.9 C 5.06 g/m*3 4.9 C 3.2 km/h
981 14-04-2020 09:40:00 5.1 C 5.06 g/m*3 5.1 C 4.8 km/h
982 14-04-2020 09:45:00 5.2 C 5.03 g/m*3 5.2 C 3.2 km/h
983 14-04-2020 09:50:00 5.4 C 5.02 g/m*3 5.4 C 3.2 km/h
984 14-04-2020 09:55:00 5.6 C 5.09 g/m*3 5.6 C 1.6 km/h
985 14-04-2020 10:00:00 5.9 C 5.05 g/m*3 5.9 C 4.8 km/h
986 14-04-2020 10:05:00 6.1 C 5.11 g/m*3 4.86 C 6.4 km/h
987 14-04-2020 10:10:00 6.2 C 5.07 g/m*3 6.2 C 4.8 km/h
988 14-04-2020 10:15:00 6.1 C 4.97 g/m*3 6.1 C 4.8 km/h
989 14-04-2020 10:20:00 6.1 C 4.97 g/m*3 6.1 C 4.8 km/h
990 14-04-2020 10:25:00 6.1 C 4.97 g/m*3 6.1 C 3.2 km/h
991 14-04-2020 10:30:00 6.2 C 5 g/m*3 6.2 C 1.6 km/h
992 14-04-2020 10:35:00 6.4 C 5.07 g/m*3 4.75 C 8.1 km/h
993 14-04-2020 10:40:00 6.7 C 4.86 g/m*3 5.56 C 6.4 km/h
994 14-04-2020 10:45:00 6.9 C 4.93 g/m*3 5.34 C 8.1 km/h
995 14-04-2020 10:50:00 7.2 C 4.95 g/m*3 4.77 C 12.9 km/h
996 14-04-2020 10:55:00 7.4 C 4.93 g/m*3 5.02 C 12.9 km/h
997 14-04-2020 11:00:00 7.6 C 4.83 g/m*3 5.26 C 12.9 km/h
998 14-04-2020 11:05:00 7.6 C 4.83 g/m*3 5.53 C 11.3 km/h
999 14-04-2020 11:10:00 7.6 C 4.67 g/m*3 5.53 C 11.3 km/h
1000 14-04-2020 11:15:00 7.6 C 4.43 g/m*3 5.53 C 11.3 km/h
Sensor: Nr:Datum:Temp:Abs-Feuchte:Windchill:Wind:
Aussen-T/F 1001 14-04-2020 11:20:00 7.7 C 4.54 g/m*3 5.38 C 12.9 km/h
1002 14-04-2020 11:25:00 7.7 C 4.54 g/m*3 5.38 C 12.9 km/h
1003 14-04-2020 11:30:00 7.6 C 4.51 g/m*3 4.25 C 20.9 km/h
1004 14-04-2020 11:35:00 7.7 C 4.54 g/m*3 5.65 C 11.3 km/h
1005 14-04-2020 11:40:00 8 C 4.38 g/m*3 5.75 C 12.9 km/h
1006 14-04-2020 11:45:00 8.2 C 4.44 g/m*3 5.76 C 14.5 km/h
1007 14-04-2020 11:50:00 8 C 4.38 g/m*3 5.3 C 16.1 km/h
1008 14-04-2020 11:55:00 7.9 C 4.35 g/m*3 5.63 C 12.9 km/h
1009 14-04-2020 12:00:00 7.9 C 4.44 g/m*3 6.52 C 8.1 km/h
1010 14-04-2020 12:05:00 8 C 4.46 g/m*3 5.3 C 16.1 km/h
1011 14-04-2020 12:10:00 8 C 4.55 g/m*3 5.52 C 14.5 km/h
1012 14-04-2020 12:15:00 8 C 4.63 g/m*3 6.01 C 11.3 km/h
1013 14-04-2020 12:20:00 8.1 C 4.66 g/m*3 5.64 C 14.5 km/h
1014 14-04-2020 12:25:00 8.1 C 4.58 g/m*3 6.75 C 8.1 km/h
1015 14-04-2020 12:30:00 8.1 C 4.49 g/m*3 8.1 C 4.8 km/h
1016 14-04-2020 12:35:00 8.1 C 4.58 g/m*3 6.13 C 11.3 km/h
1017 14-04-2020 12:40:00 8.3 C 4.55 g/m*3 5.68 C 16.1 km/h
1018 14-04-2020 12:45:00 8.4 C 4.5 g/m*3 7.52 C 6.4 km/h
1019 14-04-2020 12:50:00 8.6 C 4.55 g/m*3 7.75 C 6.4 km/h
1020 14-04-2020 12:55:00 8.7 C 4.5 g/m*3 7.46 C 8.1 km/h
1021 14-04-2020 13:00:00 8.7 C 4.41 g/m*3 7.87 C 6.4 km/h
1022 14-04-2020 13:05:00 8.8 C 4.61 g/m*3 7.25 C 9.7 km/h
1023 14-04-2020 13:10:00 8.9 C 4.64 g/m*3 7.09 C 11.3 km/h
1024 14-04-2020 13:15:00 8.9 C 4.64 g/m*3 7.37 C 9.7 km/h
1025 14-04-2020 13:20:00 8.9 C 4.73 g/m*3 7.37 C 9.7 km/h
Sensor: Nr:Datum:Temp:Abs-Feuchte:Windchill:Wind:
Aussen-T/F 1026 14-04-2020 13:25:00 9.1 C 4.79 g/m*3 8.33 C 6.4 km/h
1027 14-04-2020 13:30:00 9.2 C 4.64 g/m*3 7.73 C 9.7 km/h
1028 14-04-2020 13:35:00 9.2 C 4.64 g/m*3 7.73 C 9.7 km/h
1029 14-04-2020 13:40:00 9.3 C 4.76 g/m*3 8.16 C 8.1 km/h
1030 14-04-2020 13:45:00 9.3 C 4.49 g/m*3 8.16 C 8.1 km/h
1031 14-04-2020 13:50:00 9.1 C 4.44 g/m*3 7.61 C 9.7 km/h
1032 14-04-2020 13:55:00 9 C 4.58 g/m*3 7.81 C 8.1 km/h
1033 14-04-2020 14:00:00 9.1 C 4.61 g/m*3 7.61 C 9.7 km/h
1034 14-04-2020 14:05:00 9.2 C 4.55 g/m*3 8.05 C 8.1 km/h
1035 14-04-2020 14:10:00 9.3 C 4.49 g/m*3 7.85 C 9.7 km/h
1036 14-04-2020 14:15:00 9.6 C 4.49 g/m*3 8.52 C 8.1 km/h
1037 14-04-2020 14:20:00 9.8 C 4.73 g/m*3 9.14 C 6.4 km/h
1038 14-04-2020 14:25:00 10.2 C 4.57 g/m*3 8.92 C 9.7 km/h
1039 14-04-2020 14:30:00 10.1 C 4.54 g/m*3 8.54 C 11.3 km/h
1040 14-04-2020 14:35:00 10.2 C 4.57 g/m*3 9.22 C 8.1 km/h
1041 14-04-2020 14:40:00 10.2 C 4.57 g/m*3 9.22 C 8.1 km/h
1042 14-04-2020 14:45:00 10.2 C 4.57 g/m*3 8.92 C 9.7 km/h
1043 14-04-2020 14:50:00 10.3 C 4.6 g/m*3 9.34 C 8.1 km/h
1044 14-04-2020 14:55:00 10.4 C 4.63 g/m*3 9.16 C 9.7 km/h
1045 14-04-2020 15:00:00 10.4 C 4.63 g/m*3 9.46 C 8.1 km/h
1046 14-04-2020 15:05:00 10.4 C 4.53 g/m*3 9.83 C 6.4 km/h
1047 14-04-2020 15:10:00 10.6 C 4.68 g/m*3 9.69 C 8.1 km/h
1048 14-04-2020 15:15:00 10.8 C 4.65 g/m*3 9.38 C 11.3 km/h
1049 14-04-2020 15:20:00 10.9 C 4.58 g/m*3 9.51 C 11.3 km/h
1050 14-04-2020 15:25:00 10.8 C 4.55 g/m*3 9.64 C 9.7 km/h
Sensor: Nr:Datum:Temp:Abs-Feuchte:Windchill:Wind:
Aussen-T/F 1051 14-04-2020 15:30:00 10.7 C 4.42 g/m*3 10.18 C 6.4 km/h
1052 14-04-2020 15:35:00 10.9 C 4.67 g/m*3 9.76 C 9.7 km/h
1053 14-04-2020 15:40:00 11.2 C 4.76 g/m*3 11.2 C 9.7 km/h
1054 14-04-2020 15:45:00 11.2 C 4.56 g/m*3 11.2 C 16.1 km/h
1055 14-04-2020 15:50:00 11.2 C 4.56 g/m*3 11.2 C 8.1 km/h
1056 14-04-2020 15:55:00 11.1 C 4.53 g/m*3 11.1 C 11.3 km/h
1057 14-04-2020 16:00:00 11.2 C 4.66 g/m*3 11.2 C 11.3 km/h
1058 14-04-2020 16:05:00 11.3 C 4.59 g/m*3 11.3 C 9.7 km/h
1059 14-04-2020 16:10:00 11.3 C 4.69 g/m*3 11.3 C 9.7 km/h
1060 14-04-2020 16:15:00 11.6 C 4.78 g/m*3 11.6 C 8.1 km/h
1061 14-04-2020 16:20:00 12 C 4.8 g/m*3 12 C 11.3 km/h
1062 14-04-2020 16:25:00 12.1 C 4.5 g/m*3 12.1 C 9.7 km/h
1063 14-04-2020 16:30:00 11.8 C 4.53 g/m*3 11.8 C 6.4 km/h
1064 14-04-2020 16:35:00 11.8 C 4.74 g/m*3 11.8 C 14.5 km/h
1065 14-04-2020 16:40:00 11.8 C 4.74 g/m*3 11.8 C 12.9 km/h
1066 14-04-2020 16:45:00 11.9 C 4.77 g/m*3 11.9 C 8.1 km/h
1067 14-04-2020 16:50:00 12.4 C 4.92 g/m*3 12.4 C 6.4 km/h
1068 14-04-2020 16:55:00 12.7 C 4.68 g/m*3 12.7 C 16.1 km/h
1069 14-04-2020 17:00:00 12.4 C 4.7 g/m*3 12.4 C 11.3 km/h
1070 14-04-2020 17:05:00 11.7 C 4.5 g/m*3 11.7 C 12.9 km/h
1071 14-04-2020 17:10:00 11.4 C 4.62 g/m*3 11.4 C 9.7 km/h
1072 14-04-2020 17:15:00 11.6 C 4.68 g/m*3 11.6 C 12.9 km/h
1073 14-04-2020 17:20:00 12.2 C 4.64 g/m*3 12.2 C 6.4 km/h
1074 14-04-2020 17:25:00 12.5 C 4.62 g/m*3 12.5 C 9.7 km/h
1075 14-04-2020 17:30:00 12.5 C 4.51 g/m*3 12.5 C 8.1 km/h
Sensor: Nr:Datum:Temp:Abs-Feuchte:Windchill:Wind:
Aussen-T/F 1076 14-04-2020 17:35:00 12.5 C 4.51 g/m*3 12.5 C 6.4 km/h
1077 14-04-2020 17:40:00 12.6 C 4.65 g/m*3 12.6 C 11.3 km/h
1078 14-04-2020 17:45:00 12.6 C 4.65 g/m*3 12.6 C 11.3 km/h
1079 14-04-2020 17:50:00 12.6 C 4.76 g/m*3 12.6 C 11.3 km/h
1080 14-04-2020 17:55:00 12.9 C 4.73 g/m*3 12.9 C 11.3 km/h
1081 14-04-2020 18:00:00 13 C 4.76 g/m*3 13 C 11.3 km/h
1082 14-04-2020 18:05:00 13 C 4.65 g/m*3 13 C 9.7 km/h
1083 14-04-2020 18:10:00 12.9 C 4.62 g/m*3 12.9 C 8.1 km/h
1084 14-04-2020 18:15:00 12.8 C 4.59 g/m*3 12.8 C 8.1 km/h
1085 14-04-2020 18:20:00 12.8 C 4.59 g/m*3 12.8 C 12.9 km/h
1086 14-04-2020 18:25:00 12.8 C 4.7 g/m*3 12.8 C 11.3 km/h
1087 14-04-2020 18:30:00 12.8 C 4.59 g/m*3 12.8 C 9.7 km/h
1088 14-04-2020 18:35:00 12.7 C 4.68 g/m*3 12.7 C 9.7 km/h
1089 14-04-2020 18:40:00 12.8 C 4.7 g/m*3 12.8 C 4.8 km/h
1090 14-04-2020 18:45:00 12.8 C 4.7 g/m*3 12.8 C 11.3 km/h
1091 14-04-2020 18:50:00 12.7 C 4.56 g/m*3 12.7 C 11.3 km/h
1092 14-04-2020 18:55:00 12.4 C 4.59 g/m*3 12.4 C 9.7 km/h
1093 14-04-2020 19:00:00 12.4 C 4.59 g/m*3 12.4 C 8.1 km/h
1094 14-04-2020 19:05:00 12.3 C 4.56 g/m*3 12.3 C 6.4 km/h
1095 14-04-2020 19:10:00 12.2 C 4.64 g/m*3 12.2 C 6.4 km/h
1096 14-04-2020 19:15:00 11.9 C 4.45 g/m*3 11.9 C 9.7 km/h
1097 14-04-2020 19:20:00 11.7 C 4.5 g/m*3 11.7 C 11.3 km/h
1098 14-04-2020 19:25:00 11.4 C 4.41 g/m*3 11.4 C 12.9 km/h
1099 14-04-2020 19:30:00 11.2 C 4.56 g/m*3 11.2 C 6.4 km/h
1100 14-04-2020 19:35:00 11.1 C 4.63 g/m*3 11.1 C 6.4 km/h
Sensor: Nr:Datum:Temp:Abs-Feuchte:Windchill:Wind:
Aussen-T/F 1101 14-04-2020 19:40:00 10.9 C 4.67 g/m*3 10.41 C 6.4 km/h
1102 14-04-2020 19:45:00 10.8 C 4.65 g/m*3 9.93 C 8.1 km/h
1103 14-04-2020 19:50:00 10.7 C 4.62 g/m*3 9.81 C 8.1 km/h
1104 14-04-2020 19:55:00 10.6 C 4.68 g/m*3 10.6 C 3.2 km/h
1105 14-04-2020 20:00:00 10.4 C 4.63 g/m*3 10.4 C 4.8 km/h
1106 14-04-2020 20:05:00 10.2 C 4.76 g/m*3 9.6 C 6.4 km/h
1107 14-04-2020 20:10:00 10 C 4.6 g/m*3 9.37 C 6.4 km/h
1108 14-04-2020 20:15:00 9.8 C 4.64 g/m*3 9.14 C 6.4 km/h
1109 14-04-2020 20:20:00 9.7 C 4.98 g/m*3 9.7 C 1.6 km/h
1110 14-04-2020 20:25:00 9.3 C 4.94 g/m*3 9.3 C 1.6 km/h
1111 14-04-2020 20:30:00 8.8 C 4.87 g/m*3 8.8 C 3.2 km/h
1112 14-04-2020 20:35:00 8.3 C 4.89 g/m*3 8.3 C 3.2 km/h
1113 14-04-2020 20:40:00 7.9 C 5.01 g/m*3 7.9 C 3.2 km/h
1114 14-04-2020 20:45:00 7.4 C 4.85 g/m*3 7.4 C 4.8 km/h
1115 14-04-2020 20:50:00 7.2 C 4.87 g/m*3 7.2 C 4.8 km/h
1116 14-04-2020 20:55:00 7 C 4.88 g/m*3 5.9 C 6.4 km/h
1117 14-04-2020 21:00:00 6.8 C 4.89 g/m*3 5.67 C 6.4 km/h
1118 14-04-2020 21:05:00 6.7 C 4.86 g/m*3 6.7 C 4.8 km/h
1119 14-04-2020 21:10:00 6.5 C 4.87 g/m*3 6.5 C 4.8 km/h
1120 14-04-2020 21:15:00 6.3 C 4.89 g/m*3 6.3 C 4.8 km/h
1121 14-04-2020 21:20:00 6.2 C 4.85 g/m*3 6.2 C 4.8 km/h
1122 14-04-2020 21:25:00 6.1 C 4.89 g/m*3 4.86 C 6.4 km/h
1123 14-04-2020 21:30:00 6 C 4.94 g/m*3 4.75 C 6.4 km/h
1124 14-04-2020 21:35:00 5.9 C 4.98 g/m*3 5.9 C 4.8 km/h
1125 14-04-2020 21:40:00 5.8 C 4.94 g/m*3 5.8 C 0 km/h
Sensor: Nr:Datum:Temp:Abs-Feuchte:Windchill:Wind:
Aussen-T/F 1126 14-04-2020 21:45:00 5.7 C 4.91 g/m*3 5.7 C 4.8 km/h
1127 14-04-2020 21:50:00 5.7 C 4.91 g/m*3 5.7 C 4.8 km/h
1128 14-04-2020 21:55:00 5.6 C 4.88 g/m*3 4.29 C 6.4 km/h
1129 14-04-2020 22:00:00 5.6 C 4.88 g/m*3 5.6 C 4.8 km/h
1130 14-04-2020 22:05:00 5.6 C 4.95 g/m*3 5.6 C 4.8 km/h
1131 14-04-2020 22:10:00 5.5 C 4.92 g/m*3 5.5 C 3.2 km/h
1132 14-04-2020 22:15:00 5.4 C 4.88 g/m*3 5.4 C 3.2 km/h
1133 14-04-2020 22:20:00 5.3 C 4.85 g/m*3 5.3 C 1.6 km/h
1134 14-04-2020 22:25:00 5.4 C 4.95 g/m*3 5.4 C 1.6 km/h
1135 14-04-2020 22:30:00 5.4 C 4.88 g/m*3 5.4 C 0 km/h
1136 14-04-2020 22:35:00 5.4 C 4.88 g/m*3 5.4 C 0 km/h
1137 14-04-2020 22:40:00 5.3 C 4.85 g/m*3 5.3 C 0 km/h
1138 14-04-2020 22:45:00 5.3 C 4.92 g/m*3 5.3 C 1.6 km/h
1139 14-04-2020 22:50:00 5.2 C 4.89 g/m*3 5.2 C 0 km/h
1140 14-04-2020 22:55:00 5 C 4.89 g/m*3 5 C 3.2 km/h
1141 14-04-2020 23:00:00 4.9 C 4.86 g/m*3 4.9 C 3.2 km/h
1142 14-04-2020 23:05:00 4.8 C 4.9 g/m*3 4.8 C 1.6 km/h
1143 14-04-2020 23:10:00 4.7 C 4.93 g/m*3 4.7 C 0 km/h
1144 14-04-2020 23:15:00 4.5 C 4.86 g/m*3 4.5 C 0 km/h
1145 14-04-2020 23:20:00 4.3 C 4.8 g/m*3 4.3 C 0 km/h
1146 14-04-2020 23:25:00 4.2 C 4.83 g/m*3 4.2 C 1.6 km/h
1147 14-04-2020 23:30:00 4.1 C 4.86 g/m*3 4.1 C 0 km/h
1148 14-04-2020 23:35:00 3.9 C 4.86 g/m*3 3.9 C 1.6 km/h
1149 14-04-2020 23:40:00 3.8 C 4.83 g/m*3 3.8 C 0 km/h
1150 14-04-2020 23:45:00 3.7 C 4.8 g/m*3 3.7 C 0 km/h
Sensor: Nr:Datum:Temp:Abs-Feuchte:Windchill:Wind:
Aussen-T/F 1151 14-04-2020 23:50:00 3.6 C 4.83 g/m*3 3.6 C 0 km/h
1152 14-04-2020 23:55:00 3.6 C 4.83 g/m*3 3.6 C 0 km/h
1153 15-04-2020 00:00:00 3.4 C 4.76 g/m*3 3.4 C 0 km/h
1154 15-04-2020 00:05:00 3.3 C 4.79 g/m*3 3.3 C 0 km/h
1155 15-04-2020 00:10:00 3.2 C 4.76 g/m*3 3.2 C 0 km/h
1156 15-04-2020 00:15:00 3.1 C 4.73 g/m*3 3.1 C 0 km/h
1157 15-04-2020 00:20:00 3.1 C 4.73 g/m*3 3.1 C 0 km/h
1158 15-04-2020 00:25:00 2.9 C 4.72 g/m*3 2.9 C 0 km/h
1159 15-04-2020 00:30:00 2.8 C 4.69 g/m*3 2.8 C 0 km/h
1160 15-04-2020 00:35:00 2.8 C 4.69 g/m*3 2.8 C 0 km/h
1161 15-04-2020 00:40:00 2.7 C 4.66 g/m*3 2.7 C 0 km/h
1162 15-04-2020 00:45:00 2.6 C 4.69 g/m*3 2.6 C 0 km/h
1163 15-04-2020 00:50:00 2.5 C 4.71 g/m*3 2.5 C 0 km/h
1164 15-04-2020 00:55:00 2.4 C 4.68 g/m*3 2.4 C 0 km/h
1165 15-04-2020 01:00:00 2.4 C 4.68 g/m*3 2.4 C 0 km/h
1166 15-04-2020 01:05:00 2.4 C 4.68 g/m*3 2.4 C 0 km/h
1167 15-04-2020 01:10:00 2.3 C 4.65 g/m*3 2.3 C 0 km/h
1168 15-04-2020 01:15:00 2.3 C 4.65 g/m*3 2.3 C 0 km/h
1169 15-04-2020 01:20:00 2.2 C 4.68 g/m*3 2.2 C 0 km/h
1170 15-04-2020 01:25:00 2.1 C 4.64 g/m*3 2.1 C 0 km/h
1171 15-04-2020 01:30:00 2 C 4.61 g/m*3 2 C 0 km/h
1172 15-04-2020 01:35:00 1.9 C 4.58 g/m*3 1.9 C 0 km/h
1173 15-04-2020 01:40:00 1.9 C 4.64 g/m*3 1.9 C 0 km/h
1174 15-04-2020 01:45:00 1.9 C 4.64 g/m*3 1.9 C 0 km/h
1175 15-04-2020 01:50:00 1.8 C 4.6 g/m*3 1.8 C 0 km/h
Sensor: Nr:Datum:Temp:Abs-Feuchte:Windchill:Wind:
Aussen-T/F 1176 15-04-2020 01:55:00 1.7 C 4.57 g/m*3 1.7 C 0 km/h
1177 15-04-2020 02:00:00 1.7 C 4.57 g/m*3 1.7 C 0 km/h
1178 15-04-2020 02:05:00 1.6 C 4.54 g/m*3 1.6 C 0 km/h
1179 15-04-2020 02:10:00 1.6 C 4.6 g/m*3 1.6 C 0 km/h
1180 15-04-2020 02:15:00 1.6 C 4.6 g/m*3 1.6 C 0 km/h
1181 15-04-2020 02:20:00 1.5 C 4.57 g/m*3 1.5 C 0 km/h
1182 15-04-2020 02:25:00 1.4 C 4.53 g/m*3 1.4 C 0 km/h
1183 15-04-2020 02:30:00 1.4 C 4.59 g/m*3 1.4 C 0 km/h
1184 15-04-2020 02:35:00 1.3 C 4.56 g/m*3 1.3 C 0 km/h
1185 15-04-2020 02:40:00 1.3 C 4.56 g/m*3 1.3 C 0 km/h
1186 15-04-2020 02:45:00 1.3 C 4.56 g/m*3 1.3 C 0 km/h
1187 15-04-2020 02:50:00 1.2 C 4.53 g/m*3 1.2 C 0 km/h
1188 15-04-2020 02:55:00 1.1 C 4.49 g/m*3 1.1 C 0 km/h
1189 15-04-2020 03:00:00 1.1 C 4.55 g/m*3 1.1 C 0 km/h
1190 15-04-2020 03:05:00 1.1 C 4.55 g/m*3 1.1 C 0 km/h
1191 15-04-2020 03:10:00 1 C 4.52 g/m*3 1 C 0 km/h
1192 15-04-2020 03:15:00 0.9 C 4.48 g/m*3 0.9 C 0 km/h
1193 15-04-2020 03:20:00 0.9 C 4.48 g/m*3 0.9 C 0 km/h
1194 15-04-2020 03:25:00 0.8 C 4.45 g/m*3 0.8 C 0 km/h
1195 15-04-2020 03:30:00 0.8 C 4.45 g/m*3 0.8 C 0 km/h
1196 15-04-2020 03:35:00 0.8 C 4.51 g/m*3 0.8 C 0 km/h
1197 15-04-2020 03:40:00 0.7 C 4.47 g/m*3 0.7 C 0 km/h
1198 15-04-2020 03:45:00 0.7 C 4.47 g/m*3 0.7 C 0 km/h
1199 15-04-2020 03:50:00 0.7 C 4.47 g/m*3 0.7 C 0 km/h
1200 15-04-2020 03:55:00 0.7 C 4.47 g/m*3 0.7 C 0 km/h
Sensor: Nr:Datum:Temp:Abs-Feuchte:Windchill:Wind:
Aussen-T/F 1201 15-04-2020 04:00:00 0.6 C 4.44 g/m*3 0.6 C 0 km/h
1202 15-04-2020 04:05:00 0.6 C 4.44 g/m*3 0.6 C 0 km/h
1203 15-04-2020 04:10:00 0.6 C 4.44 g/m*3 0.6 C 0 km/h
1204 15-04-2020 04:15:00 0.6 C 4.49 g/m*3 0.6 C 0 km/h
1205 15-04-2020 04:20:00 0.6 C 4.49 g/m*3 0.6 C 0 km/h
1206 15-04-2020 04:25:00 0.6 C 4.49 g/m*3 0.6 C 0 km/h
1207 15-04-2020 04:30:00 0.6 C 4.49 g/m*3 0.6 C 0 km/h
1208 15-04-2020 04:35:00 0.5 C 4.46 g/m*3 0.5 C 0 km/h
1209 15-04-2020 04:40:00 0.5 C 4.46 g/m*3 0.5 C 0 km/h
1210 15-04-2020 04:45:00 0.4 C 4.43 g/m*3 0.4 C 0 km/h
1211 15-04-2020 04:50:00 0.4 C 4.43 g/m*3 0.4 C 0 km/h
1212 15-04-2020 04:55:00 0.4 C 4.43 g/m*3 0.4 C 0 km/h
1213 15-04-2020 05:00:00 0.4 C 4.43 g/m*3 0.4 C 0 km/h
1214 15-04-2020 05:05:00 0.4 C 4.48 g/m*3 0.4 C 0 km/h
1215 15-04-2020 05:10:00 0.4 C 4.48 g/m*3 0.4 C 0 km/h
1216 15-04-2020 05:15:00 0.4 C 4.48 g/m*3 0.4 C 0 km/h
1217 15-04-2020 05:20:00 0.4 C 4.48 g/m*3 0.4 C 0 km/h
1218 15-04-2020 05:25:00 0.3 C 4.45 g/m*3 0.3 C 0 km/h
1219 15-04-2020 05:30:00 0.3 C 4.45 g/m*3 0.3 C 0 km/h
1220 15-04-2020 05:35:00 0.3 C 4.45 g/m*3 0.3 C 0 km/h
1221 15-04-2020 05:40:00 0.3 C 4.45 g/m*3 0.3 C 0 km/h
1222 15-04-2020 05:45:00 0.3 C 4.45 g/m*3 0.3 C 0 km/h
1223 15-04-2020 05:50:00 0.2 C 4.42 g/m*3 0.2 C 0 km/h
1224 15-04-2020 05:55:00 0.2 C 4.42 g/m*3 0.2 C 0 km/h
1225 15-04-2020 06:00:00 0.1 C 4.39 g/m*3 0.1 C 0 km/h
Sensor: Nr:Datum:Temp:Abs-Feuchte:Windchill:Wind:
Aussen-T/F 1226 15-04-2020 06:05:00 0.1 C 4.39 g/m*3 0.1 C 0 km/h
1227 15-04-2020 06:10:00 0.1 C 4.39 g/m*3 0.1 C 0 km/h
1228 15-04-2020 06:15:00 0.1 C 4.39 g/m*3 0.1 C 0 km/h
1229 15-04-2020 06:20:00 0.1 C 4.44 g/m*3 0.1 C 0 km/h
1230 15-04-2020 06:25:00 0.2 C 4.47 g/m*3 0.2 C 0 km/h
1231 15-04-2020 06:30:00 0.2 C 4.47 g/m*3 0.2 C 0 km/h
1232 15-04-2020 06:35:00 0.2 C 4.47 g/m*3 0.2 C 0 km/h
1233 15-04-2020 06:40:00 0.1 C 4.44 g/m*3 0.1 C 0 km/h
1234 15-04-2020 06:45:00 0.1 C 4.44 g/m*3 0.1 C 0 km/h
1235 15-04-2020 06:50:00 0 C 4.41 g/m*3 0 C 0 km/h
1236 15-04-2020 06:55:00 -0.1 C 4.38 g/m*3 -0.1 C 0 km/h
1237 15-04-2020 07:00:00 -0.1 C 4.38 g/m*3 -0.1 C 0 km/h
1238 15-04-2020 07:05:00 -0.1 C 4.38 g/m*3 -0.1 C 0 km/h
1239 15-04-2020 07:10:00 -0.1 C 4.38 g/m*3 -0.1 C 0 km/h
1240 15-04-2020 07:15:00 0 C 4.46 g/m*3 0 C 0 km/h
1241 15-04-2020 07:20:00 0.1 C 4.49 g/m*3 0.1 C 0 km/h
1242 15-04-2020 07:25:00 0.1 C 4.49 g/m*3 0.1 C 0 km/h
1243 15-04-2020 07:30:00 0.2 C 4.52 g/m*3 0.2 C 0 km/h
1244 15-04-2020 07:35:00 0.3 C 4.55 g/m*3 0.3 C 1.6 km/h
1245 15-04-2020 07:40:00 0.4 C 4.58 g/m*3 0.4 C 0 km/h
1246 15-04-2020 07:45:00 0.5 C 4.61 g/m*3 0.5 C 0 km/h
1247 15-04-2020 07:50:00 0.6 C 4.65 g/m*3 0.6 C 0 km/h
1248 15-04-2020 07:55:00 0.7 C 4.68 g/m*3 0.7 C 1.6 km/h
1249 15-04-2020 08:00:00 0.8 C 4.71 g/m*3 0.8 C 1.6 km/h
1250 15-04-2020 08:05:00 0.9 C 4.74 g/m*3 0.9 C 1.6 km/h
Sensor: Nr:Datum:Temp:Abs-Feuchte:Windchill:Wind:
Aussen-T/F 1251 15-04-2020 08:10:00 1.1 C 4.81 g/m*3 1.1 C 1.6 km/h
1252 15-04-2020 08:15:00 1.2 C 4.84 g/m*3 1.2 C 0 km/h
1253 15-04-2020 08:20:00 1.3 C 4.82 g/m*3 1.3 C 0 km/h
1254 15-04-2020 08:25:00 1.4 C 4.85 g/m*3 1.4 C 0 km/h
1255 15-04-2020 08:30:00 1.5 C 4.89 g/m*3 1.5 C 0 km/h
1256 15-04-2020 08:35:00 1.6 C 4.92 g/m*3 1.6 C 0 km/h
1257 15-04-2020 08:40:00 1.8 C 4.93 g/m*3 1.8 C 0 km/h
1258 15-04-2020 08:45:00 1.9 C 4.97 g/m*3 1.9 C 0 km/h
1259 15-04-2020 08:50:00 2.1 C 4.98 g/m*3 2.1 C 0 km/h
1260 15-04-2020 08:55:00 2.2 C 5.01 g/m*3 2.2 C 1.6 km/h
1261 15-04-2020 09:00:00 2.4 C 5.02 g/m*3 2.4 C 0 km/h
1262 15-04-2020 09:05:00 2.6 C 5.03 g/m*3 2.6 C 0 km/h
1263 15-04-2020 09:10:00 2.7 C 5.01 g/m*3 2.7 C 0 km/h
1264 15-04-2020 09:15:00 2.8 C 5.04 g/m*3 2.8 C 0 km/h
1265 15-04-2020 09:20:00 3 C 5.11 g/m*3 3 C 0 km/h
1266 15-04-2020 09:25:00 3.2 C 5.12 g/m*3 3.2 C 0 km/h
1267 15-04-2020 09:30:00 3.3 C 5.16 g/m*3 3.3 C 0 km/h
1268 15-04-2020 09:35:00 3.5 C 5.16 g/m*3 3.5 C 0 km/h
1269 15-04-2020 09:40:00 3.7 C 5.17 g/m*3 3.7 C 0 km/h
1270 15-04-2020 09:45:00 3.9 C 5.24 g/m*3 3.9 C 0 km/h
1271 15-04-2020 09:50:00 4.1 C 5.25 g/m*3 4.1 C 0 km/h
1272 15-04-2020 09:55:00 4.3 C 5.25 g/m*3 4.3 C 0 km/h
1273 15-04-2020 10:00:00 4.6 C 5.36 g/m*3 4.6 C 0 km/h
1274 15-04-2020 10:05:00 4.8 C 5.36 g/m*3 4.8 C 0 km/h
1275 15-04-2020 10:10:00 4.9 C 5.4 g/m*3 4.9 C 0 km/h
Sensor: Nr:Datum:Temp:Abs-Feuchte:Windchill:Wind:
Aussen-T/F 1276 15-04-2020 10:15:00 5.2 C 5.37 g/m*3 5.2 C 0 km/h
1277 15-04-2020 10:20:00 5.4 C 5.44 g/m*3 5.4 C 0 km/h
1278 15-04-2020 10:25:00 5.7 C 5.55 g/m*3 5.7 C 0 km/h
1279 15-04-2020 10:30:00 5.9 C 5.55 g/m*3 5.9 C 0 km/h
1280 15-04-2020 10:35:00 6.2 C 5.66 g/m*3 6.2 C 0 km/h
1281 15-04-2020 10:40:00 6.4 C 5.51 g/m*3 6.4 C 0 km/h
1282 15-04-2020 10:45:00 6.6 C 5.66 g/m*3 6.6 C 0 km/h
1283 15-04-2020 10:50:00 6.9 C 5.62 g/m*3 6.9 C 0 km/h
1284 15-04-2020 10:55:00 7.2 C 5.73 g/m*3 7.2 C 3.2 km/h
1285 15-04-2020 11:00:00 7.4 C 5.73 g/m*3 7.4 C 3.2 km/h
1286 15-04-2020 11:05:00 7.8 C 5.88 g/m*3 7.8 C 1.6 km/h
1287 15-04-2020 11:10:00 8.1 C 5.82 g/m*3 8.1 C 3.2 km/h
1288 15-04-2020 11:15:00 8.4 C 5.94 g/m*3 8.4 C 3.2 km/h
1289 15-04-2020 11:20:00 8.8 C 5.92 g/m*3 8.8 C 4.8 km/h
1290 15-04-2020 11:25:00 9.1 C 5.94 g/m*3 9.1 C 1.6 km/h
1291 15-04-2020 11:30:00 9.4 C 6.06 g/m*3 9.4 C 0 km/h
1292 15-04-2020 11:35:00 9.8 C 5.75 g/m*3 8.75 C 8.1 km/h
1293 15-04-2020 11:40:00 10.2 C 5.71 g/m*3 10.2 C 4.8 km/h
1294 15-04-2020 11:45:00 10.6 C 5.27 g/m*3 9.4 C 9.7 km/h
1295 15-04-2020 11:50:00 10.9 C 5.17 g/m*3 10.9 C 4.8 km/h
1296 15-04-2020 11:55:00 11.3 C 5.1 g/m*3 11.3 C 4.8 km/h
1297 15-04-2020 12:00:00 11.7 C 5.23 g/m*3 11.7 C 4.8 km/h
1298 15-04-2020 12:05:00 11.9 C 4.98 g/m*3 11.9 C 4.8 km/h
1299 15-04-2020 12:10:00 12.2 C 5.07 g/m*3 12.2 C 8.1 km/h
1300 15-04-2020 12:15:00 12.3 C 4.99 g/m*3 12.3 C 8.1 km/h
Sensor: Nr:Datum:Temp:Abs-Feuchte:Windchill:Wind:
Aussen-T/F 1301 15-04-2020 12:20:00 12.4 C 5.14 g/m*3 12.4 C 3.2 km/h
1302 15-04-2020 12:25:00 12.6 C 5.09 g/m*3 12.6 C 4.8 km/h
1303 15-04-2020 12:30:00 12.7 C 5.12 g/m*3 12.7 C 8.1 km/h
1304 15-04-2020 12:35:00 12.9 C 5.3 g/m*3 12.9 C 8.1 km/h
1305 15-04-2020 12:40:00 13.1 C 5.25 g/m*3 13.1 C 8.1 km/h
1306 15-04-2020 12:45:00 13.2 C 5.4 g/m*3 13.2 C 4.8 km/h
1307 15-04-2020 12:50:00 13.3 C 5.43 g/m*3 13.3 C 3.2 km/h
1308 15-04-2020 12:55:00 13.3 C 5.31 g/m*3 13.3 C 3.2 km/h
1309 15-04-2020 13:00:00 13.3 C 5.31 g/m*3 13.3 C 8.1 km/h
1310 15-04-2020 13:05:00 13.4 C 5.23 g/m*3 13.4 C 9.7 km/h
1311 15-04-2020 13:10:00 13.4 C 5.23 g/m*3 13.4 C 8.1 km/h
1312 15-04-2020 13:15:00 13.6 C 5.18 g/m*3 13.6 C 12.9 km/h
1313 15-04-2020 13:20:00 13.6 C 5.18 g/m*3 13.6 C 6.4 km/h
1314 15-04-2020 13:25:00 13.7 C 5.21 g/m*3 13.7 C 6.4 km/h
1315 15-04-2020 13:30:00 13.9 C 5.27 g/m*3 13.9 C 9.7 km/h
1316 15-04-2020 13:35:00 14.2 C 5.25 g/m*3 14.2 C 8.1 km/h
1317 15-04-2020 13:40:00 14.3 C 5.16 g/m*3 14.3 C 6.4 km/h
1318 15-04-2020 13:45:00 14.4 C 5.07 g/m*3 14.4 C 12.9 km/h
1319 15-04-2020 13:50:00 14.6 C 5.13 g/m*3 14.6 C 9.7 km/h
1320 15-04-2020 13:55:00 14.6 C 5.26 g/m*3 14.6 C 8.1 km/h
1321 15-04-2020 14:00:00 14.7 C 5.16 g/m*3 14.7 C 8.1 km/h
1322 15-04-2020 14:05:00 14.9 C 5.23 g/m*3 14.9 C 8.1 km/h
1323 15-04-2020 14:10:00 15.1 C 5.03 g/m*3 15.1 C 12.9 km/h
1324 15-04-2020 14:15:00 15.2 C 5.19 g/m*3 15.2 C 8.1 km/h
1325 15-04-2020 14:20:00 15.4 C 4.99 g/m*3 15.4 C 6.4 km/h
Sensor: Nr:Datum:Temp:Abs-Feuchte:Windchill:Wind:
Aussen-T/F 1326 15-04-2020 14:25:00 15.4 C 5.26 g/m*3 15.4 C 8.1 km/h
1327 15-04-2020 14:30:00 15.6 C 5.19 g/m*3 15.6 C 8.1 km/h
1328 15-04-2020 14:35:00 15.7 C 5.22 g/m*3 15.7 C 4.8 km/h
1329 15-04-2020 14:40:00 15.9 C 5.15 g/m*3 15.9 C 8.1 km/h
1330 15-04-2020 14:45:00 16.1 C 5.35 g/m*3 16.1 C 9.7 km/h
1331 15-04-2020 14:50:00 16.2 C 5.1 g/m*3 16.2 C 4.8 km/h
1332 15-04-2020 14:55:00 16.3 C 5.27 g/m*3 16.3 C 6.4 km/h
1333 15-04-2020 15:00:00 16.5 C 5.34 g/m*3 16.5 C 4.8 km/h
1334 15-04-2020 15:05:00 16.6 C 5.23 g/m*3 16.6 C 6.4 km/h
1335 15-04-2020 15:10:00 16.6 C 5.09 g/m*3 16.6 C 8.1 km/h
1336 15-04-2020 15:15:00 16.6 C 5.23 g/m*3 16.6 C 12.9 km/h
1337 15-04-2020 15:20:00 16.7 C 5.12 g/m*3 16.7 C 12.9 km/h
1338 15-04-2020 15:25:00 16.9 C 5.61 g/m*3 16.9 C 6.4 km/h
1339 15-04-2020 15:30:00 17.3 C 5.75 g/m*3 17.3 C 17.7 km/h
1340 15-04-2020 15:35:00 17.5 C 5.52 g/m*3 17.5 C 11.3 km/h
1341 15-04-2020 15:40:00 17.5 C 5.37 g/m*3 17.5 C 8.1 km/h
1342 15-04-2020 15:45:00 17.6 C 5.7 g/m*3 17.6 C 6.4 km/h
1343 15-04-2020 15:50:00 17.7 C 5.58 g/m*3 17.7 C 8.1 km/h
1344 15-04-2020 15:55:00 17.7 C 5.43 g/m*3 17.7 C 9.7 km/h
1345 15-04-2020 16:00:00 17.8 C 5.62 g/m*3 17.8 C 8.1 km/h
1346 15-04-2020 16:05:00 17.8 C 5.31 g/m*3 17.8 C 8.1 km/h
1347 15-04-2020 16:10:00 17.9 C 5.5 g/m*3 17.9 C 9.7 km/h
1348 15-04-2020 16:15:00 18.3 C 5.47 g/m*3 18.3 C 9.7 km/h
1349 15-04-2020 16:20:00 18.6 C 5.57 g/m*3 18.6 C 4.8 km/h
1350 15-04-2020 16:25:00 18.8 C 5.48 g/m*3 18.8 C 4.8 km/h
Sensor: Nr:Datum:Temp:Abs-Feuchte:Windchill:Wind:
Aussen-T/F 1351 15-04-2020 16:30:00 19.2 C 5.77 g/m*3 19.2 C 11.3 km/h
1352 15-04-2020 16:35:00 19.4 C 5.51 g/m*3 19.4 C 9.7 km/h
1353 15-04-2020 16:40:00 19.6 C 5.4 g/m*3 19.6 C 8.1 km/h
1354 15-04-2020 16:45:00 19.6 C 5.91 g/m*3 19.6 C 3.2 km/h
1355 15-04-2020 16:50:00 19.8 C 5.47 g/m*3 19.8 C 4.8 km/h
1356 15-04-2020 16:55:00 20.1 C 5.21 g/m*3 20.1 C 3.2 km/h
1357 15-04-2020 17:00:00 20.1 C 5.56 g/m*3 20.1 C 8.1 km/h
1358 15-04-2020 17:05:00 20.2 C 5.6 g/m*3 20.2 C 4.8 km/h
1359 15-04-2020 17:10:00 20.3 C 5.63 g/m*3 20.3 C 8.1 km/h
1360 15-04-2020 17:15:00 20.4 C 5.48 g/m*3 20.4 C 8.1 km/h
1361 15-04-2020 17:20:00 20.6 C 5.55 g/m*3 20.6 C 11.3 km/h
1362 15-04-2020 17:25:00 20.6 C 5.55 g/m*3 20.6 C 6.4 km/h
1363 15-04-2020 17:30:00 20.5 C 5.69 g/m*3 20.5 C 9.7 km/h
1364 15-04-2020 17:35:00 20.5 C 5.34 g/m*3 20.5 C 6.4 km/h
1365 15-04-2020 17:40:00 20.6 C 5.55 g/m*3 20.6 C 8.1 km/h
1366 15-04-2020 17:45:00 20.6 C 5.37 g/m*3 20.6 C 12.9 km/h
1367 15-04-2020 17:50:00 20.6 C 5.55 g/m*3 20.6 C 6.4 km/h
1368 15-04-2020 17:55:00 20.7 C 6.12 g/m*3 20.7 C 8.1 km/h
1369 15-04-2020 18:00:00 20.9 C 5.83 g/m*3 20.9 C 4.8 km/h
1370 15-04-2020 18:05:00 20.8 C 6.16 g/m*3 20.8 C 8.1 km/h
1371 15-04-2020 18:10:00 20.3 C 5.45 g/m*3 20.3 C 12.9 km/h
1372 15-04-2020 18:15:00 20.3 C 6.33 g/m*3 20.3 C 6.4 km/h
1373 15-04-2020 18:20:00 20.2 C 5.6 g/m*3 20.2 C 11.3 km/h
1374 15-04-2020 18:25:00 19.9 C 5.67 g/m*3 19.9 C 9.7 km/h
1375 15-04-2020 18:30:00 19.8 C 5.81 g/m*3 19.8 C 11.3 km/h
Sensor: Nr:Datum:Temp:Abs-Feuchte:Windchill:Wind:
Aussen-T/F 1376 15-04-2020 18:35:00 19.9 C 5.67 g/m*3 19.9 C 8.1 km/h
1377 15-04-2020 18:40:00 20.2 C 5.42 g/m*3 20.2 C 4.8 km/h
1378 15-04-2020 18:45:00 20.2 C 5.42 g/m*3 20.2 C 6.4 km/h
1379 15-04-2020 18:50:00 20.3 C 5.63 g/m*3 20.3 C 6.4 km/h
1380 15-04-2020 18:55:00 20.5 C 5.52 g/m*3 20.5 C 9.7 km/h
1381 15-04-2020 19:00:00 20.5 C 5.69 g/m*3 20.5 C 3.2 km/h
1382 15-04-2020 19:05:00 20.3 C 5.63 g/m*3 20.3 C 4.8 km/h
1383 15-04-2020 19:10:00 20.2 C 5.6 g/m*3 20.2 C 1.6 km/h
1384 15-04-2020 19:15:00 20.2 C 5.77 g/m*3 20.2 C 4.8 km/h
1385 15-04-2020 19:20:00 19.9 C 5.67 g/m*3 19.9 C 9.7 km/h
1386 15-04-2020 19:25:00 19.6 C 5.4 g/m*3 19.6 C 6.4 km/h
1387 15-04-2020 19:30:00 19.2 C 5.61 g/m*3 19.2 C 6.4 km/h
1388 15-04-2020 19:35:00 18.8 C 5.96 g/m*3 18.8 C 4.8 km/h
1389 15-04-2020 19:40:00 18.5 C 5.38 g/m*3 18.5 C 4.8 km/h
1390 15-04-2020 19:45:00 18.1 C 5.56 g/m*3 18.1 C 4.8 km/h
1391 15-04-2020 19:50:00 17.7 C 6.04 g/m*3 17.7 C 0 km/h
1392 15-04-2020 19:55:00 17.2 C 6.3 g/m*3 17.2 C 3.2 km/h
1393 15-04-2020 20:00:00 16.6 C 6.22 g/m*3 16.6 C 3.2 km/h
1394 15-04-2020 20:05:00 15.9 C 6.23 g/m*3 15.9 C 3.2 km/h
1395 15-04-2020 20:10:00 15.2 C 6.1 g/m*3 15.2 C 4.8 km/h
1396 15-04-2020 20:15:00 14.7 C 6.04 g/m*3 14.7 C 4.8 km/h
1397 15-04-2020 20:20:00 14.2 C 5.86 g/m*3 14.2 C 6.4 km/h
1398 15-04-2020 20:25:00 13.8 C 5.96 g/m*3 13.8 C 6.4 km/h
1399 15-04-2020 20:30:00 13.5 C 5.97 g/m*3 13.5 C 6.4 km/h
1400 15-04-2020 20:35:00 13.2 C 5.97 g/m*3 13.2 C 6.4 km/h
Sensor: Nr:Datum:Temp:Abs-Feuchte:Windchill:Wind:
Aussen-T/F 1401 15-04-2020 20:40:00 12.9 C 5.75 g/m*3 12.9 C 6.4 km/h
1402 15-04-2020 20:45:00 12.7 C 5.68 g/m*3 12.7 C 6.4 km/h
1403 15-04-2020 20:50:00 12.5 C 5.72 g/m*3 12.5 C 6.4 km/h
1404 15-04-2020 20:55:00 12.4 C 5.79 g/m*3 12.4 C 6.4 km/h
1405 15-04-2020 21:00:00 12.2 C 5.94 g/m*3 12.2 C 3.2 km/h
1406 15-04-2020 21:05:00 11.9 C 5.93 g/m*3 11.9 C 4.8 km/h
1407 15-04-2020 21:10:00 11.7 C 5.96 g/m*3 11.7 C 4.8 km/h
1408 15-04-2020 21:15:00 11.4 C 5.85 g/m*3 11.4 C 4.8 km/h
1409 15-04-2020 21:20:00 11.3 C 5.92 g/m*3 11.3 C 4.8 km/h
1410 15-04-2020 21:25:00 11.2 C 5.88 g/m*3 11.2 C 4.8 km/h
1411 15-04-2020 21:30:00 11.1 C 6.04 g/m*3 11.1 C 4.8 km/h
1412 15-04-2020 21:35:00 10.9 C 5.97 g/m*3 10.9 C 3.2 km/h
1413 15-04-2020 21:40:00 10.7 C 5.99 g/m*3 10.7 C 1.6 km/h
1414 15-04-2020 21:45:00 10.4 C 5.88 g/m*3 10.4 C 1.6 km/h
1415 15-04-2020 21:50:00 10.3 C 6.03 g/m*3 10.3 C 3.2 km/h
1416 15-04-2020 21:55:00 10.1 C 6.05 g/m*3 10.1 C 0 km/h
1417 15-04-2020 22:00:00 9.8 C 6.03 g/m*3 9.8 C 3.2 km/h
1418 15-04-2020 22:05:00 9.6 C 5.95 g/m*3 9.6 C 0 km/h
1419 15-04-2020 22:10:00 9.5 C 6.01 g/m*3 9.5 C 3.2 km/h
1420 15-04-2020 22:15:00 9.4 C 6.06 g/m*3 9.4 C 1.6 km/h
1421 15-04-2020 22:20:00 9.3 C 6.02 g/m*3 9.3 C 0 km/h
1422 15-04-2020 22:25:00 9.2 C 6.07 g/m*3 9.2 C 0 km/h
1423 15-04-2020 22:30:00 9.1 C 6.03 g/m*3 9.1 C 0 km/h
1424 15-04-2020 22:35:00 8.9 C 5.96 g/m*3 8.9 C 0 km/h
1425 15-04-2020 22:40:00 8.8 C 5.83 g/m*3 8.8 C 0 km/h
Sensor: Nr:Datum:Temp:Abs-Feuchte:Windchill:Wind:
Aussen-T/F 1426 15-04-2020 22:45:00 8.7 C 5.79 g/m*3 8.7 C 0 km/h
1427 15-04-2020 22:50:00 8.6 C 5.84 g/m*3 8.6 C 0 km/h
1428 15-04-2020 22:55:00 8.4 C 5.85 g/m*3 8.4 C 0 km/h
1429 15-04-2020 23:00:00 8.3 C 5.9 g/m*3 8.3 C 0 km/h
1430 15-04-2020 23:05:00 8.1 C 5.74 g/m*3 8.1 C 0 km/h
1431 15-04-2020 23:10:00 7.9 C 5.75 g/m*3 7.9 C 0 km/h
1432 15-04-2020 23:15:00 7.8 C 5.71 g/m*3 7.8 C 0 km/h
1433 15-04-2020 23:20:00 7.8 C 5.71 g/m*3 7.8 C 0 km/h
1434 15-04-2020 23:25:00 7.7 C 5.68 g/m*3 7.7 C 0 km/h
1435 15-04-2020 23:30:00 7.6 C 5.8 g/m*3 7.6 C 0 km/h
1436 15-04-2020 23:35:00 7.5 C 5.68 g/m*3 7.5 C 0 km/h
1437 15-04-2020 23:40:00 7.3 C 5.61 g/m*3 7.3 C 0 km/h
1438 15-04-2020 23:45:00 7.3 C 5.69 g/m*3 7.3 C 0 km/h
1439 15-04-2020 23:50:00 7.2 C 5.73 g/m*3 7.2 C 0 km/h
1440 15-04-2020 23:55:00 7.1 C 5.69 g/m*3 7.1 C 0 km/h
1441 16-04-2020 00:00:00 7.1 C 5.69 g/m*3 7.1 C 0 km/h
1442 16-04-2020 00:05:00 7.1 C 5.77 g/m*3 7.1 C 1.6 km/h
1443 16-04-2020 00:10:00 6.9 C 5.77 g/m*3 6.9 C 1.6 km/h
1444 16-04-2020 00:15:00 6.8 C 5.74 g/m*3 6.8 C 0 km/h
1445 16-04-2020 00:20:00 6.7 C 5.7 g/m*3 6.7 C 0 km/h
1446 16-04-2020 00:25:00 6.6 C 5.66 g/m*3 6.6 C 0 km/h
1447 16-04-2020 00:30:00 6.4 C 5.66 g/m*3 6.4 C 0 km/h
1448 16-04-2020 00:35:00 6.4 C 5.66 g/m*3 6.4 C 0 km/h
1449 16-04-2020 00:40:00 6.2 C 5.66 g/m*3 6.2 C 0 km/h
1450 16-04-2020 00:45:00 6.1 C 5.63 g/m*3 6.1 C 0 km/h
Sensor: Nr:Datum:Temp:Abs-Feuchte:Windchill:Wind:
Aussen-T/F 1451 16-04-2020 00:50:00 6 C 5.59 g/m*3 6 C 0 km/h
1452 16-04-2020 00:55:00 5.9 C 5.55 g/m*3 5.9 C 0 km/h
1453 16-04-2020 01:00:00 5.8 C 5.52 g/m*3 5.8 C 0 km/h
1454 16-04-2020 01:05:00 5.8 C 5.59 g/m*3 5.8 C 0 km/h
1455 16-04-2020 01:10:00 5.7 C 5.55 g/m*3 5.7 C 0 km/h
1456 16-04-2020 01:15:00 5.7 C 5.55 g/m*3 5.7 C 0 km/h
1457 16-04-2020 01:20:00 5.7 C 5.55 g/m*3 5.7 C 0 km/h
1458 16-04-2020 01:25:00 5.7 C 5.55 g/m*3 5.7 C 0 km/h
1459 16-04-2020 01:30:00 5.7 C 5.55 g/m*3 5.7 C 0 km/h
1460 16-04-2020 01:35:00 5.7 C 5.55 g/m*3 5.7 C 0 km/h
1461 16-04-2020 01:40:00 5.7 C 5.62 g/m*3 5.7 C 0 km/h
1462 16-04-2020 01:45:00 5.7 C 5.62 g/m*3 5.7 C 0 km/h
1463 16-04-2020 01:50:00 5.6 C 5.59 g/m*3 5.6 C 0 km/h
1464 16-04-2020 01:55:00 5.6 C 5.66 g/m*3 5.6 C 0 km/h
1465 16-04-2020 02:00:00 5.4 C 5.58 g/m*3 5.4 C 0 km/h
1466 16-04-2020 02:05:00 5.4 C 5.58 g/m*3 5.4 C 0 km/h
1467 16-04-2020 02:10:00 5.3 C 5.54 g/m*3 5.3 C 0 km/h
1468 16-04-2020 02:15:00 5.2 C 5.51 g/m*3 5.2 C 0 km/h
1469 16-04-2020 02:20:00 5 C 5.5 g/m*3 5 C 0 km/h
1470 16-04-2020 02:25:00 4.9 C 5.47 g/m*3 4.9 C 0 km/h
1471 16-04-2020 02:30:00 4.8 C 5.43 g/m*3 4.8 C 0 km/h
1472 16-04-2020 02:35:00 4.7 C 5.46 g/m*3 4.7 C 0 km/h
1473 16-04-2020 02:40:00 4.6 C 5.43 g/m*3 4.6 C 0 km/h
1474 16-04-2020 02:45:00 4.6 C 5.49 g/m*3 4.6 C 0 km/h
1475 16-04-2020 02:50:00 4.5 C 5.46 g/m*3 4.5 C 0 km/h
Sensor: Nr:Datum:Temp:Abs-Feuchte:Windchill:Wind:
Aussen-T/F 1476 16-04-2020 02:55:00 4.4 C 5.42 g/m*3 4.4 C 0 km/h
1477 16-04-2020 03:00:00 4.3 C 5.38 g/m*3 4.3 C 0 km/h
1478 16-04-2020 03:05:00 4.3 C 5.45 g/m*3 4.3 C 0 km/h
1479 16-04-2020 03:10:00 4.3 C 5.45 g/m*3 4.3 C 0 km/h
1480 16-04-2020 03:15:00 4.2 C 5.41 g/m*3 4.2 C 0 km/h
1481 16-04-2020 03:20:00 4.1 C 5.38 g/m*3 4.1 C 0 km/h
1482 16-04-2020 03:25:00 4.1 C 5.38 g/m*3 4.1 C 0 km/h
1483 16-04-2020 03:30:00 4 C 5.34 g/m*3 4 C 0 km/h
1484 16-04-2020 03:35:00 4 C 5.4 g/m*3 4 C 0 km/h
1485 16-04-2020 03:40:00 3.9 C 5.37 g/m*3 3.9 C 0 km/h
1486 16-04-2020 03:45:00 3.9 C 5.37 g/m*3 3.9 C 0 km/h
1487 16-04-2020 03:50:00 3.8 C 5.33 g/m*3 3.8 C 0 km/h
1488 16-04-2020 03:55:00 3.8 C 5.33 g/m*3 3.8 C 0 km/h
1489 16-04-2020 04:00:00 3.7 C 5.3 g/m*3 3.7 C 0 km/h
1490 16-04-2020 04:05:00 3.7 C 5.36 g/m*3 3.7 C 0 km/h
1491 16-04-2020 04:10:00 3.8 C 5.4 g/m*3 3.8 C 0 km/h
1492 16-04-2020 04:15:00 3.7 C 5.36 g/m*3 3.7 C 0 km/h
1493 16-04-2020 04:20:00 3.7 C 5.36 g/m*3 3.7 C 0 km/h
1494 16-04-2020 04:25:00 3.6 C 5.32 g/m*3 3.6 C 0 km/h
1495 16-04-2020 04:30:00 3.6 C 5.32 g/m*3 3.6 C 0 km/h
1496 16-04-2020 04:35:00 3.5 C 5.29 g/m*3 3.5 C 1.6 km/h
1497 16-04-2020 04:40:00 3.6 C 5.39 g/m*3 3.6 C 0 km/h
1498 16-04-2020 04:45:00 3.6 C 5.39 g/m*3 3.6 C 0 km/h
1499 16-04-2020 04:50:00 3.5 C 5.35 g/m*3 3.5 C 1.6 km/h
1500 16-04-2020 04:55:00 3.4 C 5.31 g/m*3 3.4 C 0 km/h
Sensor: Nr:Datum:Temp:Abs-Feuchte:Windchill:Wind:
Aussen-T/F 1501 16-04-2020 05:00:00 3.4 C 5.31 g/m*3 3.4 C 0 km/h
1502 16-04-2020 05:05:00 3.4 C 5.31 g/m*3 3.4 C 0 km/h
1503 16-04-2020 05:10:00 3.3 C 5.34 g/m*3 3.3 C 0 km/h
1504 16-04-2020 05:15:00 3.3 C 5.34 g/m*3 3.3 C 0 km/h
1505 16-04-2020 05:20:00 3.2 C 5.3 g/m*3 3.2 C 0 km/h
1506 16-04-2020 05:25:00 3.2 C 5.3 g/m*3 3.2 C 0 km/h
1507 16-04-2020 05:30:00 3.2 C 5.3 g/m*3 3.2 C 0 km/h
1508 16-04-2020 05:35:00 3.1 C 5.27 g/m*3 3.1 C 0 km/h
1509 16-04-2020 05:40:00 3.1 C 5.27 g/m*3 3.1 C 0 km/h
1510 16-04-2020 05:45:00 2.9 C 5.2 g/m*3 2.9 C 0 km/h
1511 16-04-2020 05:50:00 2.8 C 5.16 g/m*3 2.8 C 0 km/h
1512 16-04-2020 05:55:00 2.8 C 5.22 g/m*3 2.8 C 1.6 km/h
1513 16-04-2020 06:00:00 2.9 C 5.26 g/m*3 2.9 C 1.6 km/h
1514 16-04-2020 06:05:00 2.9 C 5.26 g/m*3 2.9 C 0 km/h
1515 16-04-2020 06:10:00 2.8 C 5.22 g/m*3 2.8 C 0 km/h
1516 16-04-2020 06:15:00 2.8 C 5.22 g/m*3 2.8 C 0 km/h
1517 16-04-2020 06:20:00 2.7 C 5.19 g/m*3 2.7 C 0 km/h
1518 16-04-2020 06:25:00 2.7 C 5.19 g/m*3 2.7 C 0 km/h
1519 16-04-2020 06:30:00 2.6 C 5.15 g/m*3 2.6 C 0 km/h
1520 16-04-2020 06:35:00 2.5 C 5.12 g/m*3 2.5 C 0 km/h
1521 16-04-2020 06:40:00 2.4 C 5.08 g/m*3 2.4 C 0 km/h
1522 16-04-2020 06:45:00 2.4 C 5.14 g/m*3 2.4 C 0 km/h
1523 16-04-2020 06:50:00 2.4 C 5.14 g/m*3 2.4 C 0 km/h
1524 16-04-2020 06:55:00 2.4 C 5.14 g/m*3 2.4 C 0 km/h
1525 16-04-2020 07:00:00 2.4 C 5.14 g/m*3 2.4 C 0 km/h
Sensor: Nr:Datum:Temp:Abs-Feuchte:Windchill:Wind:
Aussen-T/F 1526 16-04-2020 07:05:00 2.4 C 5.14 g/m*3 2.4 C 0 km/h
1527 16-04-2020 07:10:00 2.4 C 5.14 g/m*3 2.4 C 0 km/h
1528 16-04-2020 07:15:00 2.4 C 5.2 g/m*3 2.4 C 0 km/h
1529 16-04-2020 07:20:00 2.6 C 5.27 g/m*3 2.6 C 0 km/h
1530 16-04-2020 07:25:00 2.6 C 5.27 g/m*3 2.6 C 0 km/h
1531 16-04-2020 07:30:00 2.6 C 5.27 g/m*3 2.6 C 0 km/h
1532 16-04-2020 07:35:00 2.7 C 5.3 g/m*3 2.7 C 0 km/h
1533 16-04-2020 07:40:00 2.7 C 5.3 g/m*3 2.7 C 0 km/h
1534 16-04-2020 07:45:00 2.7 C 5.3 g/m*3 2.7 C 0 km/h
1535 16-04-2020 07:50:00 2.7 C 5.3 g/m*3 2.7 C 0 km/h
1536 16-04-2020 07:55:00 2.8 C 5.34 g/m*3 2.8 C 0 km/h
1537 16-04-2020 08:00:00 2.9 C 5.37 g/m*3 2.9 C 0 km/h
1538 16-04-2020 08:05:00 2.9 C 5.37 g/m*3 2.9 C 0 km/h
1539 16-04-2020 08:10:00 3 C 5.47 g/m*3 3 C 0 km/h
1540 16-04-2020 08:15:00 3.1 C 5.51 g/m*3 3.1 C 0 km/h
1541 16-04-2020 08:20:00 3.2 C 5.54 g/m*3 3.2 C 0 km/h
1542 16-04-2020 08:25:00 3.3 C 5.58 g/m*3 3.3 C 0 km/h
1543 16-04-2020 08:30:00 3.3 C 5.58 g/m*3 3.3 C 0 km/h
1544 16-04-2020 08:35:00 3.4 C 5.62 g/m*3 3.4 C 0 km/h
1545 16-04-2020 08:40:00 3.6 C 5.63 g/m*3 3.6 C 0 km/h
1546 16-04-2020 08:45:00 3.6 C 5.63 g/m*3 3.6 C 0 km/h
1547 16-04-2020 08:50:00 3.7 C 5.67 g/m*3 3.7 C 0 km/h
1548 16-04-2020 08:55:00 3.8 C 5.71 g/m*3 3.8 C 3.2 km/h
1549 16-04-2020 09:00:00 3.9 C 5.75 g/m*3 3.9 C 0 km/h
1550 16-04-2020 09:05:00 4 C 5.79 g/m*3 4 C 0 km/h
Sensor: Nr:Datum:Temp:Abs-Feuchte:Windchill:Wind:
Aussen-T/F 1551 16-04-2020 09:10:00 4.1 C 5.82 g/m*3 4.1 C 0 km/h
1552 16-04-2020 09:15:00 4.3 C 5.9 g/m*3 4.3 C 0 km/h
1553 16-04-2020 09:20:00 4.4 C 5.94 g/m*3 4.4 C 0 km/h
1554 16-04-2020 09:25:00 4.6 C 6.02 g/m*3 4.6 C 0 km/h
1555 16-04-2020 09:30:00 4.8 C 6.04 g/m*3 4.8 C 0 km/h
1556 16-04-2020 09:35:00 5 C 6.12 g/m*3 5 C 0 km/h
1557 16-04-2020 09:40:00 5.2 C 6.2 g/m*3 5.2 C 0 km/h
1558 16-04-2020 09:45:00 5.5 C 6.25 g/m*3 5.5 C 1.6 km/h
1559 16-04-2020 09:50:00 5.8 C 6.38 g/m*3 5.8 C 0 km/h
1560 16-04-2020 09:55:00 6.1 C 6.43 g/m*3 6.1 C 3.2 km/h
1561 16-04-2020 10:00:00 6.3 C 6.51 g/m*3 6.3 C 3.2 km/h
1562 16-04-2020 10:05:00 6.6 C 6.57 g/m*3 6.6 C 0 km/h
1563 16-04-2020 10:10:00 6.9 C 6.62 g/m*3 6.9 C 0 km/h
1564 16-04-2020 10:15:00 7.2 C 6.67 g/m*3 7.2 C 0 km/h
1565 16-04-2020 10:20:00 7.6 C 6.85 g/m*3 7.6 C 0 km/h
1566 16-04-2020 10:25:00 7.8 C 6.77 g/m*3 7.8 C 0 km/h
1567 16-04-2020 10:30:00 8.2 C 6.87 g/m*3 8.2 C 0 km/h
1568 16-04-2020 10:35:00 8.6 C 6.96 g/m*3 8.6 C 0 km/h
1569 16-04-2020 10:40:00 8.9 C 6.92 g/m*3 8.9 C 0 km/h
1570 16-04-2020 10:45:00 9.3 C 7.01 g/m*3 9.3 C 0 km/h
1571 16-04-2020 10:50:00 9.7 C 7.1 g/m*3 9.7 C 0 km/h
1572 16-04-2020 10:55:00 10.1 C 7.09 g/m*3 10.1 C 0 km/h
1573 16-04-2020 11:00:00 10.6 C 7.22 g/m*3 10.6 C 0 km/h
1574 16-04-2020 11:05:00 11.1 C 7.25 g/m*3 11.1 C 3.2 km/h
1575 16-04-2020 11:10:00 11.9 C 7.41 g/m*3 11.9 C 4.8 km/h
Sensor: Nr:Datum:Temp:Abs-Feuchte:Windchill:Wind:
Aussen-T/F 1576 16-04-2020 11:15:00 13.2 C 7.35 g/m*3 13.2 C 11.3 km/h
1577 16-04-2020 11:20:00 14.3 C 7.25 g/m*3 14.3 C 11.3 km/h
1578 16-04-2020 11:25:00 15.1 C 7.35 g/m*3 15.1 C 9.7 km/h
1579 16-04-2020 11:30:00 15.6 C 7.31 g/m*3 15.6 C 8.1 km/h
1580 16-04-2020 11:35:00 16.2 C 7.31 g/m*3 16.2 C 11.3 km/h
1581 16-04-2020 11:40:00 16.7 C 7.11 g/m*3 16.7 C 9.7 km/h
1582 16-04-2020 11:45:00 17.1 C 7.13 g/m*3 17.1 C 8.1 km/h
1583 16-04-2020 11:50:00 17.4 C 7.11 g/m*3 17.4 C 8.1 km/h
1584 16-04-2020 11:55:00 17.7 C 7.09 g/m*3 17.7 C 11.3 km/h
1585 16-04-2020 12:00:00 17.9 C 7.33 g/m*3 17.9 C 12.9 km/h
1586 16-04-2020 12:05:00 18.1 C 7.26 g/m*3 18.1 C 12.9 km/h
1587 16-04-2020 12:10:00 18.3 C 7.04 g/m*3 18.3 C 16.1 km/h
1588 16-04-2020 12:15:00 18.5 C 7.12 g/m*3 18.5 C 12.9 km/h
1589 16-04-2020 12:20:00 18.7 C 7.52 g/m*3 18.7 C 11.3 km/h
1590 16-04-2020 12:25:00 18.8 C 7.25 g/m*3 18.8 C 9.7 km/h
1591 16-04-2020 12:30:00 19 C 7.5 g/m*3 19 C 11.3 km/h
1592 16-04-2020 12:35:00 19.2 C 7.42 g/m*3 19.2 C 11.3 km/h
1593 16-04-2020 12:40:00 19.3 C 7.3 g/m*3 19.3 C 11.3 km/h
1594 16-04-2020 12:45:00 19.4 C 7.34 g/m*3 19.4 C 12.9 km/h
1595 16-04-2020 12:50:00 19.5 C 7.38 g/m*3 19.5 C 12.9 km/h
1596 16-04-2020 12:55:00 19.6 C 7.43 g/m*3 19.6 C 11.3 km/h
1597 16-04-2020 13:00:00 19.8 C 7.34 g/m*3 19.8 C 9.7 km/h
1598 16-04-2020 13:05:00 19.9 C 7.39 g/m*3 19.9 C 9.7 km/h
1599 16-04-2020 13:10:00 20.1 C 7.3 g/m*3 20.1 C 11.3 km/h
1600 16-04-2020 13:15:00 20.2 C 7.34 g/m*3 20.2 C 12.9 km/h
Sensor: Nr:Datum:Temp:Abs-Feuchte:Windchill:Wind:
Aussen-T/F 1601 16-04-2020 13:20:00 20.4 C 7.25 g/m*3 20.4 C 12.9 km/h
1602 16-04-2020 13:25:00 20.6 C 7.34 g/m*3 20.6 C 11.3 km/h
1603 16-04-2020 13:30:00 20.8 C 7.42 g/m*3 20.8 C 11.3 km/h
1604 16-04-2020 13:35:00 20.9 C 6.92 g/m*3 20.9 C 11.3 km/h
1605 16-04-2020 13:40:00 21.1 C 7 g/m*3 21.1 C 11.3 km/h
1606 16-04-2020 13:45:00 21.2 C 7.23 g/m*3 21.2 C 11.3 km/h
1607 16-04-2020 13:50:00 21.3 C 6.9 g/m*3 21.3 C 12.9 km/h
1608 16-04-2020 13:55:00 21.4 C 6.75 g/m*3 21.4 C 8.1 km/h
1609 16-04-2020 14:00:00 21.6 C 7.02 g/m*3 21.6 C 14.5 km/h
1610 16-04-2020 14:05:00 21.7 C 6.68 g/m*3 21.7 C 11.3 km/h
1611 16-04-2020 14:10:00 21.7 C 6.87 g/m*3 21.7 C 6.4 km/h
1612 16-04-2020 14:15:00 21.8 C 6.91 g/m*3 21.8 C 14.5 km/h
1613 16-04-2020 14:20:00 21.8 C 6.72 g/m*3 21.8 C 8.1 km/h
1614 16-04-2020 14:25:00 21.8 C 6.72 g/m*3 21.8 C 4.8 km/h
1615 16-04-2020 14:30:00 21.8 C 7.1 g/m*3 21.8 C 6.4 km/h
1616 16-04-2020 14:35:00 22 C 7.18 g/m*3 22 C 11.3 km/h
1617 16-04-2020 14:40:00 22.2 C 7.26 g/m*3 22.2 C 9.7 km/h
1618 16-04-2020 14:45:00 22.3 C 7.31 g/m*3 22.3 C 9.7 km/h
1619 16-04-2020 14:50:00 22.4 C 6.95 g/m*3 22.4 C 9.7 km/h
1620 16-04-2020 14:55:00 22.6 C 7.23 g/m*3 22.6 C 11.3 km/h
1621 16-04-2020 15:00:00 22.7 C 7.07 g/m*3 22.7 C 11.3 km/h
1622 16-04-2020 15:05:00 22.9 C 7.36 g/m*3 22.9 C 11.3 km/h
1623 16-04-2020 15:10:00 22.9 C 7.15 g/m*3 22.9 C 11.3 km/h
1624 16-04-2020 15:15:00 23 C 7.19 g/m*3 23 C 14.5 km/h
1625 16-04-2020 15:20:00 23.2 C 7.28 g/m*3 23.2 C 16.1 km/h
Sensor: Nr:Datum:Temp:Abs-Feuchte:Windchill:Wind:
Aussen-T/F 1626 16-04-2020 15:25:00 23.3 C 7.32 g/m*3 23.3 C 9.7 km/h
1627 16-04-2020 15:30:00 23.4 C 7.36 g/m*3 23.4 C 9.7 km/h
1628 16-04-2020 15:35:00 23.6 C 7.66 g/m*3 23.6 C 9.7 km/h
1629 16-04-2020 15:40:00 23.6 C 7.23 g/m*3 23.6 C 14.5 km/h
1630 16-04-2020 15:45:00 23.4 C 7.36 g/m*3 23.4 C 17.7 km/h
1631 16-04-2020 15:50:00 23.4 C 7.57 g/m*3 23.4 C 17.7 km/h
1632 16-04-2020 15:55:00 23.6 C 7.66 g/m*3 23.6 C 9.7 km/h
1633 16-04-2020 16:00:00 23.8 C 7.74 g/m*3 23.8 C 8.1 km/h
1634 16-04-2020 16:05:00 24.1 C 7.88 g/m*3 24.1 C 16.1 km/h
1635 16-04-2020 16:10:00 24.3 C 7.75 g/m*3 24.3 C 11.3 km/h
1636 16-04-2020 16:15:00 24.4 C 7.79 g/m*3 24.4 C 9.7 km/h
1637 16-04-2020 16:20:00 24.4 C 7.34 g/m*3 24.4 C 19.3 km/h
1638 16-04-2020 16:25:00 24.4 C 7.12 g/m*3 24.4 C 14.5 km/h
1639 16-04-2020 16:30:00 24.4 C 7.12 g/m*3 24.4 C 14.5 km/h
1640 16-04-2020 16:35:00 24.5 C 6.94 g/m*3 24.5 C 16.1 km/h
1641 16-04-2020 16:40:00 24.5 C 7.16 g/m*3 24.5 C 12.9 km/h
1642 16-04-2020 16:45:00 24.6 C 6.98 g/m*3 24.6 C 16.1 km/h
1643 16-04-2020 16:50:00 24.2 C 7.26 g/m*3 24.2 C 12.9 km/h
1644 16-04-2020 16:55:00 24 C 7.61 g/m*3 24 C 8.1 km/h
1645 16-04-2020 17:00:00 23.9 C 7.57 g/m*3 23.9 C 9.7 km/h
1646 16-04-2020 17:05:00 23.8 C 7.53 g/m*3 23.8 C 8.1 km/h
1647 16-04-2020 17:10:00 23.8 C 7.31 g/m*3 23.8 C 8.1 km/h
1648 16-04-2020 17:15:00 24.1 C 7.88 g/m*3 24.1 C 12.9 km/h
1649 16-04-2020 17:20:00 24.1 C 8.75 g/m*3 24.1 C 9.7 km/h
1650 16-04-2020 17:25:00 24 C 8.27 g/m*3 24 C 12.9 km/h
Sensor: Nr:Datum:Temp:Abs-Feuchte:Windchill:Wind:
Aussen-T/F 1651 16-04-2020 17:30:00 24.3 C 7.97 g/m*3 24.3 C 16.1 km/h
1652 16-04-2020 17:35:00 24.4 C 7.57 g/m*3 24.4 C 16.1 km/h
1653 16-04-2020 17:40:00 24.4 C 8.01 g/m*3 24.4 C 16.1 km/h
1654 16-04-2020 17:45:00 24.6 C 7.88 g/m*3 24.6 C 12.9 km/h
1655 16-04-2020 17:50:00 24.6 C 8.33 g/m*3 24.6 C 12.9 km/h
1656 16-04-2020 17:55:00 24.8 C 7.97 g/m*3 24.8 C 9.7 km/h
1657 16-04-2020 18:00:00 25 C 8.06 g/m*3 25 C 11.3 km/h
1658 16-04-2020 18:05:00 25.2 C 8.15 g/m*3 25.2 C 12.9 km/h
1659 16-04-2020 18:10:00 25 C 7.83 g/m*3 25 C 12.9 km/h
1660 16-04-2020 18:15:00 24.9 C 8.01 g/m*3 24.9 C 14.5 km/h
1661 16-04-2020 18:20:00 24.8 C 7.97 g/m*3 24.8 C 12.9 km/h
1662 16-04-2020 18:25:00 24.8 C 7.97 g/m*3 24.8 C 11.3 km/h
1663 16-04-2020 18:30:00 24.8 C 7.74 g/m*3 24.8 C 11.3 km/h
1664 16-04-2020 18:35:00 24.8 C 7.74 g/m*3 24.8 C 14.5 km/h
1665 16-04-2020 18:40:00 24.7 C 8.15 g/m*3 24.7 C 11.3 km/h
1666 16-04-2020 18:45:00 24.4 C 7.79 g/m*3 24.4 C 9.7 km/h
1667 16-04-2020 18:50:00 24.4 C 7.79 g/m*3 24.4 C 14.5 km/h
1668 16-04-2020 18:55:00 24.2 C 7.7 g/m*3 24.2 C 17.7 km/h
1669 16-04-2020 19:00:00 24 C 7.83 g/m*3 24 C 12.9 km/h
1670 16-04-2020 19:05:00 23.9 C 7.79 g/m*3 23.9 C 9.7 km/h
1671 16-04-2020 19:10:00 23.8 C 7.96 g/m*3 23.8 C 9.7 km/h
1672 16-04-2020 19:15:00 23.6 C 8.08 g/m*3 23.6 C 11.3 km/h
1673 16-04-2020 19:20:00 23.4 C 7.99 g/m*3 23.4 C 8.1 km/h
1674 16-04-2020 19:25:00 23.1 C 8.06 g/m*3 23.1 C 8.1 km/h
1675 16-04-2020 19:30:00 22.8 C 7.92 g/m*3 22.8 C 9.7 km/h
Sensor: Nr:Datum:Temp:Abs-Feuchte:Windchill:Wind:
Aussen-T/F 1676 16-04-2020 19:35:00 22.6 C 8.04 g/m*3 22.6 C 8.1 km/h
1677 16-04-2020 19:40:00 22.3 C 8.1 g/m*3 22.3 C 3.2 km/h
1678 16-04-2020 19:45:00 22.1 C 8.2 g/m*3 22.1 C 3.2 km/h
1679 16-04-2020 19:50:00 21.8 C 8.25 g/m*3 21.8 C 4.8 km/h
1680 16-04-2020 19:55:00 21.4 C 8.25 g/m*3 21.4 C 3.2 km/h
1681 16-04-2020 20:00:00 21.1 C 8.11 g/m*3 21.1 C 4.8 km/h
1682 16-04-2020 20:05:00 20.7 C 8.28 g/m*3 20.7 C 6.4 km/h
1683 16-04-2020 20:10:00 20.2 C 8.04 g/m*3 20.2 C 6.4 km/h
1684 16-04-2020 20:15:00 19.8 C 8.03 g/m*3 19.8 C 6.4 km/h
1685 16-04-2020 20:20:00 19.4 C 7.84 g/m*3 19.4 C 9.7 km/h
1686 16-04-2020 20:25:00 19.2 C 7.59 g/m*3 19.2 C 8.1 km/h
1687 16-04-2020 20:30:00 19.1 C 7.54 g/m*3 19.1 C 8.1 km/h
1688 16-04-2020 20:35:00 18.9 C 7.45 g/m*3 18.9 C 9.7 km/h
1689 16-04-2020 20:40:00 18.9 C 7.61 g/m*3 18.9 C 11.3 km/h
1690 16-04-2020 20:45:00 18.9 C 7.78 g/m*3 18.9 C 8.1 km/h
1691 16-04-2020 20:50:00 18.7 C 7.52 g/m*3 18.7 C 8.1 km/h
1692 16-04-2020 20:55:00 18.6 C 7.8 g/m*3 18.6 C 8.1 km/h
1693 16-04-2020 21:00:00 18.3 C 7.66 g/m*3 18.3 C 6.4 km/h
1694 16-04-2020 21:05:00 18.1 C 7.73 g/m*3 18.1 C 8.1 km/h
1695 16-04-2020 21:10:00 17.8 C 7.89 g/m*3 17.8 C 3.2 km/h
1696 16-04-2020 21:15:00 17.4 C 7.85 g/m*3 17.4 C 1.6 km/h
1697 16-04-2020 21:20:00 17.1 C 7.71 g/m*3 17.1 C 3.2 km/h
1698 16-04-2020 21:25:00 16.8 C 7.86 g/m*3 16.8 C 4.8 km/h
1699 16-04-2020 21:30:00 16.6 C 7.77 g/m*3 16.6 C 4.8 km/h
1700 16-04-2020 21:35:00 16.4 C 7.96 g/m*3 16.4 C 3.2 km/h
Sensor: Nr:Datum:Temp:Abs-Feuchte:Windchill:Wind:
Aussen-T/F 1701 16-04-2020 21:40:00 16.1 C 7.95 g/m*3 16.1 C 1.6 km/h
1702 16-04-2020 21:45:00 15.8 C 7.94 g/m*3 15.8 C 1.6 km/h
1703 16-04-2020 21:50:00 15.4 C 7.88 g/m*3 15.4 C 1.6 km/h
1704 16-04-2020 21:55:00 15.3 C 7.84 g/m*3 15.3 C 0 km/h
1705 16-04-2020 22:00:00 15.2 C 7.92 g/m*3 15.2 C 3.2 km/h
1706 16-04-2020 22:05:00 15.2 C 8.05 g/m*3 15.2 C 3.2 km/h
1707 16-04-2020 22:10:00 14.9 C 7.9 g/m*3 14.9 C 1.6 km/h
1708 16-04-2020 22:15:00 14.6 C 7.88 g/m*3 14.6 C 4.8 km/h
1709 16-04-2020 22:20:00 14.3 C 7.86 g/m*3 14.3 C 6.4 km/h
1710 16-04-2020 22:25:00 14.2 C 7.94 g/m*3 14.2 C 6.4 km/h
1711 16-04-2020 22:30:00 14.2 C 8.06 g/m*3 14.2 C 4.8 km/h
1712 16-04-2020 22:35:00 14.2 C 8.06 g/m*3 14.2 C 0 km/h
1713 16-04-2020 22:40:00 13.9 C 8.03 g/m*3 13.9 C 0 km/h
1714 16-04-2020 22:45:00 13.7 C 7.93 g/m*3 13.7 C 0 km/h
1715 16-04-2020 22:50:00 13.6 C 7.89 g/m*3 13.6 C 0 km/h
1716 16-04-2020 22:55:00 13.3 C 7.97 g/m*3 13.3 C 4.8 km/h
1717 16-04-2020 23:00:00 13.1 C 7.99 g/m*3 13.1 C 4.8 km/h
1718 16-04-2020 23:05:00 13 C 8.05 g/m*3 13 C 0 km/h
1719 16-04-2020 23:10:00 12.9 C 8 g/m*3 12.9 C 0 km/h
1720 16-04-2020 23:15:00 12.8 C 8.06 g/m*3 12.8 C 0 km/h
1721 16-04-2020 23:20:00 12.6 C 7.97 g/m*3 12.6 C 0 km/h
1722 16-04-2020 23:25:00 12.4 C 7.87 g/m*3 12.4 C 0 km/h
1723 16-04-2020 23:30:00 12.3 C 7.93 g/m*3 12.3 C 0 km/h
1724 16-04-2020 23:35:00 12.2 C 7.88 g/m*3 12.2 C 0 km/h
1725 16-04-2020 23:40:00 12.2 C 7.88 g/m*3 12.2 C 1.6 km/h
Sensor: Nr:Datum:Temp:Abs-Feuchte:Windchill:Wind:
Aussen-T/F 1726 16-04-2020 23:45:00 12.1 C 7.83 g/m*3 12.1 C 0 km/h
1727 16-04-2020 23:50:00 12.1 C 7.83 g/m*3 12.1 C 1.6 km/h
1728 16-04-2020 23:55:00 12.1 C 7.83 g/m*3 12.1 C 0 km/h
1729 17-04-2020 00:00:00 12 C 7.89 g/m*3 12 C 0 km/h
1730 17-04-2020 00:05:00 11.8 C 7.79 g/m*3 11.8 C 0 km/h
1731 17-04-2020 00:10:00 11.7 C 7.84 g/m*3 11.7 C 0 km/h
1732 17-04-2020 00:15:00 11.6 C 7.8 g/m*3 11.6 C 0 km/h
1733 17-04-2020 00:20:00 11.4 C 7.8 g/m*3 11.4 C 1.6 km/h
1734 17-04-2020 00:25:00 11.4 C 7.8 g/m*3 11.4 C 0 km/h
1735 17-04-2020 00:30:00 11.3 C 7.75 g/m*3 11.3 C 1.6 km/h
1736 17-04-2020 00:35:00 11.3 C 7.75 g/m*3 11.3 C 0 km/h
1737 17-04-2020 00:40:00 11.2 C 7.8 g/m*3 11.2 C 0 km/h
1738 17-04-2020 00:45:00 11.2 C 7.8 g/m*3 11.2 C 0 km/h
1739 17-04-2020 00:50:00 11.1 C 7.76 g/m*3 11.1 C 0 km/h
1740 17-04-2020 00:55:00 10.9 C 7.76 g/m*3 10.9 C 0 km/h
1741 17-04-2020 01:00:00 10.8 C 7.71 g/m*3 10.8 C 0 km/h
1742 17-04-2020 01:05:00 10.7 C 7.76 g/m*3 10.7 C 1.6 km/h
1743 17-04-2020 01:10:00 10.7 C 7.76 g/m*3 10.7 C 0 km/h
1744 17-04-2020 01:15:00 10.7 C 7.76 g/m*3 10.7 C 0 km/h
1745 17-04-2020 01:20:00 10.6 C 7.71 g/m*3 10.6 C 0 km/h
1746 17-04-2020 01:25:00 10.4 C 7.71 g/m*3 10.4 C 0 km/h
1747 17-04-2020 01:30:00 10.4 C 7.71 g/m*3 10.4 C 4.8 km/h
1748 17-04-2020 01:35:00 10.4 C 7.71 g/m*3 10.4 C 4.8 km/h
1749 17-04-2020 01:40:00 10.4 C 7.71 g/m*3 10.4 C 0 km/h
1750 17-04-2020 01:45:00 10.3 C 7.66 g/m*3 10.3 C 0 km/h
Sensor: Nr:Datum:Temp:Abs-Feuchte:Windchill:Wind:
Aussen-T/F 1751 17-04-2020 01:50:00 10.2 C 7.71 g/m*3 10.2 C 0 km/h
1752 17-04-2020 01:55:00 10.2 C 7.71 g/m*3 10.2 C 0 km/h
1753 17-04-2020 02:00:00 10.2 C 7.71 g/m*3 10.2 C 3.2 km/h
1754 17-04-2020 02:05:00 10.3 C 7.76 g/m*3 10.3 C 3.2 km/h
1755 17-04-2020 02:10:00 10.4 C 7.81 g/m*3 10.4 C 1.6 km/h
1756 17-04-2020 02:15:00 10.3 C 7.76 g/m*3 10.3 C 0 km/h
1757 17-04-2020 02:20:00 10.2 C 7.71 g/m*3 10.2 C 0 km/h
1758 17-04-2020 02:25:00 10 C 7.61 g/m*3 10 C 0 km/h
1759 17-04-2020 02:30:00 9.8 C 7.61 g/m*3 9.8 C 0 km/h
1760 17-04-2020 02:35:00 9.7 C 7.56 g/m*3 9.7 C 0 km/h
1761 17-04-2020 02:40:00 9.6 C 7.6 g/m*3 9.6 C 0 km/h
1762 17-04-2020 02:45:00 9.4 C 7.51 g/m*3 9.4 C 0 km/h
1763 17-04-2020 02:50:00 9.3 C 7.46 g/m*3 9.3 C 0 km/h
1764 17-04-2020 02:55:00 9.1 C 7.45 g/m*3 9.1 C 0 km/h
1765 17-04-2020 03:00:00 8.9 C 7.45 g/m*3 8.9 C 0 km/h
1766 17-04-2020 03:05:00 8.7 C 7.35 g/m*3 8.7 C 0 km/h
1767 17-04-2020 03:10:00 8.7 C 7.44 g/m*3 8.7 C 0 km/h
1768 17-04-2020 03:15:00 8.6 C 7.39 g/m*3 8.6 C 1.6 km/h
1769 17-04-2020 03:20:00 8.6 C 7.39 g/m*3 8.6 C 0 km/h
1770 17-04-2020 03:25:00 8.4 C 7.3 g/m*3 8.4 C 0 km/h
1771 17-04-2020 03:30:00 8.4 C 7.38 g/m*3 8.4 C 0 km/h
1772 17-04-2020 03:35:00 8.4 C 7.38 g/m*3 8.4 C 0 km/h
1773 17-04-2020 03:40:00 8.4 C 7.47 g/m*3 8.4 C 1.6 km/h
1774 17-04-2020 03:45:00 8.3 C 7.42 g/m*3 8.3 C 1.6 km/h
1775 17-04-2020 03:50:00 8.4 C 7.47 g/m*3 8.4 C 4.8 km/h
Sensor: Nr:Datum:Temp:Abs-Feuchte:Windchill:Wind:
Aussen-T/F 1776 17-04-2020 03:55:00 8.4 C 7.47 g/m*3 8.4 C 3.2 km/h
1777 17-04-2020 04:00:00 8.5 C 7.51 g/m*3 8.5 C 1.6 km/h
1778 17-04-2020 04:05:00 8.5 C 7.51 g/m*3 8.5 C 3.2 km/h
1779 17-04-2020 04:10:00 8.5 C 7.51 g/m*3 8.5 C 1.6 km/h
1780 17-04-2020 04:15:00 8.5 C 7.51 g/m*3 8.5 C 1.6 km/h
1781 17-04-2020 04:20:00 8.5 C 7.51 g/m*3 8.5 C 0 km/h
1782 17-04-2020 04:25:00 8.4 C 7.47 g/m*3 8.4 C 0 km/h
1783 17-04-2020 04:30:00 8.4 C 7.47 g/m*3 8.4 C 0 km/h
1784 17-04-2020 04:35:00 8.4 C 7.47 g/m*3 8.4 C 0 km/h
1785 17-04-2020 04:40:00 8.4 C 7.47 g/m*3 8.4 C 0 km/h
1786 17-04-2020 04:45:00 8.4 C 7.55 g/m*3 8.4 C 0 km/h
1787 17-04-2020 04:50:00 8.3 C 7.42 g/m*3 8.3 C 0 km/h
1788 17-04-2020 04:55:00 8.2 C 7.37 g/m*3 8.2 C 0 km/h
1789 17-04-2020 05:00:00 8.2 C 7.37 g/m*3 8.2 C 0 km/h
1790 17-04-2020 05:05:00 8.2 C 7.37 g/m*3 8.2 C 0 km/h
1791 17-04-2020 05:10:00 8 C 7.28 g/m*3 8 C 0 km/h
1792 17-04-2020 05:15:00 7.9 C 7.23 g/m*3 7.9 C 0 km/h
1793 17-04-2020 05:20:00 7.7 C 7.14 g/m*3 7.7 C 0 km/h
1794 17-04-2020 05:25:00 7.6 C 7.09 g/m*3 7.6 C 0 km/h
1795 17-04-2020 05:30:00 7.5 C 7.12 g/m*3 7.5 C 1.6 km/h
1796 17-04-2020 05:35:00 7.4 C 7.08 g/m*3 7.4 C 0 km/h
1797 17-04-2020 05:40:00 7.3 C 7.03 g/m*3 7.3 C 0 km/h
1798 17-04-2020 05:45:00 7.3 C 7.11 g/m*3 7.3 C 0 km/h
1799 17-04-2020 05:50:00 7.3 C 7.11 g/m*3 7.3 C 0 km/h
1800 17-04-2020 05:55:00 7.2 C 7.06 g/m*3 7.2 C 0 km/h
Sensor: Nr:Datum:Temp:Abs-Feuchte:Windchill:Wind:
Aussen-T/F 1801 17-04-2020 06:00:00 7.2 C 7.06 g/m*3 7.2 C 0 km/h
1802 17-04-2020 06:05:00 7.1 C 7.1 g/m*3 7.1 C 0 km/h
1803 17-04-2020 06:10:00 7 C 7.05 g/m*3 7 C 0 km/h
1804 17-04-2020 06:15:00 6.9 C 7.01 g/m*3 6.9 C 0 km/h
1805 17-04-2020 06:20:00 6.9 C 7.01 g/m*3 6.9 C 0 km/h
1806 17-04-2020 06:25:00 6.8 C 6.96 g/m*3 6.8 C 0 km/h
1807 17-04-2020 06:30:00 6.7 C 6.91 g/m*3 6.7 C 0 km/h
1808 17-04-2020 06:35:00 6.7 C 6.91 g/m*3 6.7 C 0 km/h
1809 17-04-2020 06:40:00 6.7 C 6.99 g/m*3 6.7 C 0 km/h
1810 17-04-2020 06:45:00 6.6 C 6.95 g/m*3 6.6 C 0 km/h
1811 17-04-2020 06:50:00 6.6 C 6.95 g/m*3 6.6 C 0 km/h
1812 17-04-2020 06:55:00 6.6 C 6.95 g/m*3 6.6 C 0 km/h
1813 17-04-2020 07:00:00 6.6 C 6.95 g/m*3 6.6 C 0 km/h
1814 17-04-2020 07:05:00 6.6 C 6.95 g/m*3 6.6 C 0 km/h
1815 17-04-2020 07:10:00 6.6 C 6.95 g/m*3 6.6 C 0 km/h
1816 17-04-2020 07:15:00 6.6 C 7.02 g/m*3 6.6 C 0 km/h
1817 17-04-2020 07:20:00 6.6 C 7.02 g/m*3 6.6 C 0 km/h
1818 17-04-2020 07:25:00 6.7 C 7.07 g/m*3 6.7 C 0 km/h
1819 17-04-2020 07:30:00 6.7 C 7.07 g/m*3 6.7 C 0 km/h
1820 17-04-2020 07:35:00 6.8 C 7.11 g/m*3 6.8 C 0 km/h
1821 17-04-2020 07:40:00 6.9 C 7.16 g/m*3 6.9 C 0 km/h
1822 17-04-2020 07:45:00 6.9 C 7.16 g/m*3 6.9 C 0 km/h
1823 17-04-2020 07:50:00 6.9 C 7.16 g/m*3 6.9 C 0 km/h
1824 17-04-2020 07:55:00 6.9 C 7.16 g/m*3 6.9 C 0 km/h
1825 17-04-2020 08:00:00 6.9 C 7.16 g/m*3 6.9 C 0 km/h
Sensor: Nr:Datum:Temp:Abs-Feuchte:Windchill:Wind:
Aussen-T/F 1826 17-04-2020 08:05:00 7 C 7.28 g/m*3 7 C 0 km/h
1827 17-04-2020 08:10:00 7.1 C 7.33 g/m*3 7.1 C 0 km/h
1828 17-04-2020 08:15:00 7.1 C 7.33 g/m*3 7.1 C 0 km/h
1829 17-04-2020 08:20:00 7.2 C 7.38 g/m*3 7.2 C 0 km/h
1830 17-04-2020 08:25:00 7.3 C 7.43 g/m*3 7.3 C 0 km/h
1831 17-04-2020 08:30:00 7.3 C 7.43 g/m*3 7.3 C 0 km/h
1832 17-04-2020 08:35:00 7.4 C 7.48 g/m*3 7.4 C 0 km/h
1833 17-04-2020 08:40:00 7.6 C 7.57 g/m*3 7.6 C 0 km/h
1834 17-04-2020 08:45:00 7.7 C 7.62 g/m*3 7.7 C 0 km/h
1835 17-04-2020 08:50:00 7.8 C 7.67 g/m*3 7.8 C 0 km/h
1836 17-04-2020 08:55:00 8.1 C 7.82 g/m*3 8.1 C 0 km/h
1837 17-04-2020 09:00:00 8.2 C 7.96 g/m*3 8.2 C 0 km/h
1838 17-04-2020 09:05:00 8.3 C 7.92 g/m*3 8.3 C 0 km/h
1839 17-04-2020 09:10:00 8.4 C 7.97 g/m*3 8.4 C 0 km/h
1840 17-04-2020 09:15:00 8.6 C 8.08 g/m*3 8.6 C 0 km/h
1841 17-04-2020 09:20:00 8.7 C 8.13 g/m*3 8.7 C 0 km/h
1842 17-04-2020 09:25:00 8.8 C 8.18 g/m*3 8.8 C 0 km/h
1843 17-04-2020 09:30:00 8.9 C 8.23 g/m*3 8.9 C 0 km/h
1844 17-04-2020 09:35:00 9.2 C 8.39 g/m*3 9.2 C 0 km/h
1845 17-04-2020 09:40:00 9.3 C 8.45 g/m*3 9.3 C 0 km/h
1846 17-04-2020 09:45:00 9.5 C 8.47 g/m*3 9.5 C 0 km/h
1847 17-04-2020 09:50:00 9.7 C 8.57 g/m*3 9.7 C 0 km/h
1848 17-04-2020 09:55:00 9.9 C 8.68 g/m*3 9.9 C 0 km/h
1849 17-04-2020 10:00:00 10.1 C 8.7 g/m*3 10.1 C 0 km/h
1850 17-04-2020 10:05:00 10.3 C 8.81 g/m*3 10.3 C 0 km/h
Sensor: Nr:Datum:Temp:Abs-Feuchte:Windchill:Wind:
Aussen-T/F 1851 17-04-2020 10:10:00 10.4 C 8.77 g/m*3 10.4 C 0 km/h
1852 17-04-2020 10:15:00 10.6 C 8.78 g/m*3 10.6 C 0 km/h
1853 17-04-2020 10:20:00 10.9 C 8.95 g/m*3 10.9 C 0 km/h
1854 17-04-2020 10:25:00 11.2 C 9.02 g/m*3 11.2 C 0 km/h
1855 17-04-2020 10:30:00 11.4 C 9.14 g/m*3 11.4 C 0 km/h
1856 17-04-2020 10:35:00 11.7 C 9.2 g/m*3 11.7 C 0 km/h
1857 17-04-2020 10:40:00 11.9 C 9.21 g/m*3 11.9 C 0 km/h
1858 17-04-2020 10:45:00 12.2 C 9.39 g/m*3 12.2 C 0 km/h
1859 17-04-2020 10:50:00 12.4 C 9.29 g/m*3 12.4 C 0 km/h
1860 17-04-2020 10:55:00 12.8 C 9.41 g/m*3 12.8 C 0 km/h
1861 17-04-2020 11:00:00 13.2 C 9.42 g/m*3 13.2 C 1.6 km/h
1862 17-04-2020 11:05:00 13.7 C 9.47 g/m*3 13.7 C 0 km/h
1863 17-04-2020 11:10:00 14.1 C 9.34 g/m*3 14.1 C 1.6 km/h
1864 17-04-2020 11:15:00 14.6 C 9.51 g/m*3 14.6 C 0 km/h
1865 17-04-2020 11:20:00 14.9 C 9.43 g/m*3 14.9 C 1.6 km/h
1866 17-04-2020 11:25:00 15.3 C 9.4 g/m*3 15.3 C 1.6 km/h
1867 17-04-2020 11:30:00 15.7 C 9.63 g/m*3 15.7 C 1.6 km/h
1868 17-04-2020 11:35:00 16.1 C 9.87 g/m*3 16.1 C 1.6 km/h
1869 17-04-2020 11:40:00 16.3 C 9.57 g/m*3 16.3 C 1.6 km/h
1870 17-04-2020 11:45:00 16.6 C 9.46 g/m*3 16.6 C 0 km/h
1871 17-04-2020 11:50:00 16.9 C 9.35 g/m*3 16.9 C 1.6 km/h
1872 17-04-2020 11:55:00 17.2 C 9.37 g/m*3 17.2 C 0 km/h
1873 17-04-2020 12:00:00 17.5 C 9.69 g/m*3 17.5 C 0 km/h
1874 17-04-2020 12:05:00 17.8 C 9.56 g/m*3 17.8 C 1.6 km/h
1875 17-04-2020 12:10:00 18.2 C 9.48 g/m*3 18.2 C 1.6 km/h
Sensor: Nr:Datum:Temp:Abs-Feuchte:Windchill:Wind:
Aussen-T/F 1876 17-04-2020 12:15:00 18.5 C 9.49 g/m*3 18.5 C 1.6 km/h
1877 17-04-2020 12:20:00 18.8 C 9.18 g/m*3 18.8 C 1.6 km/h
1878 17-04-2020 12:25:00 19 C 9.61 g/m*3 19 C 6.4 km/h
1879 17-04-2020 12:30:00 19.3 C 9.12 g/m*3 19.3 C 6.4 km/h
1880 17-04-2020 12:35:00 19.4 C 9.18 g/m*3 19.4 C 1.6 km/h
1881 17-04-2020 12:40:00 19.6 C 8.95 g/m*3 19.6 C 1.6 km/h
1882 17-04-2020 12:45:00 19.7 C 9.17 g/m*3 19.7 C 3.2 km/h
1883 17-04-2020 12:50:00 19.8 C 8.88 g/m*3 19.8 C 3.2 km/h
1884 17-04-2020 12:55:00 19.9 C 8.76 g/m*3 19.9 C 3.2 km/h
1885 17-04-2020 13:00:00 20.1 C 8.87 g/m*3 20.1 C 6.4 km/h
1886 17-04-2020 13:05:00 20.2 C 8.74 g/m*3 20.2 C 1.6 km/h
1887 17-04-2020 13:10:00 20.3 C 8.97 g/m*3 20.3 C 0 km/h
1888 17-04-2020 13:15:00 20.3 C 8.79 g/m*3 20.3 C 4.8 km/h
1889 17-04-2020 13:20:00 20.5 C 8.9 g/m*3 20.5 C 3.2 km/h
1890 17-04-2020 13:25:00 20.7 C 9.18 g/m*3 20.7 C 4.8 km/h
1891 17-04-2020 13:30:00 20.9 C 8.92 g/m*3 20.9 C 4.8 km/h
1892 17-04-2020 13:35:00 21.1 C 9.21 g/m*3 21.1 C 6.4 km/h
1893 17-04-2020 13:40:00 21.2 C 9.27 g/m*3 21.2 C 6.4 km/h
1894 17-04-2020 13:45:00 21.4 C 9.56 g/m*3 21.4 C 4.8 km/h
1895 17-04-2020 13:50:00 21.4 C 9.19 g/m*3 21.4 C 8.1 km/h
1896 17-04-2020 13:55:00 21.5 C 9.62 g/m*3 21.5 C 6.4 km/h
1897 17-04-2020 14:00:00 21.6 C 9.1 g/m*3 21.6 C 3.2 km/h
1898 17-04-2020 14:05:00 21.7 C 9.35 g/m*3 21.7 C 0 km/h
1899 17-04-2020 14:10:00 21.8 C 9.59 g/m*3 21.8 C 8.1 km/h
1900 17-04-2020 14:15:00 22.1 C 9.37 g/m*3 22.1 C 6.4 km/h
Sensor: Nr:Datum:Temp:Abs-Feuchte:Windchill:Wind:
Aussen-T/F 1901 17-04-2020 14:20:00 22.2 C 9.23 g/m*3 22.2 C 6.4 km/h
1902 17-04-2020 14:25:00 22.3 C 9.48 g/m*3 22.3 C 6.4 km/h
1903 17-04-2020 14:30:00 22.4 C 9.33 g/m*3 22.4 C 8.1 km/h
1904 17-04-2020 14:35:00 22.4 C 9.33 g/m*3 22.4 C 3.2 km/h
1905 17-04-2020 14:40:00 22.6 C 9.24 g/m*3 22.6 C 8.1 km/h
1906 17-04-2020 14:45:00 22.7 C 9.5 g/m*3 22.7 C 6.4 km/h
1907 17-04-2020 14:50:00 22.8 C 9.55 g/m*3 22.8 C 6.4 km/h
1908 17-04-2020 14:55:00 23.1 C 9.51 g/m*3 23.1 C 6.4 km/h
1909 17-04-2020 15:00:00 23.2 C 9.36 g/m*3 23.2 C 11.3 km/h
1910 17-04-2020 15:05:00 23.3 C 9.41 g/m*3 23.3 C 11.3 km/h
1911 17-04-2020 15:10:00 23.4 C 9.25 g/m*3 23.4 C 12.9 km/h
1912 17-04-2020 15:15:00 23.4 C 9.04 g/m*3 23.4 C 12.9 km/h
1913 17-04-2020 15:20:00 23.4 C 9.04 g/m*3 23.4 C 4.8 km/h
1914 17-04-2020 15:25:00 23.4 C 9.25 g/m*3 23.4 C 3.2 km/h
1915 17-04-2020 15:30:00 23.4 C 9.46 g/m*3 23.4 C 6.4 km/h
1916 17-04-2020 15:35:00 23.4 C 9.25 g/m*3 23.4 C 6.4 km/h
1917 17-04-2020 15:40:00 23.4 C 9.25 g/m*3 23.4 C 8.1 km/h
1918 17-04-2020 15:45:00 23.4 C 9.25 g/m*3 23.4 C 11.3 km/h
1919 17-04-2020 15:50:00 23.4 C 9.25 g/m*3 23.4 C 11.3 km/h
1920 17-04-2020 15:55:00 23.4 C 9.25 g/m*3 23.4 C 3.2 km/h
1921 17-04-2020 16:00:00 23.4 C 9.25 g/m*3 23.4 C 4.8 km/h
1922 17-04-2020 16:05:00 23.7 C 9.41 g/m*3 23.7 C 6.4 km/h
1923 17-04-2020 16:10:00 24 C 9.36 g/m*3 24 C 11.3 km/h
1924 17-04-2020 16:15:00 24.4 C 9.57 g/m*3 24.4 C 11.3 km/h
1925 17-04-2020 16:20:00 24.6 C 9.23 g/m*3 24.6 C 8.1 km/h
Sensor: Nr:Datum:Temp:Abs-Feuchte:Windchill:Wind:
Aussen-T/F 1926 17-04-2020 16:25:00 24.4 C 9.12 g/m*3 24.4 C 6.4 km/h
1927 17-04-2020 16:30:00 24.3 C 9.29 g/m*3 24.3 C 4.8 km/h
1928 17-04-2020 16:35:00 24.3 C 9.07 g/m*3 24.3 C 8.1 km/h
1929 17-04-2020 16:40:00 24.3 C 9.07 g/m*3 24.3 C 8.1 km/h
1930 17-04-2020 16:45:00 24.3 C 9.07 g/m*3 24.3 C 4.8 km/h
1931 17-04-2020 16:50:00 24.2 C 9.02 g/m*3 24.2 C 8.1 km/h
1932 17-04-2020 16:55:00 24.3 C 9.07 g/m*3 24.3 C 8.1 km/h
1933 17-04-2020 17:00:00 24.6 C 9 g/m*3 24.6 C 9.7 km/h
1934 17-04-2020 17:05:00 24.9 C 8.93 g/m*3 24.9 C 9.7 km/h
1935 17-04-2020 17:10:00 25.2 C 8.85 g/m*3 25.2 C 8.1 km/h
1936 17-04-2020 17:15:00 25.2 C 8.85 g/m*3 25.2 C 6.4 km/h
1937 17-04-2020 17:20:00 25.1 C 9.03 g/m*3 25.1 C 6.4 km/h
1938 17-04-2020 17:25:00 25.2 C 8.85 g/m*3 25.2 C 8.1 km/h
1939 17-04-2020 17:30:00 25.4 C 9.42 g/m*3 25.4 C 9.7 km/h
1940 17-04-2020 17:35:00 25.8 C 9.15 g/m*3 25.8 C 3.2 km/h
1941 17-04-2020 17:40:00 26.1 C 8.81 g/m*3 26.1 C 8.1 km/h
1942 17-04-2020 17:45:00 25.8 C 8.67 g/m*3 25.8 C 8.1 km/h
1943 17-04-2020 17:50:00 25.7 C 8.86 g/m*3 25.7 C 3.2 km/h
1944 17-04-2020 17:55:00 25.8 C 9.15 g/m*3 25.8 C 3.2 km/h
1945 17-04-2020 18:00:00 25.9 C 9.44 g/m*3 25.9 C 3.2 km/h
1946 17-04-2020 18:05:00 26.2 C 9.11 g/m*3 26.2 C 3.2 km/h
1947 17-04-2020 18:10:00 26.2 C 9.11 g/m*3 26.2 C 1.6 km/h
1948 17-04-2020 18:15:00 26.1 C 9.3 g/m*3 26.1 C 3.2 km/h
1949 17-04-2020 18:20:00 26 C 8.76 g/m*3 26 C 6.4 km/h
1950 17-04-2020 18:25:00 25.7 C 9.34 g/m*3 25.7 C 3.2 km/h
Sensor: Nr:Datum:Temp:Abs-Feuchte:Windchill:Wind:
Aussen-T/F 1951 17-04-2020 18:30:00 25.6 C 9.76 g/m*3 25.6 C 3.2 km/h
1952 17-04-2020 18:35:00 25.7 C 9.58 g/m*3 25.7 C 4.8 km/h
1953 17-04-2020 18:40:00 25.8 C 9.39 g/m*3 25.8 C 1.6 km/h
1954 17-04-2020 18:45:00 25.8 C 9.39 g/m*3 25.8 C 6.4 km/h
1955 17-04-2020 18:50:00 25.7 C 10.29 g/m*3 25.7 C 3.2 km/h
1956 17-04-2020 18:55:00 25.5 C 10.18 g/m*3 25.5 C 3.2 km/h
1957 17-04-2020 19:00:00 25.4 C 9.89 g/m*3 25.4 C 1.6 km/h
1958 17-04-2020 19:05:00 25.5 C 9.71 g/m*3 25.5 C 6.4 km/h
1959 17-04-2020 19:10:00 25.6 C 9.76 g/m*3 25.6 C 4.8 km/h
1960 17-04-2020 19:15:00 25.4 C 10.59 g/m*3 25.4 C 4.8 km/h
1961 17-04-2020 19:20:00 25.3 C 10.53 g/m*3 25.3 C 3.2 km/h
1962 17-04-2020 19:25:00 24.9 C 10.76 g/m*3 24.9 C 1.6 km/h
1963 17-04-2020 19:30:00 24.5 C 10.97 g/m*3 24.5 C 1.6 km/h
1964 17-04-2020 19:35:00 24.1 C 10.72 g/m*3 24.1 C 3.2 km/h
1965 17-04-2020 19:40:00 23.7 C 10.69 g/m*3 23.7 C 4.8 km/h
1966 17-04-2020 19:45:00 23.2 C 10.6 g/m*3 23.2 C 4.8 km/h
1967 17-04-2020 19:50:00 22.7 C 10.51 g/m*3 22.7 C 4.8 km/h
1968 17-04-2020 19:55:00 22.1 C 10.54 g/m*3 22.1 C 4.8 km/h
1969 17-04-2020 20:00:00 21.6 C 10.43 g/m*3 21.6 C 1.6 km/h
1970 17-04-2020 20:05:00 21.1 C 10.32 g/m*3 21.1 C 3.2 km/h
1971 17-04-2020 20:10:00 20.6 C 10.02 g/m*3 20.6 C 4.8 km/h
1972 17-04-2020 20:15:00 20.3 C 10.02 g/m*3 20.3 C 4.8 km/h
1973 17-04-2020 20:20:00 19.9 C 9.97 g/m*3 19.9 C 4.8 km/h
1974 17-04-2020 20:25:00 19.6 C 9.96 g/m*3 19.6 C 6.4 km/h
1975 17-04-2020 20:30:00 19.3 C 9.95 g/m*3 19.3 C 6.4 km/h
Sensor: Nr:Datum:Temp:Abs-Feuchte:Windchill:Wind:
Aussen-T/F 1976 17-04-2020 20:35:00 18.9 C 9.72 g/m*3 18.9 C 6.4 km/h
1977 17-04-2020 20:40:00 18.7 C 9.61 g/m*3 18.7 C 6.4 km/h
1978 17-04-2020 20:45:00 18.5 C 9.81 g/m*3 18.5 C 4.8 km/h
1979 17-04-2020 20:50:00 18.3 C 9.69 g/m*3 18.3 C 4.8 km/h
1980 17-04-2020 20:55:00 18.1 C 9.73 g/m*3 18.1 C 4.8 km/h
1981 17-04-2020 21:00:00 17.9 C 9.77 g/m*3 17.9 C 4.8 km/h
1982 17-04-2020 21:05:00 17.8 C 9.71 g/m*3 17.8 C 3.2 km/h
1983 17-04-2020 21:10:00 17.7 C 9.81 g/m*3 17.7 C 4.8 km/h
1984 17-04-2020 21:15:00 17.7 C 9.96 g/m*3 17.7 C 3.2 km/h
1985 17-04-2020 21:20:00 17.6 C 9.9 g/m*3 17.6 C 4.8 km/h
1986 17-04-2020 21:25:00 17.6 C 9.9 g/m*3 17.6 C 3.2 km/h
1987 17-04-2020 21:30:00 17.4 C 9.78 g/m*3 17.4 C 6.4 km/h
1988 17-04-2020 21:35:00 17.4 C 9.78 g/m*3 17.4 C 6.4 km/h
1989 17-04-2020 21:40:00 17.4 C 9.93 g/m*3 17.4 C 4.8 km/h
1990 17-04-2020 21:45:00 17.3 C 9.87 g/m*3 17.3 C 3.2 km/h
1991 17-04-2020 21:50:00 17.2 C 9.81 g/m*3 17.2 C 3.2 km/h
1992 17-04-2020 21:55:00 17.1 C 9.75 g/m*3 17.1 C 4.8 km/h
1993 17-04-2020 22:00:00 16.8 C 9.58 g/m*3 16.8 C 1.6 km/h
1994 17-04-2020 22:05:00 16.7 C 9.52 g/m*3 16.7 C 6.4 km/h
1995 17-04-2020 22:10:00 16.5 C 9.55 g/m*3 16.5 C 3.2 km/h
1996 17-04-2020 22:15:00 16.3 C 9.57 g/m*3 16.3 C 4.8 km/h
1997 17-04-2020 22:20:00 16.1 C 9.32 g/m*3 16.1 C 4.8 km/h
1998 17-04-2020 22:25:00 15.9 C 9.48 g/m*3 15.9 C 1.6 km/h
1999 17-04-2020 22:30:00 15.8 C 9.42 g/m*3 15.8 C 0 km/h
2000 17-04-2020 22:35:00 15.7 C 9.5 g/m*3 15.7 C 0 km/h
Sensor: Nr:Datum:Temp:Abs-Feuchte:Windchill:Wind:
Aussen-T/F 2001 17-04-2020 22:40:00 15.6 C 9.44 g/m*3 15.6 C 3.2 km/h
2002 17-04-2020 22:45:00 15.4 C 9.46 g/m*3 15.4 C 3.2 km/h
2003 17-04-2020 22:50:00 15.3 C 9.4 g/m*3 15.3 C 0 km/h
2004 17-04-2020 22:55:00 15.2 C 9.35 g/m*3 15.2 C 0 km/h
2005 17-04-2020 23:00:00 15 C 9.23 g/m*3 15 C 0 km/h
2006 17-04-2020 23:05:00 15 C 9.36 g/m*3 15 C 4.8 km/h
2007 17-04-2020 23:10:00 14.9 C 9.18 g/m*3 14.9 C 0 km/h
2008 17-04-2020 23:15:00 14.9 C 9.3 g/m*3 14.9 C 0 km/h
2009 17-04-2020 23:20:00 14.8 C 9.37 g/m*3 14.8 C 1.6 km/h
2010 17-04-2020 23:25:00 14.7 C 9.44 g/m*3 14.7 C 0 km/h
2011 17-04-2020 23:30:00 14.6 C 9.39 g/m*3 14.6 C 0 km/h
2012 17-04-2020 23:35:00 14.4 C 9.39 g/m*3 14.4 C 1.6 km/h
2013 17-04-2020 23:40:00 14.3 C 9.34 g/m*3 14.3 C 0 km/h
2014 17-04-2020 23:45:00 14.1 C 9.34 g/m*3 14.1 C 1.6 km/h
2015 17-04-2020 23:50:00 14 C 9.29 g/m*3 14 C 1.6 km/h
2016 17-04-2020 23:55:00 13.9 C 9.23 g/m*3 13.9 C 0 km/h
2017 18-04-2020 00:00:00 13.8 C 9.17 g/m*3 13.8 C 0 km/h
2018 18-04-2020 00:05:00 13.8 C 9.17 g/m*3 13.8 C 0 km/h
2019 18-04-2020 00:10:00 13.7 C 9.12 g/m*3 13.7 C 0 km/h
2020 18-04-2020 00:15:00 13.6 C 9.06 g/m*3 13.6 C 0 km/h
2021 18-04-2020 00:20:00 13.4 C 8.95 g/m*3 13.4 C 0 km/h
2022 18-04-2020 00:25:00 13.2 C 8.96 g/m*3 13.2 C 0 km/h
2023 18-04-2020 00:30:00 13 C 8.85 g/m*3 13 C 0 km/h
2024 18-04-2020 00:35:00 12.8 C 8.74 g/m*3 12.8 C 0 km/h
2025 18-04-2020 00:40:00 12.7 C 8.79 g/m*3 12.7 C 0 km/h
Sensor: Nr:Datum:Temp:Abs-Feuchte:Windchill:Wind:
Aussen-T/F 2026 18-04-2020 00:45:00 12.6 C 8.74 g/m*3 12.6 C 0 km/h
2027 18-04-2020 00:50:00 12.4 C 8.63 g/m*3 12.4 C 1.6 km/h
2028 18-04-2020 00:55:00 12.3 C 8.58 g/m*3 12.3 C 1.6 km/h
2029 18-04-2020 01:00:00 12.3 C 8.58 g/m*3 12.3 C 0 km/h
2030 18-04-2020 01:05:00 12.3 C 8.58 g/m*3 12.3 C 0 km/h
2031 18-04-2020 01:10:00 12.3 C 8.58 g/m*3 12.3 C 0 km/h
2032 18-04-2020 01:15:00 12.2 C 8.52 g/m*3 12.2 C 0 km/h
2033 18-04-2020 01:20:00 12.2 C 8.52 g/m*3 12.2 C 0 km/h
2034 18-04-2020 01:25:00 12.1 C 8.47 g/m*3 12.1 C 0 km/h
2035 18-04-2020 01:30:00 11.9 C 8.47 g/m*3 11.9 C 0 km/h
2036 18-04-2020 01:35:00 11.9 C 8.58 g/m*3 11.9 C 0 km/h
2037 18-04-2020 01:40:00 11.7 C 8.37 g/m*3 11.7 C 0 km/h
2038 18-04-2020 01:45:00 11.5 C 8.26 g/m*3 11.5 C 0 km/h
2039 18-04-2020 01:50:00 11.4 C 8.21 g/m*3 11.4 C 0 km/h
2040 18-04-2020 01:55:00 11.3 C 8.26 g/m*3 11.3 C 0 km/h
2041 18-04-2020 02:00:00 11.3 C 8.26 g/m*3 11.3 C 0 km/h
2042 18-04-2020 02:05:00 11.2 C 8.21 g/m*3 11.2 C 0 km/h
2043 18-04-2020 02:10:00 11.3 C 8.47 g/m*3 11.3 C 0 km/h
2044 18-04-2020 02:15:00 11.2 C 8.31 g/m*3 11.2 C 0 km/h
2045 18-04-2020 02:20:00 11.1 C 8.36 g/m*3 11.1 C 0 km/h
2046 18-04-2020 02:25:00 11.1 C 8.36 g/m*3 11.1 C 0 km/h
2047 18-04-2020 02:30:00 11.1 C 8.36 g/m*3 11.1 C 0 km/h
2048 18-04-2020 02:35:00 10.9 C 8.36 g/m*3 10.9 C 0 km/h
2049 18-04-2020 02:40:00 10.8 C 8.3 g/m*3 10.8 C 0 km/h
2050 18-04-2020 02:45:00 10.8 C 8.3 g/m*3 10.8 C 0 km/h
Sensor: Nr:Datum:Temp:Abs-Feuchte:Windchill:Wind:
Aussen-T/F 2051 18-04-2020 02:50:00 10.7 C 8.25 g/m*3 10.7 C 0 km/h
2052 18-04-2020 02:55:00 10.6 C 8.3 g/m*3 10.6 C 0 km/h
2053 18-04-2020 03:00:00 10.5 C 8.24 g/m*3 10.5 C 0 km/h
2054 18-04-2020 03:05:00 10.3 C 8.14 g/m*3 10.3 C 0 km/h
2055 18-04-2020 03:10:00 10.3 C 8.24 g/m*3 10.3 C 0 km/h
2056 18-04-2020 03:15:00 10.3 C 8.24 g/m*3 10.3 C 0 km/h
2057 18-04-2020 03:20:00 10.2 C 8.18 g/m*3 10.2 C 0 km/h
2058 18-04-2020 03:25:00 10 C 8.08 g/m*3 10 C 0 km/h
2059 18-04-2020 03:30:00 9.8 C 7.98 g/m*3 9.8 C 0 km/h
2060 18-04-2020 03:35:00 9.7 C 7.93 g/m*3 9.7 C 0 km/h
2061 18-04-2020 03:40:00 9.7 C 7.93 g/m*3 9.7 C 0 km/h
2062 18-04-2020 03:45:00 9.6 C 7.88 g/m*3 9.6 C 0 km/h
2063 18-04-2020 03:50:00 9.6 C 7.97 g/m*3 9.6 C 0 km/h
2064 18-04-2020 03:55:00 9.5 C 7.92 g/m*3 9.5 C 0 km/h
2065 18-04-2020 04:00:00 9.5 C 8.01 g/m*3 9.5 C 0 km/h
2066 18-04-2020 04:05:00 9.5 C 8.01 g/m*3 9.5 C 0 km/h
2067 18-04-2020 04:10:00 9.5 C 8.01 g/m*3 9.5 C 0 km/h
2068 18-04-2020 04:15:00 9.4 C 7.96 g/m*3 9.4 C 0 km/h
2069 18-04-2020 04:20:00 9.4 C 7.96 g/m*3 9.4 C 0 km/h
2070 18-04-2020 04:25:00 9.4 C 8.05 g/m*3 9.4 C 0 km/h
2071 18-04-2020 04:30:00 9.4 C 8.05 g/m*3 9.4 C 0 km/h
2072 18-04-2020 04:35:00 9.4 C 8.05 g/m*3 9.4 C 0 km/h
2073 18-04-2020 04:40:00 9.4 C 8.05 g/m*3 9.4 C 0 km/h
2074 18-04-2020 04:45:00 9.3 C 8 g/m*3 9.3 C 0 km/h
2075 18-04-2020 04:50:00 9.2 C 7.95 g/m*3 9.2 C 0 km/h
Sensor: Nr:Datum:Temp:Abs-Feuchte:Windchill:Wind:
Aussen-T/F 2076 18-04-2020 04:55:00 9.2 C 7.95 g/m*3 9.2 C 0 km/h
2077 18-04-2020 05:00:00 9.2 C 7.95 g/m*3 9.2 C 0 km/h
2078 18-04-2020 05:05:00 9.1 C 7.9 g/m*3 9.1 C 0 km/h
2079 18-04-2020 05:10:00 9.1 C 7.9 g/m*3 9.1 C 0 km/h
2080 18-04-2020 05:15:00 9 C 7.85 g/m*3 9 C 0 km/h
2081 18-04-2020 05:20:00 9.1 C 7.9 g/m*3 9.1 C 0 km/h
2082 18-04-2020 05:25:00 9.1 C 7.99 g/m*3 9.1 C 0 km/h
2083 18-04-2020 05:30:00 9.1 C 7.99 g/m*3 9.1 C 0 km/h
2084 18-04-2020 05:35:00 9.1 C 7.99 g/m*3 9.1 C 0 km/h
2085 18-04-2020 05:40:00 9.1 C 7.9 g/m*3 9.1 C 0 km/h
2086 18-04-2020 05:45:00 8.9 C 7.8 g/m*3 8.9 C 0 km/h
2087 18-04-2020 05:50:00 8.9 C 7.8 g/m*3 8.9 C 0 km/h
2088 18-04-2020 05:55:00 8.9 C 7.88 g/m*3 8.9 C 0 km/h
2089 18-04-2020 06:00:00 8.9 C 7.88 g/m*3 8.9 C 0 km/h
2090 18-04-2020 06:05:00 8.9 C 7.88 g/m*3 8.9 C 0 km/h
2091 18-04-2020 06:10:00 8.9 C 7.88 g/m*3 8.9 C 0 km/h
2092 18-04-2020 06:15:00 8.9 C 7.88 g/m*3 8.9 C 0 km/h
2093 18-04-2020 06:20:00 8.9 C 7.97 g/m*3 8.9 C 0 km/h
2094 18-04-2020 06:25:00 8.9 C 7.88 g/m*3 8.9 C 0 km/h
2095 18-04-2020 06:30:00 8.9 C 7.88 g/m*3 8.9 C 0 km/h
2096 18-04-2020 06:35:00 8.9 C 7.88 g/m*3 8.9 C 0 km/h
2097 18-04-2020 06:40:00 8.8 C 7.92 g/m*3 8.8 C 0 km/h
2098 18-04-2020 06:45:00 8.8 C 7.83 g/m*3 8.8 C 0 km/h
2099 18-04-2020 06:50:00 8.7 C 7.78 g/m*3 8.7 C 0 km/h
2100 18-04-2020 06:55:00 8.6 C 7.73 g/m*3 8.6 C 0 km/h
Sensor: Nr:Datum:Temp:Abs-Feuchte:Windchill:Wind:
Aussen-T/F 2101 18-04-2020 07:00:00 8.6 C 7.82 g/m*3 8.6 C 0 km/h
2102 18-04-2020 07:05:00 8.7 C 7.87 g/m*3 8.7 C 0 km/h
2103 18-04-2020 07:10:00 8.8 C 8.01 g/m*3 8.8 C 1.6 km/h
2104 18-04-2020 07:15:00 9.1 C 8.16 g/m*3 9.1 C 3.2 km/h
2105 18-04-2020 07:20:00 9.3 C 8.36 g/m*3 9.3 C 1.6 km/h
2106 18-04-2020 07:25:00 9.5 C 8.37 g/m*3 9.5 C 0 km/h
2107 18-04-2020 07:30:00 9.6 C 8.43 g/m*3 9.6 C 0 km/h
2108 18-04-2020 07:35:00 9.7 C 8.48 g/m*3 9.7 C 1.6 km/h
2109 18-04-2020 07:40:00 9.8 C 8.54 g/m*3 9.8 C 0 km/h
2110 18-04-2020 07:45:00 9.9 C 8.59 g/m*3 9.9 C 0 km/h
2111 18-04-2020 07:50:00 9.9 C 8.59 g/m*3 9.9 C 0 km/h
2112 18-04-2020 07:55:00 10 C 8.64 g/m*3 10 C 0 km/h
2113 18-04-2020 08:00:00 10 C 8.55 g/m*3 10 C 0 km/h
2114 18-04-2020 08:05:00 10.1 C 8.61 g/m*3 10.1 C 0 km/h
2115 18-04-2020 08:10:00 10.1 C 8.7 g/m*3 10.1 C 0 km/h
2116 18-04-2020 08:15:00 10.2 C 8.76 g/m*3 10.2 C 0 km/h
2117 18-04-2020 08:20:00 10.2 C 8.76 g/m*3 10.2 C 0 km/h
2118 18-04-2020 08:25:00 10.3 C 8.81 g/m*3 10.3 C 0 km/h
2119 18-04-2020 08:30:00 10.3 C 8.81 g/m*3 10.3 C 0 km/h
2120 18-04-2020 08:35:00 10.3 C 8.71 g/m*3 10.3 C 0 km/h
2121 18-04-2020 08:40:00 10.4 C 8.87 g/m*3 10.4 C 0 km/h
2122 18-04-2020 08:45:00 10.5 C 8.92 g/m*3 10.5 C 0 km/h
2123 18-04-2020 08:50:00 10.7 C 9.04 g/m*3 10.7 C 1.6 km/h
2124 18-04-2020 08:55:00 10.8 C 9.09 g/m*3 10.8 C 0 km/h
2125 18-04-2020 09:00:00 10.9 C 9.15 g/m*3 10.9 C 0 km/h
Sensor: Nr:Datum:Temp:Abs-Feuchte:Windchill:Wind:
Aussen-T/F 2126 18-04-2020 09:05:00 11.1 C 9.27 g/m*3 11.1 C 0 km/h
2127 18-04-2020 09:10:00 11.3 C 9.38 g/m*3 11.3 C 0 km/h
2128 18-04-2020 09:15:00 11.4 C 9.34 g/m*3 11.4 C 0 km/h
2129 18-04-2020 09:20:00 11.7 C 9.52 g/m*3 11.7 C 0 km/h
2130 18-04-2020 09:25:00 11.8 C 9.37 g/m*3 11.8 C 1.6 km/h
2131 18-04-2020 09:30:00 12.2 C 9.5 g/m*3 12.2 C 6.4 km/h
2132 18-04-2020 09:35:00 12.6 C 9.62 g/m*3 12.6 C 6.4 km/h
2133 18-04-2020 09:40:00 12.8 C 9.63 g/m*3 12.8 C 3.2 km/h
2134 18-04-2020 09:45:00 13.1 C 9.59 g/m*3 13.1 C 4.8 km/h
2135 18-04-2020 09:50:00 13.3 C 9.59 g/m*3 13.3 C 1.6 km/h
2136 18-04-2020 09:55:00 13.5 C 9.59 g/m*3 13.5 C 3.2 km/h
2137 18-04-2020 10:00:00 13.7 C 9.59 g/m*3 13.7 C 3.2 km/h
2138 18-04-2020 10:05:00 14.1 C 9.83 g/m*3 14.1 C 1.6 km/h
2139 18-04-2020 10:10:00 14.4 C 9.77 g/m*3 14.4 C 4.8 km/h
2140 18-04-2020 10:15:00 14.6 C 9.89 g/m*3 14.6 C 4.8 km/h
2141 18-04-2020 10:20:00 14.8 C 9.88 g/m*3 14.8 C 1.6 km/h
2142 18-04-2020 10:25:00 15 C 10 g/m*3 15 C 4.8 km/h
2143 18-04-2020 10:30:00 15.3 C 10.06 g/m*3 15.3 C 8.1 km/h
2144 18-04-2020 10:35:00 15.4 C 10.12 g/m*3 15.4 C 6.4 km/h
2145 18-04-2020 10:40:00 15.6 C 10.24 g/m*3 15.6 C 6.4 km/h
2146 18-04-2020 10:45:00 15.7 C 10.17 g/m*3 15.7 C 3.2 km/h
2147 18-04-2020 10:50:00 15.8 C 10.1 g/m*3 15.8 C 1.6 km/h
2148 18-04-2020 10:55:00 16 C 10.22 g/m*3 16 C 0 km/h
2149 18-04-2020 11:00:00 16.1 C 10.28 g/m*3 16.1 C 0 km/h
2150 18-04-2020 11:05:00 16.3 C 10.54 g/m*3 16.3 C 1.6 km/h
Sensor: Nr:Datum:Temp:Abs-Feuchte:Windchill:Wind:
Aussen-T/F 2151 18-04-2020 11:10:00 16.5 C 10.39 g/m*3 16.5 C 0 km/h
2152 18-04-2020 11:15:00 16.7 C 10.37 g/m*3 16.7 C 3.2 km/h
2153 18-04-2020 11:20:00 16.9 C 10.21 g/m*3 16.9 C 4.8 km/h
2154 18-04-2020 11:25:00 17 C 10.27 g/m*3 17 C 3.2 km/h
2155 18-04-2020 11:30:00 17.2 C 10.4 g/m*3 17.2 C 0 km/h
2156 18-04-2020 11:35:00 17.2 C 10.25 g/m*3 17.2 C 1.6 km/h
2157 18-04-2020 11:40:00 17.2 C 10.4 g/m*3 17.2 C 3.2 km/h
2158 18-04-2020 11:45:00 17.3 C 10.46 g/m*3 17.3 C 3.2 km/h
2159 18-04-2020 11:50:00 17.4 C 10.67 g/m*3 17.4 C 3.2 km/h
2160 18-04-2020 11:55:00 17.4 C 10.37 g/m*3 17.4 C 1.6 km/h
2161 18-04-2020 12:00:00 17.6 C 10.8 g/m*3 17.6 C 0 km/h
2162 18-04-2020 12:05:00 17.8 C 10.78 g/m*3 17.8 C 0 km/h
2163 18-04-2020 12:10:00 17.9 C 10.69 g/m*3 17.9 C 1.6 km/h
2164 18-04-2020 12:15:00 18.1 C 10.66 g/m*3 18.1 C 1.6 km/h
2165 18-04-2020 12:20:00 18.2 C 10.72 g/m*3 18.2 C 1.6 km/h
2166 18-04-2020 12:25:00 18.3 C 10.48 g/m*3 18.3 C 3.2 km/h
2167 18-04-2020 12:30:00 18.4 C 10.54 g/m*3 18.4 C 0 km/h
2168 18-04-2020 12:35:00 18.4 C 10.22 g/m*3 18.4 C 1.6 km/h
2169 18-04-2020 12:40:00 18.5 C 10.28 g/m*3 18.5 C 0 km/h
2170 18-04-2020 12:45:00 18.6 C 10.66 g/m*3 18.6 C 0 km/h
2171 18-04-2020 12:50:00 18.7 C 10.73 g/m*3 18.7 C 0 km/h
2172 18-04-2020 12:55:00 18.8 C 10.95 g/m*3 18.8 C 0 km/h
2173 18-04-2020 13:00:00 18.9 C 10.85 g/m*3 18.9 C 0 km/h
2174 18-04-2020 13:05:00 19.1 C 10.49 g/m*3 19.1 C 3.2 km/h
2175 18-04-2020 13:10:00 19.2 C 10.55 g/m*3 19.2 C 4.8 km/h
Sensor: Nr:Datum:Temp:Abs-Feuchte:Windchill:Wind:
Aussen-T/F 2176 18-04-2020 13:15:00 19.3 C 10.28 g/m*3 19.3 C 4.8 km/h
2177 18-04-2020 13:20:00 19.4 C 10.34 g/m*3 19.4 C 6.4 km/h
2178 18-04-2020 13:25:00 19.6 C 10.47 g/m*3 19.6 C 1.6 km/h
2179 18-04-2020 13:30:00 19.7 C 10.53 g/m*3 19.7 C 1.6 km/h
2180 18-04-2020 13:35:00 19.9 C 10.48 g/m*3 19.9 C 1.6 km/h
2181 18-04-2020 13:40:00 20.1 C 10.6 g/m*3 20.1 C 6.4 km/h
2182 18-04-2020 13:45:00 20.2 C 10.49 g/m*3 20.2 C 8.1 km/h
2183 18-04-2020 13:50:00 20.2 C 10.32 g/m*3 20.2 C 3.2 km/h
2184 18-04-2020 13:55:00 20.3 C 10.38 g/m*3 20.3 C 0 km/h
2185 18-04-2020 14:00:00 20.4 C 10.44 g/m*3 20.4 C 4.8 km/h
2186 18-04-2020 14:05:00 20.3 C 10.38 g/m*3 20.3 C 3.2 km/h
2187 18-04-2020 14:10:00 20.4 C 10.79 g/m*3 20.4 C 0 km/h
2188 18-04-2020 14:15:00 20.4 C 10.61 g/m*3 20.4 C 0 km/h
2189 18-04-2020 14:20:00 20.6 C 10.74 g/m*3 20.6 C 1.6 km/h
2190 18-04-2020 14:25:00 20.7 C 10.62 g/m*3 20.7 C 3.2 km/h
2191 18-04-2020 14:30:00 20.7 C 10.62 g/m*3 20.7 C 4.8 km/h
2192 18-04-2020 14:35:00 20.7 C 10.8 g/m*3 20.7 C 8.1 km/h
2193 18-04-2020 14:40:00 20.8 C 11.23 g/m*3 20.8 C 6.4 km/h
2194 18-04-2020 14:45:00 20.8 C 11.23 g/m*3 20.8 C 8.1 km/h
2195 18-04-2020 14:50:00 20.9 C 10.93 g/m*3 20.9 C 6.4 km/h
2196 18-04-2020 14:55:00 20.9 C 10.75 g/m*3 20.9 C 6.4 km/h
2197 18-04-2020 15:00:00 21 C 10.99 g/m*3 21 C 4.8 km/h
2198 18-04-2020 15:05:00 21.2 C 10.93 g/m*3 21.2 C 9.7 km/h
2199 18-04-2020 15:10:00 21.3 C 10.81 g/m*3 21.3 C 9.7 km/h
2200 18-04-2020 15:15:00 21.4 C 11.06 g/m*3 21.4 C 4.8 km/h
Sensor: Nr:Datum:Temp:Abs-Feuchte:Windchill:Wind:
Aussen-T/F 2201 18-04-2020 15:20:00 21.4 C 10.69 g/m*3 21.4 C 9.7 km/h
2202 18-04-2020 15:25:00 21.5 C 10.75 g/m*3 21.5 C 6.4 km/h
2203 18-04-2020 15:30:00 21.4 C 10.69 g/m*3 21.4 C 9.7 km/h
2204 18-04-2020 15:35:00 21.3 C 10.62 g/m*3 21.3 C 11.3 km/h
2205 18-04-2020 15:40:00 21.2 C 10.75 g/m*3 21.2 C 8.1 km/h
2206 18-04-2020 15:45:00 21.2 C 10.56 g/m*3 21.2 C 14.5 km/h
2207 18-04-2020 15:50:00 21.2 C 10.93 g/m*3 21.2 C 17.7 km/h
2208 18-04-2020 15:55:00 20.9 C 11.11 g/m*3 20.9 C 17.7 km/h
2209 18-04-2020 16:00:00 20.8 C 11.05 g/m*3 20.8 C 12.9 km/h
2210 18-04-2020 16:05:00 20.7 C 11.34 g/m*3 20.7 C 12.9 km/h
2211 18-04-2020 16:10:00 20.6 C 11.28 g/m*3 20.6 C 16.1 km/h
2212 18-04-2020 16:15:00 20.4 C 11.14 g/m*3 20.4 C 12.9 km/h
2213 18-04-2020 16:20:00 20.3 C 11.26 g/m*3 20.3 C 16.1 km/h
2214 18-04-2020 16:25:00 20.1 C 11.3 g/m*3 20.1 C 14.5 km/h
2215 18-04-2020 16:30:00 19.7 C 11.38 g/m*3 19.7 C 17.7 km/h
2216 18-04-2020 16:35:00 19.3 C 11.28 g/m*3 19.3 C 17.7 km/h
2217 18-04-2020 16:40:00 19.1 C 11.47 g/m*3 19.1 C 11.3 km/h
2218 18-04-2020 16:45:00 19 C 11.41 g/m*3 19 C 9.7 km/h
2219 18-04-2020 16:50:00 19 C 11.73 g/m*3 19 C 6.4 km/h
2220 18-04-2020 16:55:00 18.9 C 11.66 g/m*3 18.9 C 6.4 km/h
2221 18-04-2020 17:00:00 18.9 C 11.83 g/m*3 18.9 C 8.1 km/h
2222 18-04-2020 17:05:00 18.8 C 11.76 g/m*3 18.8 C 4.8 km/h
2223 18-04-2020 17:10:00 18.7 C 11.85 g/m*3 18.7 C 4.8 km/h
2224 18-04-2020 17:15:00 18.6 C 11.78 g/m*3 18.6 C 1.6 km/h
2225 18-04-2020 17:20:00 18.6 C 11.78 g/m*3 18.6 C 1.6 km/h
Sensor: Nr:Datum:Temp:Abs-Feuchte:Windchill:Wind:
Aussen-T/F 2226 18-04-2020 17:25:00 18.5 C 12.18 g/m*3 18.5 C 0 km/h
2227 18-04-2020 17:30:00 18.4 C 12.43 g/m*3 18.4 C 1.6 km/h
2228 18-04-2020 17:35:00 18.3 C 12.66 g/m*3 18.3 C 1.6 km/h
2229 18-04-2020 17:40:00 18.3 C 12.82 g/m*3 18.3 C 1.6 km/h
2230 18-04-2020 17:45:00 18.1 C 12.36 g/m*3 18.1 C 0 km/h
2231 18-04-2020 17:50:00 17.9 C 12.37 g/m*3 17.9 C 1.6 km/h
2232 18-04-2020 17:55:00 17.7 C 12.22 g/m*3 17.7 C 0 km/h
2233 18-04-2020 18:00:00 17.6 C 12.3 g/m*3 17.6 C 0 km/h
2234 18-04-2020 18:05:00 17.5 C 12.23 g/m*3 17.5 C 1.6 km/h
2235 18-04-2020 18:10:00 17.4 C 12.3 g/m*3 17.4 C 1.6 km/h
2236 18-04-2020 18:15:00 17.4 C 12.45 g/m*3 17.4 C 0 km/h
2237 18-04-2020 18:20:00 17.3 C 12.08 g/m*3 17.3 C 4.8 km/h
2238 18-04-2020 18:25:00 17.3 C 12.08 g/m*3 17.3 C 0 km/h
2239 18-04-2020 18:30:00 17.4 C 12.15 g/m*3 17.4 C 3.2 km/h
2240 18-04-2020 18:35:00 17.4 C 11.71 g/m*3 17.4 C 6.4 km/h
2241 18-04-2020 18:40:00 17.4 C 11.56 g/m*3 17.4 C 1.6 km/h
2242 18-04-2020 18:45:00 17.4 C 11.26 g/m*3 17.4 C 9.7 km/h
2243 18-04-2020 18:50:00 17.6 C 11.25 g/m*3 17.6 C 8.1 km/h
2244 18-04-2020 18:55:00 17.7 C 11.32 g/m*3 17.7 C 9.7 km/h
2245 18-04-2020 19:00:00 17.8 C 11.23 g/m*3 17.8 C 12.9 km/h
2246 18-04-2020 19:05:00 17.9 C 11.15 g/m*3 17.9 C 9.7 km/h
2247 18-04-2020 19:10:00 17.8 C 11.08 g/m*3 17.8 C 9.7 km/h
2248 18-04-2020 19:15:00 17.7 C 11.01 g/m*3 17.7 C 6.4 km/h
2249 18-04-2020 19:20:00 17.6 C 10.95 g/m*3 17.6 C 8.1 km/h
2250 18-04-2020 19:25:00 17.6 C 11.1 g/m*3 17.6 C 9.7 km/h
Sensor: Nr:Datum:Temp:Abs-Feuchte:Windchill:Wind:
Aussen-T/F 2251 18-04-2020 19:30:00 17.5 C 11.03 g/m*3 17.5 C 9.7 km/h
2252 18-04-2020 19:35:00 17.6 C 11.1 g/m*3 17.6 C 8.1 km/h
2253 18-04-2020 19:40:00 17.8 C 11.23 g/m*3 17.8 C 3.2 km/h
2254 18-04-2020 19:45:00 17.9 C 11.15 g/m*3 17.9 C 4.8 km/h
2255 18-04-2020 19:50:00 17.9 C 11.15 g/m*3 17.9 C 4.8 km/h
2256 18-04-2020 19:55:00 17.8 C 10.93 g/m*3 17.8 C 6.4 km/h
2257 18-04-2020 20:00:00 17.7 C 10.71 g/m*3 17.7 C 8.1 km/h
2258 18-04-2020 20:05:00 17.6 C 10.65 g/m*3 17.6 C 6.4 km/h
2259 18-04-2020 20:10:00 17.4 C 10.67 g/m*3 17.4 C 0 km/h
2260 18-04-2020 20:15:00 17.2 C 10.54 g/m*3 17.2 C 3.2 km/h
2261 18-04-2020 20:20:00 17 C 10.56 g/m*3 17 C 3.2 km/h
2262 18-04-2020 20:25:00 16.7 C 10.52 g/m*3 16.7 C 1.6 km/h
2263 18-04-2020 20:30:00 16.4 C 10.61 g/m*3 16.4 C 0 km/h
2264 18-04-2020 20:35:00 16.1 C 10.55 g/m*3 16.1 C 1.6 km/h
2265 18-04-2020 20:40:00 15.8 C 10.5 g/m*3 15.8 C 1.6 km/h
2266 18-04-2020 20:45:00 15.6 C 10.51 g/m*3 15.6 C 0 km/h
2267 18-04-2020 20:50:00 15.3 C 10.45 g/m*3 15.3 C 1.6 km/h
2268 18-04-2020 20:55:00 15.2 C 10.51 g/m*3 15.2 C 0 km/h
2269 18-04-2020 21:00:00 15 C 10.51 g/m*3 15 C 0 km/h
2270 18-04-2020 21:05:00 14.9 C 10.45 g/m*3 14.9 C 0 km/h
2271 18-04-2020 21:10:00 14.9 C 10.58 g/m*3 14.9 C 1.6 km/h
2272 18-04-2020 21:15:00 14.9 C 10.58 g/m*3 14.9 C 1.6 km/h
2273 18-04-2020 21:20:00 14.9 C 10.58 g/m*3 14.9 C 1.6 km/h
2274 18-04-2020 21:25:00 14.9 C 10.58 g/m*3 14.9 C 1.6 km/h
2275 18-04-2020 21:30:00 15 C 10.51 g/m*3 15 C 1.6 km/h
Sensor: Nr:Datum:Temp:Abs-Feuchte:Windchill:Wind:
Aussen-T/F 2276 18-04-2020 21:35:00 15 C 10.51 g/m*3 15 C 0 km/h
2277 18-04-2020 21:40:00 15.1 C 10.58 g/m*3 15.1 C 1.6 km/h
2278 18-04-2020 21:45:00 15 C 10.51 g/m*3 15 C 0 km/h
2279 18-04-2020 21:50:00 15 C 10.64 g/m*3 15 C 0 km/h
2280 18-04-2020 21:55:00 14.9 C 10.58 g/m*3 14.9 C 0 km/h
2281 18-04-2020 22:00:00 14.8 C 10.51 g/m*3 14.8 C 3.2 km/h
2282 18-04-2020 22:05:00 14.7 C 10.45 g/m*3 14.7 C 3.2 km/h
2283 18-04-2020 22:10:00 14.7 C 10.58 g/m*3 14.7 C 1.6 km/h
2284 18-04-2020 22:15:00 14.6 C 10.51 g/m*3 14.6 C 0 km/h
2285 18-04-2020 22:20:00 14.5 C 10.45 g/m*3 14.5 C 0 km/h
2286 18-04-2020 22:25:00 14.3 C 10.2 g/m*3 14.3 C 1.6 km/h
2287 18-04-2020 22:30:00 14.1 C 10.19 g/m*3 14.1 C 3.2 km/h
2288 18-04-2020 22:35:00 13.9 C 10.07 g/m*3 13.9 C 3.2 km/h
2289 18-04-2020 22:40:00 13.7 C 10.07 g/m*3 13.7 C 1.6 km/h
2290 18-04-2020 22:45:00 13.5 C 9.94 g/m*3 13.5 C 4.8 km/h
2291 18-04-2020 22:50:00 13.3 C 9.94 g/m*3 13.3 C 6.4 km/h
2292 18-04-2020 22:55:00 13.2 C 9.87 g/m*3 13.2 C 4.8 km/h
2293 18-04-2020 23:00:00 13.2 C 9.99 g/m*3 13.2 C 4.8 km/h
2294 18-04-2020 23:05:00 13.1 C 9.93 g/m*3 13.1 C 4.8 km/h
2295 18-04-2020 23:10:00 13 C 9.98 g/m*3 13 C 3.2 km/h
2296 18-04-2020 23:15:00 12.9 C 9.92 g/m*3 12.9 C 4.8 km/h
2297 18-04-2020 23:20:00 12.8 C 9.86 g/m*3 12.8 C 4.8 km/h
2298 18-04-2020 23:25:00 12.7 C 9.8 g/m*3 12.7 C 4.8 km/h
2299 18-04-2020 23:30:00 12.6 C 9.74 g/m*3 12.6 C 0 km/h
2300 18-04-2020 23:35:00 12.4 C 9.62 g/m*3 12.4 C 0 km/h
Sensor: Nr:Datum:Temp:Abs-Feuchte:Windchill:Wind:
Aussen-T/F 2301 18-04-2020 23:40:00 12.3 C 9.56 g/m*3 12.3 C 0 km/h
2302 18-04-2020 23:45:00 12.2 C 9.6 g/m*3 12.2 C 0 km/h
2303 18-04-2020 23:50:00 12 C 9.48 g/m*3 12 C 0 km/h
2304 18-04-2020 23:55:00 11.8 C 9.37 g/m*3 11.8 C 0 km/h
2305 19-04-2020 00:00:00 11.7 C 9.31 g/m*3 11.7 C 0 km/h
2306 19-04-2020 00:05:00 11.6 C 9.35 g/m*3 11.6 C 1.6 km/h
2307 19-04-2020 00:10:00 11.4 C 9.24 g/m*3 11.4 C 0 km/h
2308 19-04-2020 00:15:00 11.3 C 9.18 g/m*3 11.3 C 0 km/h
2309 19-04-2020 00:20:00 11.2 C 9.12 g/m*3 11.2 C 0 km/h
2310 19-04-2020 00:25:00 11.1 C 9.17 g/m*3 11.1 C 0 km/h
2311 19-04-2020 00:30:00 11.1 C 9.17 g/m*3 11.1 C 0 km/h
2312 19-04-2020 00:35:00 11 C 9.21 g/m*3 11 C 0 km/h
2313 19-04-2020 00:40:00 10.9 C 9.15 g/m*3 10.9 C 0 km/h
2314 19-04-2020 00:45:00 10.8 C 9.09 g/m*3 10.8 C 0 km/h
2315 19-04-2020 00:50:00 10.8 C 9.09 g/m*3 10.8 C 0 km/h
2316 19-04-2020 00:55:00 10.7 C 9.04 g/m*3 10.7 C 0 km/h
2317 19-04-2020 01:00:00 10.6 C 8.98 g/m*3 10.6 C 0 km/h
2318 19-04-2020 01:05:00 10.5 C 8.92 g/m*3 10.5 C 0 km/h
2319 19-04-2020 01:10:00 10.5 C 9.02 g/m*3 10.5 C 0 km/h
2320 19-04-2020 01:15:00 10.5 C 9.02 g/m*3 10.5 C 0 km/h
2321 19-04-2020 01:20:00 10.4 C 8.96 g/m*3 10.4 C 0 km/h
2322 19-04-2020 01:25:00 10.3 C 8.91 g/m*3 10.3 C 0 km/h
2323 19-04-2020 01:30:00 10.2 C 8.85 g/m*3 10.2 C 0 km/h
2324 19-04-2020 01:35:00 10.2 C 8.85 g/m*3 10.2 C 0 km/h
2325 19-04-2020 01:40:00 10.2 C 8.85 g/m*3 10.2 C 0 km/h
Sensor: Nr:Datum:Temp:Abs-Feuchte:Windchill:Wind:
Aussen-T/F 2326 19-04-2020 01:45:00 10.2 C 8.95 g/m*3 10.2 C 1.6 km/h
2327 19-04-2020 01:50:00 10.2 C 8.95 g/m*3 10.2 C 0 km/h
2328 19-04-2020 01:55:00 10.1 C 8.89 g/m*3 10.1 C 0 km/h
2329 19-04-2020 02:00:00 10 C 8.74 g/m*3 10 C 0 km/h
2330 19-04-2020 02:05:00 9.9 C 8.78 g/m*3 9.9 C 0 km/h
2331 19-04-2020 02:10:00 10 C 8.83 g/m*3 10 C 0 km/h
2332 19-04-2020 02:15:00 10.1 C 8.89 g/m*3 10.1 C 0 km/h
2333 19-04-2020 02:20:00 10.1 C 8.89 g/m*3 10.1 C 0 km/h
2334 19-04-2020 02:25:00 10.2 C 8.95 g/m*3 10.2 C 0 km/h
2335 19-04-2020 02:30:00 10.2 C 8.95 g/m*3 10.2 C 0 km/h
2336 19-04-2020 02:35:00 10.2 C 8.95 g/m*3 10.2 C 4.8 km/h
2337 19-04-2020 02:40:00 10.2 C 9.04 g/m*3 10.2 C 1.6 km/h
2338 19-04-2020 02:45:00 10.2 C 9.04 g/m*3 10.2 C 0 km/h
2339 19-04-2020 02:50:00 10.2 C 8.95 g/m*3 10.2 C 0 km/h
2340 19-04-2020 02:55:00 10.2 C 8.95 g/m*3 10.2 C 0 km/h
2341 19-04-2020 03:00:00 10.2 C 8.95 g/m*3 10.2 C 0 km/h
2342 19-04-2020 03:05:00 10.1 C 8.89 g/m*3 10.1 C 0 km/h
2343 19-04-2020 03:10:00 9.9 C 8.78 g/m*3 9.9 C 0 km/h
2344 19-04-2020 03:15:00 9.8 C 8.72 g/m*3 9.8 C 1.6 km/h
2345 19-04-2020 03:20:00 9.8 C 8.72 g/m*3 9.8 C 0 km/h
2346 19-04-2020 03:25:00 9.7 C 8.67 g/m*3 9.7 C 0 km/h
2347 19-04-2020 03:30:00 9.7 C 8.67 g/m*3 9.7 C 1.6 km/h
2348 19-04-2020 03:35:00 9.6 C 8.61 g/m*3 9.6 C 3.2 km/h
2349 19-04-2020 03:40:00 9.4 C 8.5 g/m*3 9.4 C 0 km/h
2350 19-04-2020 03:45:00 9.3 C 8.45 g/m*3 9.3 C 0 km/h
Sensor: Nr:Datum:Temp:Abs-Feuchte:Windchill:Wind:
Aussen-T/F 2351 19-04-2020 03:50:00 9.2 C 8.39 g/m*3 9.2 C 3.2 km/h
2352 19-04-2020 03:55:00 9.2 C 8.48 g/m*3 9.2 C 0 km/h
2353 19-04-2020 04:00:00 9.2 C 8.39 g/m*3 9.2 C 0 km/h
2354 19-04-2020 04:05:00 9.1 C 8.34 g/m*3 9.1 C 0 km/h
2355 19-04-2020 04:10:00 9.2 C 8.48 g/m*3 9.2 C 0 km/h
2356 19-04-2020 04:15:00 9.2 C 8.48 g/m*3 9.2 C 1.6 km/h
2357 19-04-2020 04:20:00 9.4 C 8.59 g/m*3 9.4 C 1.6 km/h
2358 19-04-2020 04:25:00 9.5 C 8.74 g/m*3 9.5 C 1.6 km/h
2359 19-04-2020 04:30:00 9.6 C 8.79 g/m*3 9.6 C 0 km/h
2360 19-04-2020 04:35:00 9.7 C 8.85 g/m*3 9.7 C 1.6 km/h
2361 19-04-2020 04:40:00 9.7 C 8.85 g/m*3 9.7 C 1.6 km/h
2362 19-04-2020 04:45:00 9.8 C 8.91 g/m*3 9.8 C 0 km/h
2363 19-04-2020 04:50:00 9.8 C 8.91 g/m*3 9.8 C 1.6 km/h
2364 19-04-2020 04:55:00 9.8 C 8.91 g/m*3 9.8 C 1.6 km/h
2365 19-04-2020 05:00:00 9.8 C 8.91 g/m*3 9.8 C 3.2 km/h
2366 19-04-2020 05:05:00 9.9 C 8.96 g/m*3 9.9 C 3.2 km/h
2367 19-04-2020 05:10:00 9.9 C 8.96 g/m*3 9.9 C 0 km/h
2368 19-04-2020 05:15:00 9.9 C 8.96 g/m*3 9.9 C 1.6 km/h
2369 19-04-2020 05:20:00 9.9 C 8.96 g/m*3 9.9 C 0 km/h
2370 19-04-2020 05:25:00 9.9 C 8.96 g/m*3 9.9 C 1.6 km/h
2371 19-04-2020 05:30:00 9.9 C 8.96 g/m*3 9.9 C 1.6 km/h
2372 19-04-2020 05:35:00 9.9 C 8.96 g/m*3 9.9 C 1.6 km/h
2373 19-04-2020 05:40:00 9.9 C 8.96 g/m*3 9.9 C 0 km/h
2374 19-04-2020 05:45:00 9.9 C 8.96 g/m*3 9.9 C 0 km/h
2375 19-04-2020 05:50:00 9.9 C 8.96 g/m*3 9.9 C 0 km/h
Sensor: Nr:Datum:Temp:Abs-Feuchte:Windchill:Wind:
Aussen-T/F 2376 19-04-2020 05:55:00 9.9 C 8.96 g/m*3 9.9 C 0 km/h
2377 19-04-2020 06:00:00 10 C 9.02 g/m*3 10 C 0 km/h
2378 19-04-2020 06:05:00 10.1 C 9.08 g/m*3 10.1 C 0 km/h
2379 19-04-2020 06:10:00 10.1 C 9.08 g/m*3 10.1 C 0 km/h
2380 19-04-2020 06:15:00 10.1 C 9.08 g/m*3 10.1 C 0 km/h
2381 19-04-2020 06:20:00 10.1 C 9.08 g/m*3 10.1 C 0 km/h
2382 19-04-2020 06:25:00 10.1 C 9.08 g/m*3 10.1 C 0 km/h
2383 19-04-2020 06:30:00 10.2 C 9.14 g/m*3 10.2 C 0 km/h
2384 19-04-2020 06:35:00 10.2 C 9.14 g/m*3 10.2 C 0 km/h
2385 19-04-2020 06:40:00 10.2 C 9.14 g/m*3 10.2 C 0 km/h
2386 19-04-2020 06:45:00 10.2 C 9.14 g/m*3 10.2 C 0 km/h
2387 19-04-2020 06:50:00 10.3 C 9.19 g/m*3 10.3 C 0 km/h
2388 19-04-2020 06:55:00 10.3 C 9.19 g/m*3 10.3 C 1.6 km/h
2389 19-04-2020 07:00:00 10.3 C 9.19 g/m*3 10.3 C 0 km/h
2390 19-04-2020 07:05:00 10.3 C 9.19 g/m*3 10.3 C 0 km/h
2391 19-04-2020 07:10:00 10.3 C 9.19 g/m*3 10.3 C 0 km/h
2392 19-04-2020 07:15:00 10.3 C 9.19 g/m*3 10.3 C 0 km/h
2393 19-04-2020 07:20:00 10.4 C 9.25 g/m*3 10.4 C 0 km/h
2394 19-04-2020 07:25:00 10.4 C 9.25 g/m*3 10.4 C 0 km/h
2395 19-04-2020 07:30:00 10.4 C 9.25 g/m*3 10.4 C 0 km/h
2396 19-04-2020 07:35:00 10.4 C 9.25 g/m*3 10.4 C 0 km/h
2397 19-04-2020 07:40:00 10.5 C 9.31 g/m*3 10.5 C 0 km/h
2398 19-04-2020 07:45:00 10.5 C 9.31 g/m*3 10.5 C 0 km/h
2399 19-04-2020 07:50:00 10.5 C 9.31 g/m*3 10.5 C 0 km/h
2400 19-04-2020 07:55:00 10.6 C 9.37 g/m*3 10.6 C 0 km/h
Sensor: Nr:Datum:Temp:Abs-Feuchte:Windchill:Wind:
Aussen-T/F 2401 19-04-2020 08:00:00 10.6 C 9.37 g/m*3 10.6 C 0 km/h
2402 19-04-2020 08:05:00 10.6 C 9.37 g/m*3 10.6 C 0 km/h
2403 19-04-2020 08:10:00 10.7 C 9.43 g/m*3 10.7 C 0 km/h
2404 19-04-2020 08:15:00 10.8 C 9.49 g/m*3 10.8 C 1.6 km/h
2405 19-04-2020 08:20:00 11.1 C 9.67 g/m*3 11.1 C 3.2 km/h
2406 19-04-2020 08:25:00 11.1 C 9.67 g/m*3 11.1 C 1.6 km/h
2407 19-04-2020 08:30:00 11.2 C 9.73 g/m*3 11.2 C 0 km/h
2408 19-04-2020 08:35:00 11.3 C 9.79 g/m*3 11.3 C 0 km/h
2409 19-04-2020 08:40:00 11.4 C 9.85 g/m*3 11.4 C 0 km/h
2410 19-04-2020 08:45:00 11.7 C 10.04 g/m*3 11.7 C 0 km/h
2411 19-04-2020 08:50:00 11.8 C 10.1 g/m*3 11.8 C 3.2 km/h
2412 19-04-2020 08:55:00 11.9 C 10.17 g/m*3 11.9 C 3.2 km/h
2413 19-04-2020 09:00:00 12 C 10.12 g/m*3 12 C 1.6 km/h
2414 19-04-2020 09:05:00 12.1 C 10.19 g/m*3 12.1 C 0 km/h
2415 19-04-2020 09:10:00 12.2 C 10.25 g/m*3 12.2 C 0 km/h
2416 19-04-2020 09:15:00 12.3 C 10.21 g/m*3 12.3 C 0 km/h
2417 19-04-2020 09:20:00 12.3 C 10.1 g/m*3 12.3 C 3.2 km/h
2418 19-04-2020 09:25:00 12.4 C 10.05 g/m*3 12.4 C 3.2 km/h
2419 19-04-2020 09:30:00 12.6 C 10.18 g/m*3 12.6 C 0 km/h
2420 19-04-2020 09:35:00 12.7 C 10.13 g/m*3 12.7 C 0 km/h
2421 19-04-2020 09:40:00 12.8 C 10.19 g/m*3 12.8 C 1.6 km/h
2422 19-04-2020 09:45:00 12.9 C 10.26 g/m*3 12.9 C 0 km/h
2423 19-04-2020 09:50:00 13 C 10.09 g/m*3 13 C 1.6 km/h
2424 19-04-2020 09:55:00 13.1 C 10.16 g/m*3 13.1 C 0 km/h
2425 19-04-2020 10:00:00 13.2 C 10.1 g/m*3 13.2 C 0 km/h
Sensor: Nr:Datum:Temp:Abs-Feuchte:Windchill:Wind:
Aussen-T/F 2426 19-04-2020 10:05:00 13.3 C 10.17 g/m*3 13.3 C 0 km/h
2427 19-04-2020 10:10:00 13.4 C 10.11 g/m*3 13.4 C 0 km/h
2428 19-04-2020 10:15:00 13.5 C 10.18 g/m*3 13.5 C 0 km/h
2429 19-04-2020 10:20:00 13.8 C 10.37 g/m*3 13.8 C 3.2 km/h
2430 19-04-2020 10:25:00 14 C 10.37 g/m*3 14 C 0 km/h
2431 19-04-2020 10:30:00 14.1 C 10.19 g/m*3 14.1 C 0 km/h
2432 19-04-2020 10:35:00 14.1 C 10.19 g/m*3 14.1 C 3.2 km/h
2433 19-04-2020 10:40:00 14.3 C 10.32 g/m*3 14.3 C 3.2 km/h
2434 19-04-2020 10:45:00 14.4 C 10.26 g/m*3 14.4 C 0 km/h
2435 19-04-2020 10:50:00 14.5 C 10.32 g/m*3 14.5 C 1.6 km/h
2436 19-04-2020 10:55:00 14.6 C 10.26 g/m*3 14.6 C 3.2 km/h
2437 19-04-2020 11:00:00 14.6 C 10.14 g/m*3 14.6 C 4.8 km/h
2438 19-04-2020 11:05:00 14.6 C 10.14 g/m*3 14.6 C 4.8 km/h
2439 19-04-2020 11:10:00 14.4 C 10.01 g/m*3 14.4 C 6.4 km/h
2440 19-04-2020 11:15:00 14.3 C 10.07 g/m*3 14.3 C 11.3 km/h
2441 19-04-2020 11:20:00 14.3 C 10.07 g/m*3 14.3 C 6.4 km/h
2442 19-04-2020 11:25:00 14.3 C 10.07 g/m*3 14.3 C 8.1 km/h
2443 19-04-2020 11:30:00 14.3 C 10.07 g/m*3 14.3 C 4.8 km/h
2444 19-04-2020 11:35:00 14.2 C 10.14 g/m*3 14.2 C 6.4 km/h
2445 19-04-2020 11:40:00 14.2 C 10.14 g/m*3 14.2 C 6.4 km/h
2446 19-04-2020 11:45:00 14.1 C 10.07 g/m*3 14.1 C 9.7 km/h
2447 19-04-2020 11:50:00 13.9 C 10.07 g/m*3 13.9 C 6.4 km/h
2448 19-04-2020 11:55:00 13.9 C 10.19 g/m*3 13.9 C 1.6 km/h
2449 19-04-2020 12:00:00 13.8 C 10.01 g/m*3 13.8 C 4.8 km/h
2450 19-04-2020 12:05:00 13.8 C 10.01 g/m*3 13.8 C 8.1 km/h
Sensor: Nr:Datum:Temp:Abs-Feuchte:Windchill:Wind:
Aussen-T/F 2451 19-04-2020 12:10:00 13.9 C 10.07 g/m*3 13.9 C 6.4 km/h
2452 19-04-2020 12:15:00 13.9 C 9.83 g/m*3 13.9 C 6.4 km/h
2453 19-04-2020 12:20:00 14.1 C 9.95 g/m*3 14.1 C 6.4 km/h
2454 19-04-2020 12:25:00 14.3 C 10.07 g/m*3 14.3 C 3.2 km/h
2455 19-04-2020 12:30:00 14.4 C 9.89 g/m*3 14.4 C 6.4 km/h
2456 19-04-2020 12:35:00 14.6 C 10.01 g/m*3 14.6 C 6.4 km/h
2457 19-04-2020 12:40:00 14.8 C 9.88 g/m*3 14.8 C 8.1 km/h
2458 19-04-2020 12:45:00 14.9 C 9.81 g/m*3 14.9 C 4.8 km/h
2459 19-04-2020 12:50:00 15.1 C 9.93 g/m*3 15.1 C 4.8 km/h
2460 19-04-2020 12:55:00 15.3 C 9.92 g/m*3 15.3 C 4.8 km/h
2461 19-04-2020 13:00:00 15.6 C 9.97 g/m*3 15.6 C 9.7 km/h
2462 19-04-2020 13:05:00 15.8 C 9.96 g/m*3 15.8 C 8.1 km/h
2463 19-04-2020 13:10:00 15.9 C 10.02 g/m*3 15.9 C 8.1 km/h
2464 19-04-2020 13:15:00 15.9 C 9.89 g/m*3 15.9 C 6.4 km/h
2465 19-04-2020 13:20:00 16 C 9.95 g/m*3 16 C 6.4 km/h
2466 19-04-2020 13:25:00 16.2 C 10.07 g/m*3 16.2 C 4.8 km/h
2467 19-04-2020 13:30:00 16.3 C 9.99 g/m*3 16.3 C 4.8 km/h
2468 19-04-2020 13:35:00 16.4 C 10.05 g/m*3 16.4 C 4.8 km/h
2469 19-04-2020 13:40:00 16.7 C 10.23 g/m*3 16.7 C 0 km/h
2470 19-04-2020 13:45:00 16.8 C 10.15 g/m*3 16.8 C 6.4 km/h
2471 19-04-2020 13:50:00 16.9 C 10.07 g/m*3 16.9 C 6.4 km/h
2472 19-04-2020 13:55:00 17.1 C 10.04 g/m*3 17.1 C 8.1 km/h
2473 19-04-2020 14:00:00 17.1 C 10.04 g/m*3 17.1 C 8.1 km/h
2474 19-04-2020 14:05:00 17.2 C 9.96 g/m*3 17.2 C 12.9 km/h
2475 19-04-2020 14:10:00 17.1 C 9.75 g/m*3 17.1 C 17.7 km/h
Sensor: Nr:Datum:Temp:Abs-Feuchte:Windchill:Wind:
Aussen-T/F 2476 19-04-2020 14:15:00 17.1 C 9.9 g/m*3 17.1 C 12.9 km/h
2477 19-04-2020 14:20:00 17.2 C 9.96 g/m*3 17.2 C 12.9 km/h
2478 19-04-2020 14:25:00 17.2 C 9.96 g/m*3 17.2 C 11.3 km/h
2479 19-04-2020 14:30:00 17 C 9.84 g/m*3 17 C 14.5 km/h
2480 19-04-2020 14:35:00 16.9 C 9.92 g/m*3 16.9 C 11.3 km/h
2481 19-04-2020 14:40:00 16.9 C 10.07 g/m*3 16.9 C 3.2 km/h
2482 19-04-2020 14:45:00 17 C 9.98 g/m*3 17 C 4.8 km/h
2483 19-04-2020 14:50:00 17 C 9.84 g/m*3 17 C 9.7 km/h
2484 19-04-2020 14:55:00 16.8 C 9.87 g/m*3 16.8 C 11.3 km/h
2485 19-04-2020 15:00:00 16.6 C 9.61 g/m*3 16.6 C 12.9 km/h
2486 19-04-2020 15:05:00 16.5 C 9.69 g/m*3 16.5 C 4.8 km/h
2487 19-04-2020 15:10:00 16.4 C 9.35 g/m*3 16.4 C 14.5 km/h
2488 19-04-2020 15:15:00 16.3 C 9.3 g/m*3 16.3 C 9.7 km/h
2489 19-04-2020 15:20:00 16.3 C 9.16 g/m*3 16.3 C 8.1 km/h
2490 19-04-2020 15:25:00 16.2 C 9.1 g/m*3 16.2 C 8.1 km/h
2491 19-04-2020 15:30:00 16.3 C 9.02 g/m*3 16.3 C 12.9 km/h
2492 19-04-2020 15:35:00 16.3 C 9.02 g/m*3 16.3 C 12.9 km/h
2493 19-04-2020 15:40:00 16.4 C 9.07 g/m*3 16.4 C 8.1 km/h
2494 19-04-2020 15:45:00 16.6 C 9.18 g/m*3 16.6 C 9.7 km/h
2495 19-04-2020 15:50:00 16.6 C 9.04 g/m*3 16.6 C 9.7 km/h
2496 19-04-2020 15:55:00 16.7 C 9.1 g/m*3 16.7 C 6.4 km/h
2497 19-04-2020 16:00:00 16.9 C 9.35 g/m*3 16.9 C 9.7 km/h
2498 19-04-2020 16:05:00 17.1 C 9.17 g/m*3 17.1 C 14.5 km/h
2499 19-04-2020 16:10:00 17.3 C 9.13 g/m*3 17.3 C 14.5 km/h
2500 19-04-2020 16:15:00 17.6 C 9.15 g/m*3 17.6 C 12.9 km/h
Sensor: Nr:Datum:Temp:Abs-Feuchte:Windchill:Wind:
Aussen-T/F 2501 19-04-2020 16:20:00 17.8 C 9.11 g/m*3 17.8 C 12.9 km/h
2502 19-04-2020 16:25:00 17.8 C 8.95 g/m*3 17.8 C 8.1 km/h
2503 19-04-2020 16:30:00 17.6 C 9 g/m*3 17.6 C 11.3 km/h
2504 19-04-2020 16:35:00 17.4 C 8.89 g/m*3 17.4 C 12.9 km/h
2505 19-04-2020 16:40:00 17.4 C 8.89 g/m*3 17.4 C 16.1 km/h
2506 19-04-2020 16:45:00 17.6 C 9 g/m*3 17.6 C 16.1 km/h
2507 19-04-2020 16:50:00 17.8 C 9.26 g/m*3 17.8 C 16.1 km/h
2508 19-04-2020 16:55:00 18.1 C 9.12 g/m*3 18.1 C 19.3 km/h
2509 19-04-2020 17:00:00 17.6 C 8.7 g/m*3 17.6 C 25.7 km/h
2510 19-04-2020 17:05:00 17.1 C 8.88 g/m*3 17.1 C 25.7 km/h
2511 19-04-2020 17:10:00 17.2 C 8.93 g/m*3 17.2 C 17.7 km/h
2512 19-04-2020 17:15:00 17.2 C 8.64 g/m*3 17.2 C 19.3 km/h
2513 19-04-2020 17:20:00 17.4 C 8.74 g/m*3 17.4 C 19.3 km/h
2514 19-04-2020 17:25:00 17.6 C 8.7 g/m*3 17.6 C 12.9 km/h
2515 19-04-2020 17:30:00 17.8 C 8.65 g/m*3 17.8 C 17.7 km/h
2516 19-04-2020 17:35:00 17.4 C 8.3 g/m*3 17.4 C 25.7 km/h
2517 19-04-2020 17:40:00 17.3 C 8.54 g/m*3 17.3 C 19.3 km/h
2518 19-04-2020 17:45:00 17.5 C 8.5 g/m*3 17.5 C 19.3 km/h
2519 19-04-2020 17:50:00 17.4 C 8.3 g/m*3 17.4 C 22.5 km/h
2520 19-04-2020 17:55:00 17.3 C 8.25 g/m*3 17.3 C 20.9 km/h
2521 19-04-2020 18:00:00 17.2 C 8.2 g/m*3 17.2 C 24.1 km/h
2522 19-04-2020 18:05:00 17.3 C 8.25 g/m*3 17.3 C 27.4 km/h
2523 19-04-2020 18:10:00 17.2 C 8.35 g/m*3 17.2 C 17.7 km/h
2524 19-04-2020 18:15:00 17.3 C 8.1 g/m*3 17.3 C 11.3 km/h
2525 19-04-2020 18:20:00 17.4 C 8.15 g/m*3 17.4 C 16.1 km/h
Sensor: Nr:Datum:Temp:Abs-Feuchte:Windchill:Wind:
Aussen-T/F 2526 19-04-2020 18:25:00 17.5 C 7.9 g/m*3 17.5 C 14.5 km/h
2527 19-04-2020 18:30:00 17.4 C 7.85 g/m*3 17.4 C 19.3 km/h
2528 19-04-2020 18:35:00 17.3 C 7.81 g/m*3 17.3 C 14.5 km/h
2529 19-04-2020 18:40:00 17.3 C 7.66 g/m*3 17.3 C 9.7 km/h
2530 19-04-2020 18:45:00 17.1 C 7.42 g/m*3 17.1 C 14.5 km/h
2531 19-04-2020 18:50:00 17.1 C 7.42 g/m*3 17.1 C 12.9 km/h
2532 19-04-2020 18:55:00 17.3 C 7.81 g/m*3 17.3 C 9.7 km/h
2533 19-04-2020 19:00:00 17.4 C 7.56 g/m*3 17.4 C 6.4 km/h
2534 19-04-2020 19:05:00 17.6 C 7.5 g/m*3 17.6 C 11.3 km/h
2535 19-04-2020 19:10:00 17.3 C 7.37 g/m*3 17.3 C 11.3 km/h
2536 19-04-2020 19:15:00 17.2 C 7.47 g/m*3 17.2 C 8.1 km/h
2537 19-04-2020 19:20:00 16.8 C 7.29 g/m*3 16.8 C 17.7 km/h
2538 19-04-2020 19:25:00 16.6 C 7.49 g/m*3 16.6 C 6.4 km/h
2539 19-04-2020 19:30:00 16.6 C 7.35 g/m*3 16.6 C 6.4 km/h
2540 19-04-2020 19:35:00 16.4 C 6.98 g/m*3 16.4 C 6.4 km/h
2541 19-04-2020 19:40:00 16.2 C 7.03 g/m*3 16.2 C 4.8 km/h
2542 19-04-2020 19:45:00 16 C 7.22 g/m*3 16 C 4.8 km/h
2543 19-04-2020 19:50:00 15.8 C 7.27 g/m*3 15.8 C 8.1 km/h
2544 19-04-2020 19:55:00 15.7 C 7.23 g/m*3 15.7 C 3.2 km/h
2545 19-04-2020 20:00:00 15.4 C 7.36 g/m*3 15.4 C 1.6 km/h
2546 19-04-2020 20:05:00 15.3 C 7.44 g/m*3 15.3 C 3.2 km/h
2547 19-04-2020 20:10:00 15.1 C 7.61 g/m*3 15.1 C 0 km/h
2548 19-04-2020 20:15:00 14.8 C 7.47 g/m*3 14.8 C 1.6 km/h
2549 19-04-2020 20:20:00 14.3 C 7.49 g/m*3 14.3 C 1.6 km/h
2550 19-04-2020 20:25:00 14 C 7.36 g/m*3 14 C 0 km/h
Sensor: Nr:Datum:Temp:Abs-Feuchte:Windchill:Wind:
Aussen-T/F 2551 19-04-2020 20:30:00 13.7 C 7.46 g/m*3 13.7 C 0 km/h
2552 19-04-2020 20:35:00 13.3 C 7.28 g/m*3 13.3 C 1.6 km/h
2553 19-04-2020 20:40:00 13.1 C 7.42 g/m*3 13.1 C 0 km/h
2554 19-04-2020 20:45:00 12.8 C 7.39 g/m*3 12.8 C 0 km/h
2555 19-04-2020 20:50:00 12.6 C 7.3 g/m*3 12.6 C 0 km/h
2556 19-04-2020 20:55:00 12.4 C 7.21 g/m*3 12.4 C 0 km/h
2557 19-04-2020 21:00:00 12.3 C 7.28 g/m*3 12.3 C 0 km/h
2558 19-04-2020 21:05:00 12.2 C 7.23 g/m*3 12.2 C 0 km/h
2559 19-04-2020 21:10:00 12.1 C 7.08 g/m*3 12.1 C 0 km/h
2560 19-04-2020 21:15:00 12 C 7.14 g/m*3 12 C 0 km/h
2561 19-04-2020 21:20:00 11.9 C 7.2 g/m*3 11.9 C 0 km/h
2562 19-04-2020 21:25:00 11.8 C 7.16 g/m*3 11.8 C 0 km/h
2563 19-04-2020 21:30:00 11.7 C 7.11 g/m*3 11.7 C 0 km/h
2564 19-04-2020 21:35:00 11.6 C 7.07 g/m*3 11.6 C 0 km/h
2565 19-04-2020 21:40:00 11.6 C 7.07 g/m*3 11.6 C 0 km/h
2566 19-04-2020 21:45:00 11.4 C 6.98 g/m*3 11.4 C 0 km/h
2567 19-04-2020 21:50:00 11.4 C 6.88 g/m*3 11.4 C 0 km/h
2568 19-04-2020 21:55:00 11.3 C 6.83 g/m*3 11.3 C 0 km/h
2569 19-04-2020 22:00:00 11.3 C 6.63 g/m*3 11.3 C 0 km/h
2570 19-04-2020 22:05:00 11.4 C 6.77 g/m*3 11.4 C 0 km/h
2571 19-04-2020 22:10:00 11.4 C 6.67 g/m*3 11.4 C 0 km/h
2572 19-04-2020 22:15:00 11.4 C 6.77 g/m*3 11.4 C 0 km/h
2573 19-04-2020 22:20:00 11.3 C 6.63 g/m*3 11.3 C 0 km/h
2574 19-04-2020 22:25:00 11.2 C 6.59 g/m*3 11.2 C 4.8 km/h
2575 19-04-2020 22:30:00 11.2 C 6.49 g/m*3 11.2 C 0 km/h
Sensor: Nr:Datum:Temp:Abs-Feuchte:Windchill:Wind:
Aussen-T/F 2576 19-04-2020 22:35:00 11.1 C 6.45 g/m*3 11.1 C 0 km/h
2577 19-04-2020 22:40:00 11 C 6.41 g/m*3 11 C 3.2 km/h
2578 19-04-2020 22:45:00 10.8 C 6.42 g/m*3 10.8 C 1.6 km/h
2579 19-04-2020 22:50:00 10.7 C 6.19 g/m*3 10.7 C 3.2 km/h
2580 19-04-2020 22:55:00 10.7 C 6.29 g/m*3 10.7 C 0 km/h
2581 19-04-2020 23:00:00 10.8 C 5.73 g/m*3 10.29 C 6.4 km/h
2582 19-04-2020 23:05:00 11.1 C 6.25 g/m*3 11.1 C 1.6 km/h
2583 19-04-2020 23:10:00 11.1 C 6.14 g/m*3 11.1 C 0 km/h
2584 19-04-2020 23:15:00 10.8 C 6.13 g/m*3 10.8 C 0 km/h
2585 19-04-2020 23:20:00 10.6 C 6.15 g/m*3 10.6 C 0 km/h
2586 19-04-2020 23:25:00 10.3 C 6.03 g/m*3 10.3 C 4.8 km/h
2587 19-04-2020 23:30:00 10.2 C 6 g/m*3 10.2 C 1.6 km/h
2588 19-04-2020 23:35:00 10.3 C 5.84 g/m*3 9.72 C 6.4 km/h
2589 19-04-2020 23:40:00 10.4 C 5.69 g/m*3 10.4 C 3.2 km/h
2590 19-04-2020 23:45:00 10.6 C 5.66 g/m*3 10.06 C 6.4 km/h
2591 19-04-2020 23:50:00 10.8 C 6.03 g/m*3 10.8 C 1.6 km/h
2592 19-04-2020 23:55:00 10.7 C 5.89 g/m*3 9.81 C 8.1 km/h
2593 20-04-2020 00:00:00 10.7 C 5.7 g/m*3 10.7 C 3.2 km/h
2594 20-04-2020 00:05:00 10.6 C 5.86 g/m*3 10.6 C 1.6 km/h
2595 20-04-2020 00:10:00 10.4 C 5.88 g/m*3 10.4 C 0 km/h
2596 20-04-2020 00:15:00 10.2 C 5.71 g/m*3 10.2 C 1.6 km/h
2597 20-04-2020 00:20:00 10.1 C 5.39 g/m*3 10.1 C 3.2 km/h
2598 20-04-2020 00:25:00 10.2 C 5.33 g/m*3 9.6 C 6.4 km/h
2599 20-04-2020 00:30:00 10.3 C 5.65 g/m*3 10.3 C 1.6 km/h
2600 20-04-2020 00:35:00 10.3 C 5.55 g/m*3 10.3 C 4.8 km/h
Sensor: Nr:Datum:Temp:Abs-Feuchte:Windchill:Wind:
Aussen-T/F 2601 20-04-2020 00:40:00 10.3 C 5.65 g/m*3 10.3 C 3.2 km/h
2602 20-04-2020 00:45:00 10.2 C 5.52 g/m*3 10.2 C 3.2 km/h
2603 20-04-2020 00:50:00 10.2 C 5.42 g/m*3 10.2 C 1.6 km/h
2604 20-04-2020 00:55:00 10.1 C 5.58 g/m*3 10.1 C 1.6 km/h
2605 20-04-2020 01:00:00 9.9 C 5.32 g/m*3 8.56 C 9.7 km/h
2606 20-04-2020 01:05:00 10 C 5.36 g/m*3 9.37 C 6.4 km/h
2607 20-04-2020 01:10:00 10 C 5.36 g/m*3 10 C 3.2 km/h
2608 20-04-2020 01:15:00 9.9 C 5.32 g/m*3 9.25 C 6.4 km/h
2609 20-04-2020 01:20:00 9.9 C 5.42 g/m*3 9.9 C 1.6 km/h
2610 20-04-2020 01:25:00 9.9 C 5.14 g/m*3 8.06 C 12.9 km/h
2611 20-04-2020 01:30:00 10.1 C 5.48 g/m*3 10.1 C 1.6 km/h
2612 20-04-2020 01:35:00 9.9 C 5.32 g/m*3 9.9 C 4.8 km/h
2613 20-04-2020 01:40:00 9.8 C 5.38 g/m*3 9.8 C 3.2 km/h
2614 20-04-2020 01:45:00 9.7 C 5.44 g/m*3 9.7 C 1.6 km/h
2615 20-04-2020 01:50:00 9.5 C 5.46 g/m*3 9.5 C 1.6 km/h
2616 20-04-2020 01:55:00 9.2 C 5.54 g/m*3 9.2 C 0 km/h
2617 20-04-2020 02:00:00 9 C 5.47 g/m*3 9 C 1.6 km/h
2618 20-04-2020 02:05:00 8.8 C 5.48 g/m*3 8.8 C 0 km/h
2619 20-04-2020 02:10:00 8.5 C 5.29 g/m*3 8.5 C 1.6 km/h
2620 20-04-2020 02:15:00 8.4 C 5.34 g/m*3 8.4 C 0 km/h
2621 20-04-2020 02:20:00 8.3 C 5.48 g/m*3 8.3 C 0 km/h
2622 20-04-2020 02:25:00 8.2 C 5.36 g/m*3 8.2 C 3.2 km/h
2623 20-04-2020 02:30:00 7.9 C 5.42 g/m*3 7.9 C 1.6 km/h
2624 20-04-2020 02:35:00 7.8 C 5.3 g/m*3 7.8 C 1.6 km/h
2625 20-04-2020 02:40:00 7.7 C 5.43 g/m*3 7.7 C 0 km/h
Sensor: Nr:Datum:Temp:Abs-Feuchte:Windchill:Wind:
Aussen-T/F 2626 20-04-2020 02:45:00 7.6 C 5.32 g/m*3 7.6 C 1.6 km/h
2627 20-04-2020 02:50:00 7.6 C 5.48 g/m*3 7.6 C 0 km/h
2628 20-04-2020 02:55:00 7.5 C 5.44 g/m*3 7.5 C 0 km/h
2629 20-04-2020 03:00:00 7.4 C 5.25 g/m*3 7.4 C 3.2 km/h
2630 20-04-2020 03:05:00 7.4 C 5.33 g/m*3 7.4 C 3.2 km/h
2631 20-04-2020 03:10:00 7.4 C 5.41 g/m*3 7.4 C 1.6 km/h
2632 20-04-2020 03:15:00 7.3 C 5.37 g/m*3 7.3 C 0 km/h
2633 20-04-2020 03:20:00 7.3 C 5.37 g/m*3 7.3 C 1.6 km/h
2634 20-04-2020 03:25:00 7.2 C 5.42 g/m*3 7.2 C 1.6 km/h
2635 20-04-2020 03:30:00 7.1 C 5.3 g/m*3 7.1 C 3.2 km/h
2636 20-04-2020 03:35:00 7.1 C 5.3 g/m*3 7.1 C 0 km/h
2637 20-04-2020 03:40:00 7.2 C 5.34 g/m*3 7.2 C 1.6 km/h
2638 20-04-2020 03:45:00 7.1 C 5.38 g/m*3 7.1 C 0 km/h
2639 20-04-2020 03:50:00 7.1 C 5.38 g/m*3 7.1 C 0 km/h
2640 20-04-2020 03:55:00 7 C 5.35 g/m*3 7 C 0 km/h
2641 20-04-2020 04:00:00 6.9 C 5.31 g/m*3 6.9 C 0 km/h
2642 20-04-2020 04:05:00 6.8 C 5.35 g/m*3 6.8 C 1.6 km/h
2643 20-04-2020 04:10:00 6.7 C 5.32 g/m*3 6.7 C 1.6 km/h
2644 20-04-2020 04:15:00 6.7 C 5.32 g/m*3 6.7 C 0 km/h
2645 20-04-2020 04:20:00 6.6 C 5.28 g/m*3 6.6 C 4.8 km/h
2646 20-04-2020 04:25:00 6.6 C 5.28 g/m*3 6.6 C 0 km/h
2647 20-04-2020 04:30:00 6.6 C 5.28 g/m*3 6.6 C 0 km/h
2648 20-04-2020 04:35:00 6.6 C 5.28 g/m*3 6.6 C 1.6 km/h
2649 20-04-2020 04:40:00 6.5 C 5.25 g/m*3 6.5 C 3.2 km/h
2650 20-04-2020 04:45:00 6.5 C 5.25 g/m*3 6.5 C 1.6 km/h
Sensor: Nr:Datum:Temp:Abs-Feuchte:Windchill:Wind:
Aussen-T/F 2651 20-04-2020 04:50:00 6.4 C 5.29 g/m*3 6.4 C 1.6 km/h
2652 20-04-2020 04:55:00 6.4 C 5.22 g/m*3 6.4 C 1.6 km/h
2653 20-04-2020 05:00:00 6.4 C 5.14 g/m*3 6.4 C 4.8 km/h
2654 20-04-2020 05:05:00 6.6 C 5.28 g/m*3 6.6 C 0 km/h
2655 20-04-2020 05:10:00 6.6 C 5.28 g/m*3 6.6 C 1.6 km/h
2656 20-04-2020 05:15:00 6.7 C 5.32 g/m*3 6.7 C 0 km/h
2657 20-04-2020 05:20:00 6.7 C 5.32 g/m*3 6.7 C 1.6 km/h
2658 20-04-2020 05:25:00 6.7 C 5.32 g/m*3 6.7 C 0 km/h
2659 20-04-2020 05:30:00 6.6 C 5.28 g/m*3 6.6 C 0 km/h
2660 20-04-2020 05:35:00 6.6 C 5.36 g/m*3 6.6 C 1.6 km/h
2661 20-04-2020 05:40:00 6.5 C 5.25 g/m*3 6.5 C 1.6 km/h
2662 20-04-2020 05:45:00 6.5 C 5.25 g/m*3 6.5 C 1.6 km/h
2663 20-04-2020 05:50:00 6.5 C 5.32 g/m*3 6.5 C 3.2 km/h
2664 20-04-2020 05:55:00 6.5 C 5.32 g/m*3 6.5 C 3.2 km/h
2665 20-04-2020 06:00:00 6.4 C 5.29 g/m*3 6.4 C 0 km/h
2666 20-04-2020 06:05:00 6.4 C 5.29 g/m*3 6.4 C 1.6 km/h
2667 20-04-2020 06:10:00 6.4 C 5.29 g/m*3 6.4 C 1.6 km/h
2668 20-04-2020 06:15:00 6.3 C 5.26 g/m*3 6.3 C 1.6 km/h
2669 20-04-2020 06:20:00 6.3 C 5.18 g/m*3 6.3 C 1.6 km/h
2670 20-04-2020 06:25:00 6.3 C 5.26 g/m*3 6.3 C 1.6 km/h
2671 20-04-2020 06:30:00 6.4 C 5.22 g/m*3 6.4 C 3.2 km/h
2672 20-04-2020 06:35:00 6.5 C 5.32 g/m*3 6.5 C 3.2 km/h
2673 20-04-2020 06:40:00 6.4 C 5.29 g/m*3 6.4 C 1.6 km/h
2674 20-04-2020 06:45:00 6.4 C 5.36 g/m*3 6.4 C 0 km/h
2675 20-04-2020 06:50:00 6.3 C 5.33 g/m*3 6.3 C 0 km/h
Sensor: Nr:Datum:Temp:Abs-Feuchte:Windchill:Wind:
Aussen-T/F 2676 20-04-2020 06:55:00 6.3 C 5.33 g/m*3 6.3 C 3.2 km/h
2677 20-04-2020 07:00:00 6.4 C 5.22 g/m*3 6.4 C 3.2 km/h
2678 20-04-2020 07:05:00 6.5 C 5.25 g/m*3 6.5 C 3.2 km/h
2679 20-04-2020 07:10:00 6.7 C 5.32 g/m*3 6.7 C 1.6 km/h
2680 20-04-2020 07:15:00 6.7 C 5.32 g/m*3 6.7 C 3.2 km/h
2681 20-04-2020 07:20:00 6.7 C 5.32 g/m*3 6.7 C 3.2 km/h
2682 20-04-2020 07:25:00 6.7 C 5.47 g/m*3 6.7 C 1.6 km/h
2683 20-04-2020 07:30:00 6.8 C 5.2 g/m*3 6.8 C 1.6 km/h
2684 20-04-2020 07:35:00 6.9 C 5.39 g/m*3 6.9 C 1.6 km/h
2685 20-04-2020 07:40:00 7.1 C 5.23 g/m*3 6.02 C 6.4 km/h
2686 20-04-2020 07:45:00 7.3 C 5.29 g/m*3 7.3 C 3.2 km/h
2687 20-04-2020 07:50:00 7.4 C 5.17 g/m*3 7.4 C 4.8 km/h
2688 20-04-2020 07:55:00 7.7 C 5.27 g/m*3 6.28 C 8.1 km/h
2689 20-04-2020 08:00:00 7.8 C 5.3 g/m*3 7.8 C 4.8 km/h
2690 20-04-2020 08:05:00 7.9 C 5.34 g/m*3 6.18 C 9.7 km/h
2691 20-04-2020 08:10:00 8.1 C 5.24 g/m*3 8.1 C 4.8 km/h
2692 20-04-2020 08:15:00 8.2 C 5.19 g/m*3 7.29 C 6.4 km/h
2693 20-04-2020 08:20:00 8.4 C 5.43 g/m*3 8.4 C 4.8 km/h
2694 20-04-2020 08:25:00 8.4 C 5.43 g/m*3 7.52 C 6.4 km/h
2695 20-04-2020 08:30:00 8.4 C 5.34 g/m*3 8.4 C 3.2 km/h
2696 20-04-2020 08:35:00 8.4 C 5.43 g/m*3 8.4 C 4.8 km/h
2697 20-04-2020 08:40:00 8.4 C 5.34 g/m*3 8.4 C 4.8 km/h
2698 20-04-2020 08:45:00 8.5 C 5.29 g/m*3 8.5 C 4.8 km/h
2699 20-04-2020 08:50:00 8.7 C 5.45 g/m*3 7.87 C 6.4 km/h
2700 20-04-2020 08:55:00 8.8 C 5.4 g/m*3 7.25 C 9.7 km/h
Sensor: Nr:Datum:Temp:Abs-Feuchte:Windchill:Wind:
Aussen-T/F 2701 20-04-2020 09:00:00 8.8 C 5.4 g/m*3 7.58 C 8.1 km/h
2702 20-04-2020 09:05:00 8.9 C 5.43 g/m*3 7.69 C 8.1 km/h
2703 20-04-2020 09:10:00 8.9 C 5.61 g/m*3 8.9 C 3.2 km/h
2704 20-04-2020 09:15:00 9 C 5.38 g/m*3 7.81 C 8.1 km/h
2705 20-04-2020 09:20:00 9 C 5.64 g/m*3 9 C 3.2 km/h
2706 20-04-2020 09:25:00 9.1 C 5.77 g/m*3 9.1 C 1.6 km/h
2707 20-04-2020 09:30:00 9 C 5.47 g/m*3 8.21 C 6.4 km/h
2708 20-04-2020 09:35:00 9.3 C 5.84 g/m*3 7.85 C 9.7 km/h
2709 20-04-2020 09:40:00 9.4 C 5.52 g/m*3 8.28 C 8.1 km/h
2710 20-04-2020 09:45:00 9.7 C 5.53 g/m*3 9.02 C 6.4 km/h
2711 20-04-2020 09:50:00 9.7 C 5.81 g/m*3 9.7 C 3.2 km/h
2712 20-04-2020 09:55:00 9.7 C 5.53 g/m*3 8.63 C 8.1 km/h
2713 20-04-2020 10:00:00 9.9 C 5.7 g/m*3 8.87 C 8.1 km/h
2714 20-04-2020 10:05:00 10.1 C 5.77 g/m*3 10.1 C 3.2 km/h
2715 20-04-2020 10:10:00 10.4 C 5.59 g/m*3 8.67 C 12.9 km/h
2716 20-04-2020 10:15:00 10.7 C 5.6 g/m*3 9.81 C 8.1 km/h
2717 20-04-2020 10:20:00 11.2 C 5.47 g/m*3 11.2 C 12.9 km/h
2718 20-04-2020 10:25:00 11.5 C 5.58 g/m*3 11.5 C 11.3 km/h
2719 20-04-2020 10:30:00 11.8 C 5.47 g/m*3 11.8 C 9.7 km/h
2720 20-04-2020 10:35:00 12.1 C 5.9 g/m*3 12.1 C 9.7 km/h
2721 20-04-2020 10:40:00 12.2 C 5.61 g/m*3 12.2 C 12.9 km/h
2722 20-04-2020 10:45:00 12.5 C 5.61 g/m*3 12.5 C 11.3 km/h
2723 20-04-2020 10:50:00 12.7 C 5.45 g/m*3 12.7 C 11.3 km/h
2724 20-04-2020 10:55:00 13 C 5.56 g/m*3 13 C 9.7 km/h
2725 20-04-2020 11:00:00 13.3 C 5.31 g/m*3 13.3 C 16.1 km/h
Sensor: Nr:Datum:Temp:Abs-Feuchte:Windchill:Wind:
Aussen-T/F 2726 20-04-2020 11:05:00 13.4 C 5.35 g/m*3 13.4 C 17.7 km/h
2727 20-04-2020 11:10:00 13.7 C 5.45 g/m*3 13.7 C 17.7 km/h
2728 20-04-2020 11:15:00 13.8 C 5.36 g/m*3 13.8 C 14.5 km/h
2729 20-04-2020 11:20:00 13.9 C 5.63 g/m*3 13.9 C 17.7 km/h
2730 20-04-2020 11:25:00 14.2 C 5.98 g/m*3 14.2 C 16.1 km/h
2731 20-04-2020 11:30:00 14.3 C 5.28 g/m*3 14.3 C 14.5 km/h
2732 20-04-2020 11:35:00 14.4 C 5.44 g/m*3 14.4 C 14.5 km/h
2733 20-04-2020 11:40:00 14.6 C 5.38 g/m*3 14.6 C 14.5 km/h
2734 20-04-2020 11:45:00 14.7 C 5.41 g/m*3 14.7 C 12.9 km/h
2735 20-04-2020 11:50:00 14.8 C 5.32 g/m*3 14.8 C 12.9 km/h
2736 20-04-2020 11:55:00 14.9 C 5.23 g/m*3 14.9 C 22.5 km/h
2737 20-04-2020 12:00:00 14.9 C 5.23 g/m*3 14.9 C 19.3 km/h
2738 20-04-2020 12:05:00 15 C 5.51 g/m*3 15 C 11.3 km/h
2739 20-04-2020 12:10:00 15 C 5.13 g/m*3 15 C 17.7 km/h
2740 20-04-2020 12:15:00 14.9 C 5.1 g/m*3 14.9 C 27.4 km/h
2741 20-04-2020 12:20:00 14.9 C 5.23 g/m*3 14.9 C 12.9 km/h
2742 20-04-2020 12:25:00 15.1 C 5.16 g/m*3 15.1 C 14.5 km/h
2743 20-04-2020 12:30:00 15.1 C 5.03 g/m*3 15.1 C 19.3 km/h
2744 20-04-2020 12:35:00 15.1 C 5.03 g/m*3 15.1 C 19.3 km/h
2745 20-04-2020 12:40:00 15.1 C 5.03 g/m*3 15.1 C 9.7 km/h
2746 20-04-2020 12:45:00 15.1 C 5.16 g/m*3 15.1 C 17.7 km/h
2747 20-04-2020 12:50:00 15.2 C 5.19 g/m*3 15.2 C 14.5 km/h
2748 20-04-2020 12:55:00 15.3 C 5.09 g/m*3 15.3 C 14.5 km/h
2749 20-04-2020 13:00:00 15.4 C 5.12 g/m*3 15.4 C 12.9 km/h
2750 20-04-2020 13:05:00 15.5 C 5.02 g/m*3 15.5 C 12.9 km/h
Sensor: Nr:Datum:Temp:Abs-Feuchte:Windchill:Wind:
Aussen-T/F 2751 20-04-2020 13:10:00 15.7 C 5.49 g/m*3 15.7 C 6.4 km/h
2752 20-04-2020 13:15:00 15.9 C 5.15 g/m*3 15.9 C 16.1 km/h
2753 20-04-2020 13:20:00 15.8 C 5.12 g/m*3 15.8 C 17.7 km/h
2754 20-04-2020 13:25:00 15.9 C 5.15 g/m*3 15.9 C 14.5 km/h
2755 20-04-2020 13:30:00 16.1 C 5.07 g/m*3 16.1 C 22.5 km/h
2756 20-04-2020 13:35:00 16.2 C 5.24 g/m*3 16.2 C 9.7 km/h
2757 20-04-2020 13:40:00 16.3 C 5.13 g/m*3 16.3 C 9.7 km/h
2758 20-04-2020 13:45:00 16.4 C 5.16 g/m*3 16.4 C 12.9 km/h
2759 20-04-2020 13:50:00 16.4 C 5.3 g/m*3 16.4 C 11.3 km/h
2760 20-04-2020 13:55:00 16.7 C 5.12 g/m*3 16.7 C 20.9 km/h
2761 20-04-2020 14:00:00 16.8 C 5.29 g/m*3 16.8 C 17.7 km/h
2762 20-04-2020 14:05:00 16.9 C 5.18 g/m*3 16.9 C 19.3 km/h
2763 20-04-2020 14:10:00 16.9 C 5.03 g/m*3 16.9 C 19.3 km/h
2764 20-04-2020 14:15:00 17 C 5.06 g/m*3 17 C 19.3 km/h
2765 20-04-2020 14:20:00 17.1 C 5.39 g/m*3 17.1 C 16.1 km/h
2766 20-04-2020 14:25:00 17.3 C 4.86 g/m*3 17.3 C 17.7 km/h
2767 20-04-2020 14:30:00 17.3 C 5.01 g/m*3 17.3 C 16.1 km/h
2768 20-04-2020 14:35:00 17.3 C 5.01 g/m*3 17.3 C 16.1 km/h
2769 20-04-2020 14:40:00 17.5 C 5.07 g/m*3 17.5 C 16.1 km/h
2770 20-04-2020 14:45:00 17.6 C 5.1 g/m*3 17.6 C 19.3 km/h
2771 20-04-2020 14:50:00 17.7 C 5.13 g/m*3 17.7 C 17.7 km/h
2772 20-04-2020 14:55:00 17.8 C 5.16 g/m*3 17.8 C 19.3 km/h
2773 20-04-2020 15:00:00 17.9 C 5.19 g/m*3 17.9 C 9.7 km/h
2774 20-04-2020 15:05:00 18.1 C 4.94 g/m*3 18.1 C 19.3 km/h
2775 20-04-2020 15:10:00 18 C 4.92 g/m*3 18 C 20.9 km/h
Sensor: Nr:Datum:Temp:Abs-Feuchte:Windchill:Wind:
Aussen-T/F 2776 20-04-2020 15:15:00 18.1 C 4.94 g/m*3 18.1 C 12.9 km/h
2777 20-04-2020 15:20:00 18.2 C 4.97 g/m*3 18.2 C 20.9 km/h
2778 20-04-2020 15:25:00 18.3 C 5.16 g/m*3 18.3 C 16.1 km/h
2779 20-04-2020 15:30:00 18.5 C 5.22 g/m*3 18.5 C 16.1 km/h
2780 20-04-2020 15:35:00 18.6 C 5.09 g/m*3 18.6 C 11.3 km/h
2781 20-04-2020 15:40:00 18.7 C 4.96 g/m*3 18.7 C 17.7 km/h
2782 20-04-2020 15:45:00 18.8 C 4.99 g/m*3 18.8 C 17.7 km/h
2783 20-04-2020 15:50:00 18.8 C 4.99 g/m*3 18.8 C 14.5 km/h
2784 20-04-2020 15:55:00 18.9 C 5.02 g/m*3 18.9 C 22.5 km/h
2785 20-04-2020 16:00:00 19 C 4.89 g/m*3 19 C 19.3 km/h
2786 20-04-2020 16:05:00 19.1 C 5.08 g/m*3 19.1 C 19.3 km/h
2787 20-04-2020 16:10:00 19.2 C 4.95 g/m*3 19.2 C 20.9 km/h
2788 20-04-2020 16:15:00 19.3 C 4.98 g/m*3 19.3 C 17.7 km/h
2789 20-04-2020 16:20:00 19.5 C 5.03 g/m*3 19.5 C 14.5 km/h
2790 20-04-2020 16:25:00 19.7 C 5.26 g/m*3 19.7 C 24.1 km/h
2791 20-04-2020 16:30:00 19.9 C 5.15 g/m*3 19.9 C 27.4 km/h
2792 20-04-2020 16:35:00 19.6 C 5.06 g/m*3 19.6 C 27.4 km/h
2793 20-04-2020 16:40:00 19.3 C 5.14 g/m*3 19.3 C 19.3 km/h
2794 20-04-2020 16:45:00 19.7 C 5.43 g/m*3 19.7 C 14.5 km/h
2795 20-04-2020 16:50:00 19.8 C 5.12 g/m*3 19.8 C 19.3 km/h
2796 20-04-2020 16:55:00 19.9 C 5.5 g/m*3 19.9 C 12.9 km/h
2797 20-04-2020 17:00:00 20.3 C 5.45 g/m*3 20.3 C 8.1 km/h
2798 20-04-2020 17:05:00 20.6 C 5.55 g/m*3 20.6 C 11.3 km/h
2799 20-04-2020 17:10:00 20.3 C 5.28 g/m*3 20.3 C 17.7 km/h
2800 20-04-2020 17:15:00 20.1 C 5.39 g/m*3 20.1 C 22.5 km/h
Sensor: Nr:Datum:Temp:Abs-Feuchte:Windchill:Wind:
Aussen-T/F 2801 20-04-2020 17:20:00 20.1 C 5.21 g/m*3 20.1 C 22.5 km/h
2802 20-04-2020 17:25:00 19.9 C 5.33 g/m*3 19.9 C 25.7 km/h
2803 20-04-2020 17:30:00 19.5 C 5.37 g/m*3 19.5 C 22.5 km/h
2804 20-04-2020 17:35:00 19.2 C 5.61 g/m*3 19.2 C 33.8 km/h
2805 20-04-2020 17:40:00 19.3 C 5.47 g/m*3 19.3 C 24.1 km/h
2806 20-04-2020 17:45:00 19.6 C 5.57 g/m*3 19.6 C 12.9 km/h
2807 20-04-2020 17:50:00 19.7 C 5.6 g/m*3 19.7 C 19.3 km/h
2808 20-04-2020 17:55:00 19.4 C 6.01 g/m*3 19.4 C 25.7 km/h
2809 20-04-2020 18:00:00 19.2 C 6.93 g/m*3 19.2 C 24.1 km/h
2810 20-04-2020 18:05:00 18.5 C 5.7 g/m*3 18.5 C 27.4 km/h
2811 20-04-2020 18:10:00 18.4 C 6.13 g/m*3 18.4 C 12.9 km/h
2812 20-04-2020 18:15:00 18.6 C 5.89 g/m*3 18.6 C 20.9 km/h
2813 20-04-2020 18:20:00 18.7 C 5.76 g/m*3 18.7 C 19.3 km/h
2814 20-04-2020 18:25:00 18.6 C 5.73 g/m*3 18.6 C 20.9 km/h
2815 20-04-2020 18:30:00 18.6 C 5.57 g/m*3 18.6 C 27.4 km/h
2816 20-04-2020 18:35:00 18.6 C 5.57 g/m*3 18.6 C 22.5 km/h
2817 20-04-2020 18:40:00 18.7 C 5.6 g/m*3 18.7 C 22.5 km/h
2818 20-04-2020 18:45:00 18.6 C 5.89 g/m*3 18.6 C 17.7 km/h
2819 20-04-2020 18:50:00 18.7 C 5.6 g/m*3 18.7 C 20.9 km/h
2820 20-04-2020 18:55:00 18.8 C 5.64 g/m*3 18.8 C 19.3 km/h
2821 20-04-2020 19:00:00 18.6 C 5.57 g/m*3 18.6 C 20.9 km/h
2822 20-04-2020 19:05:00 18.4 C 5.5 g/m*3 18.4 C 24.1 km/h
2823 20-04-2020 19:10:00 18.2 C 5.91 g/m*3 18.2 C 14.5 km/h
2824 20-04-2020 19:15:00 18.2 C 5.44 g/m*3 18.2 C 14.5 km/h
2825 20-04-2020 19:20:00 17.9 C 5.5 g/m*3 17.9 C 14.5 km/h
Sensor: Nr:Datum:Temp:Abs-Feuchte:Windchill:Wind:
Aussen-T/F 2826 20-04-2020 19:25:00 17.6 C 5.55 g/m*3 17.6 C 27.4 km/h
2827 20-04-2020 19:30:00 17.4 C 5.48 g/m*3 17.4 C 12.9 km/h
2828 20-04-2020 19:35:00 17.4 C 5.48 g/m*3 17.4 C 12.9 km/h
2829 20-04-2020 19:40:00 17.2 C 5.27 g/m*3 17.2 C 16.1 km/h
2830 20-04-2020 19:45:00 17 C 5.35 g/m*3 17 C 12.9 km/h
2831 20-04-2020 19:50:00 16.8 C 5.15 g/m*3 16.8 C 9.7 km/h
2832 20-04-2020 19:55:00 16.7 C 5.12 g/m*3 16.7 C 16.1 km/h
2833 20-04-2020 20:00:00 16.5 C 5.34 g/m*3 16.5 C 14.5 km/h
2834 20-04-2020 20:05:00 16.3 C 5.27 g/m*3 16.3 C 16.1 km/h
2835 20-04-2020 20:10:00 16.1 C 5.21 g/m*3 16.1 C 17.7 km/h
2836 20-04-2020 20:15:00 15.9 C 5.28 g/m*3 15.9 C 3.2 km/h
2837 20-04-2020 20:20:00 15.7 C 5.35 g/m*3 15.7 C 16.1 km/h
2838 20-04-2020 20:25:00 15.4 C 5.52 g/m*3 15.4 C 4.8 km/h
2839 20-04-2020 20:30:00 15.1 C 5.42 g/m*3 15.1 C 4.8 km/h
2840 20-04-2020 20:35:00 14.8 C 5.19 g/m*3 14.8 C 6.4 km/h
2841 20-04-2020 20:40:00 14.7 C 5.04 g/m*3 14.7 C 6.4 km/h
2842 20-04-2020 20:45:00 14.7 C 5.16 g/m*3 14.7 C 16.1 km/h
2843 20-04-2020 20:50:00 14.6 C 5.26 g/m*3 14.6 C 3.2 km/h
2844 20-04-2020 20:55:00 14.4 C 5.19 g/m*3 14.4 C 8.1 km/h
2845 20-04-2020 21:00:00 14.2 C 5.13 g/m*3 14.2 C 4.8 km/h
2846 20-04-2020 21:05:00 14.1 C 4.98 g/m*3 14.1 C 6.4 km/h
2847 20-04-2020 21:10:00 13.9 C 5.15 g/m*3 13.9 C 3.2 km/h
2848 20-04-2020 21:15:00 13.7 C 5.21 g/m*3 13.7 C 4.8 km/h
2849 20-04-2020 21:20:00 13.4 C 5.23 g/m*3 13.4 C 1.6 km/h
2850 20-04-2020 21:25:00 13.2 C 5.05 g/m*3 13.2 C 6.4 km/h
Sensor: Nr:Datum:Temp:Abs-Feuchte:Windchill:Wind:
Aussen-T/F 2851 20-04-2020 21:30:00 13.1 C 5.36 g/m*3 13.1 C 1.6 km/h
2852 20-04-2020 21:35:00 12.7 C 5.01 g/m*3 12.7 C 8.1 km/h
2853 20-04-2020 21:40:00 12.6 C 5.09 g/m*3 12.6 C 8.1 km/h
2854 20-04-2020 21:45:00 12.4 C 5.14 g/m*3 12.4 C 1.6 km/h
2855 20-04-2020 21:50:00 12.6 C 4.98 g/m*3 12.6 C 11.3 km/h
2856 20-04-2020 21:55:00 12.7 C 4.9 g/m*3 12.7 C 4.8 km/h
2857 20-04-2020 22:00:00 12.7 C 5.23 g/m*3 12.7 C 1.6 km/h
2858 20-04-2020 22:05:00 12.6 C 4.98 g/m*3 12.6 C 4.8 km/h
2859 20-04-2020 22:10:00 12.6 C 4.98 g/m*3 12.6 C 4.8 km/h
2860 20-04-2020 22:15:00 12.5 C 5.28 g/m*3 12.5 C 4.8 km/h
2861 20-04-2020 22:20:00 12.3 C 5.1 g/m*3 12.3 C 11.3 km/h
2862 20-04-2020 22:25:00 12.4 C 4.92 g/m*3 12.4 C 11.3 km/h
2863 20-04-2020 22:30:00 12.4 C 4.92 g/m*3 12.4 C 4.8 km/h
2864 20-04-2020 22:35:00 12.4 C 5.03 g/m*3 12.4 C 3.2 km/h
2865 20-04-2020 22:40:00 12.4 C 4.92 g/m*3 12.4 C 8.1 km/h
2866 20-04-2020 22:45:00 12.4 C 5.03 g/m*3 12.4 C 1.6 km/h
2867 20-04-2020 22:50:00 12.2 C 5.07 g/m*3 12.2 C 4.8 km/h
2868 20-04-2020 22:55:00 12 C 5.01 g/m*3 12 C 8.1 km/h
2869 20-04-2020 23:00:00 11.9 C 4.87 g/m*3 11.9 C 6.4 km/h
2870 20-04-2020 23:05:00 11.8 C 4.95 g/m*3 11.8 C 6.4 km/h
2871 20-04-2020 23:10:00 11.8 C 4.84 g/m*3 11.8 C 8.1 km/h
2872 20-04-2020 23:15:00 11.7 C 4.71 g/m*3 11.7 C 0 km/h
2873 20-04-2020 23:20:00 11.8 C 5.05 g/m*3 11.8 C 1.6 km/h
2874 20-04-2020 23:25:00 11.6 C 4.89 g/m*3 11.6 C 4.8 km/h
2875 20-04-2020 23:30:00 11.6 C 4.78 g/m*3 11.6 C 8.1 km/h
Sensor: Nr:Datum:Temp:Abs-Feuchte:Windchill:Wind:
Aussen-T/F 2876 20-04-2020 23:35:00 11.7 C 4.81 g/m*3 11.7 C 4.8 km/h
2877 20-04-2020 23:40:00 11.7 C 4.71 g/m*3 11.7 C 4.8 km/h
2878 20-04-2020 23:45:00 11.6 C 4.68 g/m*3 11.6 C 12.9 km/h
2879 20-04-2020 23:50:00 11.6 C 4.89 g/m*3 11.6 C 3.2 km/h
2880 20-04-2020 23:55:00 11.5 C 4.75 g/m*3 11.5 C 9.7 km/h
2881 21-04-2020 00:00:00 11.4 C 4.82 g/m*3 11.4 C 4.8 km/h
2882 21-04-2020 00:05:00 11.3 C 4.9 g/m*3 11.3 C 8.1 km/h
2883 21-04-2020 00:10:00 11.1 C 4.83 g/m*3 11.1 C 3.2 km/h
2884 21-04-2020 00:15:00 11.2 C 4.66 g/m*3 11.2 C 20.9 km/h
2885 21-04-2020 00:20:00 11.2 C 4.76 g/m*3 11.2 C 0 km/h
2886 21-04-2020 00:25:00 11.1 C 4.73 g/m*3 11.1 C 4.8 km/h
2887 21-04-2020 00:30:00 10.9 C 4.97 g/m*3 10.41 C 6.4 km/h
2888 21-04-2020 00:35:00 10.7 C 4.81 g/m*3 10.7 C 3.2 km/h
2889 21-04-2020 00:40:00 10.6 C 4.68 g/m*3 9.4 C 9.7 km/h
2890 21-04-2020 00:45:00 10.8 C 4.84 g/m*3 9.64 C 9.7 km/h
2891 21-04-2020 00:50:00 10.8 C 4.94 g/m*3 10.8 C 1.6 km/h
2892 21-04-2020 00:55:00 10.6 C 4.98 g/m*3 10.6 C 0 km/h
2893 21-04-2020 01:00:00 10.3 C 4.88 g/m*3 10.3 C 1.6 km/h
2894 21-04-2020 01:05:00 10 C 4.98 g/m*3 10 C 3.2 km/h
2895 21-04-2020 01:10:00 9.8 C 5.01 g/m*3 9.8 C 1.6 km/h
2896 21-04-2020 01:15:00 9.5 C 5.01 g/m*3 9.5 C 1.6 km/h
2897 21-04-2020 01:20:00 9.3 C 4.94 g/m*3 9.3 C 1.6 km/h
2898 21-04-2020 01:25:00 9.2 C 5 g/m*3 9.2 C 0 km/h
2899 21-04-2020 01:30:00 9.3 C 5.03 g/m*3 7.85 C 9.7 km/h
2900 21-04-2020 01:35:00 9.2 C 5 g/m*3 9.2 C 3.2 km/h
Sensor: Nr:Datum:Temp:Abs-Feuchte:Windchill:Wind:
Aussen-T/F 2901 21-04-2020 01:40:00 9.1 C 5.06 g/m*3 9.1 C 0 km/h
2902 21-04-2020 01:45:00 8.9 C 4.91 g/m*3 8.9 C 3.2 km/h
2903 21-04-2020 01:50:00 8.9 C 4.99 g/m*3 8.9 C 3.2 km/h
2904 21-04-2020 01:55:00 8.8 C 5.05 g/m*3 8.8 C 0 km/h
2905 21-04-2020 02:00:00 8.8 C 4.79 g/m*3 7.58 C 8.1 km/h
2906 21-04-2020 02:05:00 9.2 C 5.09 g/m*3 9.2 C 3.2 km/h
2907 21-04-2020 02:10:00 9.2 C 5.09 g/m*3 8.45 C 6.4 km/h
2908 21-04-2020 02:15:00 9.3 C 4.85 g/m*3 9.3 C 4.8 km/h
2909 21-04-2020 02:20:00 9.4 C 4.97 g/m*3 7.7 C 11.3 km/h
2910 21-04-2020 02:25:00 9.5 C 4.92 g/m*3 9.5 C 3.2 km/h
2911 21-04-2020 02:30:00 9.5 C 4.92 g/m*3 8.79 C 6.4 km/h
2912 21-04-2020 02:35:00 9.5 C 5.1 g/m*3 9.5 C 1.6 km/h
2913 21-04-2020 02:40:00 9.5 C 5.01 g/m*3 8.79 C 6.4 km/h
2914 21-04-2020 02:45:00 9.7 C 4.98 g/m*3 8.33 C 9.7 km/h
2915 21-04-2020 02:50:00 9.7 C 4.89 g/m*3 9.7 C 3.2 km/h
2916 21-04-2020 02:55:00 9.7 C 4.98 g/m*3 9.7 C 1.6 km/h
2917 21-04-2020 03:00:00 9.7 C 4.79 g/m*3 8.33 C 9.7 km/h
2918 21-04-2020 03:05:00 9.8 C 4.92 g/m*3 9.8 C 3.2 km/h
2919 21-04-2020 03:10:00 9.8 C 5.01 g/m*3 9.14 C 6.4 km/h
2920 21-04-2020 03:15:00 9.7 C 5.07 g/m*3 9.7 C 4.8 km/h
2921 21-04-2020 03:20:00 9.6 C 4.86 g/m*3 8.52 C 8.1 km/h
2922 21-04-2020 03:25:00 9.7 C 4.89 g/m*3 8.06 C 11.3 km/h
2923 21-04-2020 03:30:00 9.7 C 5.07 g/m*3 9.7 C 4.8 km/h
2924 21-04-2020 03:35:00 9.6 C 5.13 g/m*3 9.6 C 1.6 km/h
2925 21-04-2020 03:40:00 9.4 C 5.16 g/m*3 8.68 C 6.4 km/h
Sensor: Nr:Datum:Temp:Abs-Feuchte:Windchill:Wind:
Aussen-T/F 2926 21-04-2020 03:45:00 9.2 C 5 g/m*3 9.2 C 3.2 km/h
2927 21-04-2020 03:50:00 9.1 C 4.88 g/m*3 7.93 C 8.1 km/h
2928 21-04-2020 03:55:00 9.2 C 5.18 g/m*3 9.2 C 1.6 km/h
2929 21-04-2020 04:00:00 9.1 C 5.15 g/m*3 9.1 C 1.6 km/h
2930 21-04-2020 04:05:00 8.9 C 5.08 g/m*3 8.9 C 4.8 km/h
2931 21-04-2020 04:10:00 8.8 C 5.14 g/m*3 8.8 C 1.6 km/h
2932 21-04-2020 04:15:00 8.5 C 5.21 g/m*3 8.5 C 3.2 km/h
2933 21-04-2020 04:20:00 8.3 C 5.14 g/m*3 7.41 C 6.4 km/h
2934 21-04-2020 04:25:00 8.3 C 5.06 g/m*3 6.37 C 11.3 km/h
2935 21-04-2020 04:30:00 8.3 C 5.06 g/m*3 8.3 C 3.2 km/h
2936 21-04-2020 04:35:00 8.3 C 5.23 g/m*3 8.3 C 0 km/h
2937 21-04-2020 04:40:00 8.2 C 5.11 g/m*3 8.2 C 3.2 km/h
2938 21-04-2020 04:45:00 8.2 C 5.19 g/m*3 8.2 C 1.6 km/h
2939 21-04-2020 04:50:00 8.1 C 5.16 g/m*3 8.1 C 3.2 km/h
2940 21-04-2020 04:55:00 8.1 C 5.08 g/m*3 6.42 C 9.7 km/h
2941 21-04-2020 05:00:00 8.1 C 5.24 g/m*3 8.1 C 1.6 km/h
2942 21-04-2020 05:05:00 8.1 C 5.08 g/m*3 6.42 C 9.7 km/h
2943 21-04-2020 05:10:00 8.2 C 5.11 g/m*3 8.2 C 3.2 km/h
2944 21-04-2020 05:15:00 8.2 C 5.19 g/m*3 8.2 C 3.2 km/h
2945 21-04-2020 05:20:00 8.1 C 5.16 g/m*3 8.1 C 4.8 km/h
2946 21-04-2020 05:25:00 8.1 C 5.24 g/m*3 8.1 C 3.2 km/h
2947 21-04-2020 05:30:00 7.9 C 5.17 g/m*3 7.9 C 1.6 km/h
2948 21-04-2020 05:35:00 7.8 C 5.22 g/m*3 7.8 C 0 km/h
2949 21-04-2020 05:40:00 7.6 C 5.32 g/m*3 7.6 C 1.6 km/h
2950 21-04-2020 05:45:00 7.3 C 5.14 g/m*3 7.3 C 1.6 km/h
Sensor: Nr:Datum:Temp:Abs-Feuchte:Windchill:Wind:
Aussen-T/F 2951 21-04-2020 05:50:00 7.3 C 5.21 g/m*3 7.3 C 1.6 km/h
2952 21-04-2020 05:55:00 7.2 C 5.26 g/m*3 7.2 C 1.6 km/h
2953 21-04-2020 06:00:00 7.1 C 5.23 g/m*3 7.1 C 1.6 km/h
2954 21-04-2020 06:05:00 7.2 C 5.26 g/m*3 7.2 C 3.2 km/h
2955 21-04-2020 06:10:00 7.2 C 5.26 g/m*3 7.2 C 0 km/h
2956 21-04-2020 06:15:00 7.2 C 5.26 g/m*3 6.13 C 6.4 km/h
2957 21-04-2020 06:20:00 7.2 C 5.18 g/m*3 7.2 C 3.2 km/h
2958 21-04-2020 06:25:00 7.2 C 5.26 g/m*3 7.2 C 3.2 km/h
2959 21-04-2020 06:30:00 7.1 C 5.3 g/m*3 7.1 C 3.2 km/h
2960 21-04-2020 06:35:00 6.9 C 5.23 g/m*3 6.9 C 1.6 km/h
2961 21-04-2020 06:40:00 6.8 C 5.2 g/m*3 6.8 C 3.2 km/h
2962 21-04-2020 06:45:00 6.8 C 5.28 g/m*3 6.8 C 0 km/h
2963 21-04-2020 06:50:00 6.8 C 5.28 g/m*3 6.8 C 0 km/h
2964 21-04-2020 06:55:00 6.7 C 5.32 g/m*3 6.7 C 0 km/h
2965 21-04-2020 07:00:00 6.7 C 5.32 g/m*3 6.7 C 0 km/h
2966 21-04-2020 07:05:00 6.7 C 5.32 g/m*3 6.7 C 0 km/h
2967 21-04-2020 07:10:00 6.7 C 5.32 g/m*3 6.7 C 0 km/h
2968 21-04-2020 07:15:00 6.7 C 5.32 g/m*3 6.7 C 0 km/h
2969 21-04-2020 07:20:00 6.8 C 5.35 g/m*3 6.8 C 0 km/h
2970 21-04-2020 07:25:00 6.8 C 5.35 g/m*3 6.8 C 3.2 km/h
2971 21-04-2020 07:30:00 6.9 C 5.31 g/m*3 6.9 C 1.6 km/h
2972 21-04-2020 07:35:00 6.9 C 5.31 g/m*3 5.34 C 8.1 km/h
2973 21-04-2020 07:40:00 7.2 C 5.26 g/m*3 7.2 C 3.2 km/h
2974 21-04-2020 07:45:00 7.4 C 5.33 g/m*3 7.4 C 4.8 km/h
2975 21-04-2020 07:50:00 7.4 C 5.41 g/m*3 7.4 C 3.2 km/h
Sensor: Nr:Datum:Temp:Abs-Feuchte:Windchill:Wind:
Aussen-T/F 2976 21-04-2020 07:55:00 7.4 C 5.49 g/m*3 7.4 C 1.6 km/h
2977 21-04-2020 08:00:00 7.4 C 5.33 g/m*3 7.4 C 4.8 km/h
2978 21-04-2020 08:05:00 7.7 C 5.43 g/m*3 6.28 C 8.1 km/h
2979 21-04-2020 08:10:00 7.8 C 5.47 g/m*3 6.83 C 6.4 km/h
2980 21-04-2020 08:15:00 7.9 C 5.5 g/m*3 6.52 C 8.1 km/h
2981 21-04-2020 08:20:00 8.1 C 5.41 g/m*3 8.1 C 4.8 km/h
2982 21-04-2020 08:25:00 8.2 C 5.61 g/m*3 8.2 C 3.2 km/h
2983 21-04-2020 08:30:00 8.1 C 5.57 g/m*3 8.1 C 1.6 km/h
2984 21-04-2020 08:35:00 8.1 C 5.57 g/m*3 8.1 C 3.2 km/h
2985 21-04-2020 08:40:00 8.1 C 5.66 g/m*3 8.1 C 4.8 km/h
2986 21-04-2020 08:45:00 8.1 C 5.41 g/m*3 7.17 C 6.4 km/h
2987 21-04-2020 08:50:00 8.3 C 5.23 g/m*3 6.37 C 11.3 km/h
2988 21-04-2020 08:55:00 8.7 C 5.45 g/m*3 8.7 C 3.2 km/h
2989 21-04-2020 09:00:00 8.9 C 5.52 g/m*3 7.69 C 8.1 km/h
2990 21-04-2020 09:05:00 9.1 C 5.77 g/m*3 9.1 C 3.2 km/h
2991 21-04-2020 09:10:00 9.3 C 5.57 g/m*3 6.92 C 16.1 km/h
2992 21-04-2020 09:15:00 9.5 C 5.55 g/m*3 9.5 C 4.8 km/h
2993 21-04-2020 09:20:00 9.7 C 5.25 g/m*3 9.02 C 6.4 km/h
2994 21-04-2020 09:25:00 10 C 5.45 g/m*3 9.37 C 6.4 km/h
2995 21-04-2020 09:30:00 10.2 C 5.23 g/m*3 8.66 C 11.3 km/h
2996 21-04-2020 09:35:00 10.5 C 5.53 g/m*3 8.8 C 12.9 km/h
2997 21-04-2020 09:40:00 10.7 C 5.3 g/m*3 9.26 C 11.3 km/h
2998 21-04-2020 09:45:00 10.8 C 5.24 g/m*3 9.64 C 9.7 km/h
2999 21-04-2020 09:50:00 11.1 C 5.34 g/m*3 11.1 C 4.8 km/h
3000 21-04-2020 09:55:00 11.2 C 5.47 g/m*3 11.2 C 8.1 km/h
Sensor: Nr:Datum:Temp:Abs-Feuchte:Windchill:Wind:
Aussen-T/F 3001 21-04-2020 10:00:00 11.3 C 5.51 g/m*3 11.3 C 6.4 km/h
3002 21-04-2020 10:05:00 11.4 C 5.34 g/m*3 11.4 C 14.5 km/h
3003 21-04-2020 10:10:00 11.7 C 5.54 g/m*3 11.7 C 11.3 km/h
3004 21-04-2020 10:15:00 11.7 C 5.44 g/m*3 11.7 C 11.3 km/h
3005 21-04-2020 10:20:00 11.9 C 5.19 g/m*3 11.9 C 17.7 km/h
3006 21-04-2020 10:25:00 12.2 C 5.18 g/m*3 12.2 C 11.3 km/h
3007 21-04-2020 10:30:00 12.5 C 5.28 g/m*3 12.5 C 12.9 km/h
3008 21-04-2020 10:35:00 12.7 C 5.34 g/m*3 12.7 C 9.7 km/h
3009 21-04-2020 10:40:00 12.8 C 5.15 g/m*3 12.8 C 20.9 km/h
3010 21-04-2020 10:45:00 13.1 C 5.25 g/m*3 13.1 C 11.3 km/h
3011 21-04-2020 10:50:00 13.3 C 5.43 g/m*3 13.3 C 16.1 km/h
3012 21-04-2020 10:55:00 13.4 C 5.23 g/m*3 13.4 C 6.4 km/h
3013 21-04-2020 11:00:00 13.6 C 5.18 g/m*3 13.6 C 16.1 km/h
3014 21-04-2020 11:05:00 13.8 C 5.24 g/m*3 13.8 C 14.5 km/h
3015 21-04-2020 11:10:00 14 C 5.43 g/m*3 14 C 9.7 km/h
3016 21-04-2020 11:15:00 14.2 C 5.25 g/m*3 14.2 C 11.3 km/h
3017 21-04-2020 11:20:00 14.4 C 5.19 g/m*3 14.4 C 14.5 km/h
3018 21-04-2020 11:25:00 14.5 C 5.35 g/m*3 14.5 C 12.9 km/h
3019 21-04-2020 11:30:00 14.6 C 5.26 g/m*3 14.6 C 19.3 km/h
3020 21-04-2020 11:35:00 14.7 C 5.29 g/m*3 14.7 C 14.5 km/h
3021 21-04-2020 11:40:00 14.8 C 5.32 g/m*3 14.8 C 19.3 km/h
3022 21-04-2020 11:45:00 15 C 5.26 g/m*3 15 C 19.3 km/h
3023 21-04-2020 11:50:00 15.2 C 5.32 g/m*3 15.2 C 14.5 km/h
3024 21-04-2020 11:55:00 15.4 C 5.26 g/m*3 15.4 C 11.3 km/h
3025 21-04-2020 12:00:00 15.6 C 5.45 g/m*3 15.6 C 12.9 km/h
Sensor: Nr:Datum:Temp:Abs-Feuchte:Windchill:Wind:
Aussen-T/F 3026 21-04-2020 12:05:00 15.7 C 5.35 g/m*3 15.7 C 16.1 km/h
3027 21-04-2020 12:10:00 15.8 C 5.12 g/m*3 15.8 C 14.5 km/h
3028 21-04-2020 12:15:00 15.9 C 5.15 g/m*3 15.9 C 19.3 km/h
3029 21-04-2020 12:20:00 16.1 C 5.07 g/m*3 16.1 C 17.7 km/h
3030 21-04-2020 12:25:00 16.1 C 5.21 g/m*3 16.1 C 25.7 km/h
3031 21-04-2020 12:30:00 16.2 C 5.1 g/m*3 16.2 C 17.7 km/h
3032 21-04-2020 12:35:00 16.3 C 5.13 g/m*3 16.3 C 17.7 km/h
3033 21-04-2020 12:40:00 16.3 C 5.13 g/m*3 16.3 C 19.3 km/h
3034 21-04-2020 12:45:00 16.4 C 5.16 g/m*3 16.4 C 17.7 km/h
3035 21-04-2020 12:50:00 16.6 C 5.23 g/m*3 16.6 C 12.9 km/h
3036 21-04-2020 12:55:00 16.7 C 5.26 g/m*3 16.7 C 11.3 km/h
3037 21-04-2020 13:00:00 16.8 C 5.15 g/m*3 16.8 C 24.1 km/h
3038 21-04-2020 13:05:00 16.9 C 5.18 g/m*3 16.9 C 14.5 km/h
3039 21-04-2020 13:10:00 17.1 C 5.24 g/m*3 17.1 C 16.1 km/h
3040 21-04-2020 13:15:00 17.2 C 5.27 g/m*3 17.2 C 14.5 km/h
3041 21-04-2020 13:20:00 17.2 C 5.13 g/m*3 17.2 C 17.7 km/h
3042 21-04-2020 13:25:00 17.3 C 5.3 g/m*3 17.3 C 17.7 km/h
3043 21-04-2020 13:30:00 17.4 C 5.34 g/m*3 17.4 C 9.7 km/h
3044 21-04-2020 13:35:00 17.4 C 5.19 g/m*3 17.4 C 12.9 km/h
3045 21-04-2020 13:40:00 17.7 C 5.28 g/m*3 17.7 C 22.5 km/h
3046 21-04-2020 13:45:00 17.8 C 5.16 g/m*3 17.8 C 20.9 km/h
3047 21-04-2020 13:50:00 17.9 C 5.04 g/m*3 17.9 C 16.1 km/h
3048 21-04-2020 13:55:00 18.1 C 5.25 g/m*3 18.1 C 16.1 km/h
3049 21-04-2020 14:00:00 18.3 C 5.32 g/m*3 18.3 C 16.1 km/h
3050 21-04-2020 14:05:00 18.4 C 5.19 g/m*3 18.4 C 19.3 km/h
Sensor: Nr:Datum:Temp:Abs-Feuchte:Windchill:Wind:
Aussen-T/F 3051 21-04-2020 14:10:00 18.5 C 5.22 g/m*3 18.5 C 22.5 km/h
3052 21-04-2020 14:15:00 18.7 C 5.12 g/m*3 18.7 C 25.7 km/h
3053 21-04-2020 14:20:00 18.8 C 5.31 g/m*3 18.8 C 16.1 km/h
3054 21-04-2020 14:25:00 18.8 C 5.15 g/m*3 18.8 C 24.1 km/h
3055 21-04-2020 14:30:00 18.9 C 5.18 g/m*3 18.9 C 24.1 km/h
3056 21-04-2020 14:35:00 19.1 C 5.41 g/m*3 19.1 C 17.7 km/h
3057 21-04-2020 14:40:00 19.3 C 5.31 g/m*3 19.3 C 19.3 km/h
3058 21-04-2020 14:45:00 19.4 C 5.34 g/m*3 19.4 C 17.7 km/h
3059 21-04-2020 14:50:00 19.6 C 5.4 g/m*3 19.6 C 17.7 km/h
3060 21-04-2020 14:55:00 19.7 C 5.26 g/m*3 19.7 C 14.5 km/h
3061 21-04-2020 15:00:00 19.8 C 5.3 g/m*3 19.8 C 12.9 km/h
3062 21-04-2020 15:05:00 19.9 C 5.33 g/m*3 19.9 C 14.5 km/h
3063 21-04-2020 15:10:00 20 C 5.18 g/m*3 20 C 27.4 km/h
3064 21-04-2020 15:15:00 19.9 C 5.33 g/m*3 19.9 C 30.6 km/h
3065 21-04-2020 15:20:00 20 C 5.36 g/m*3 20 C 30.6 km/h
3066 21-04-2020 15:25:00 20.1 C 5.39 g/m*3 20.1 C 30.6 km/h
3067 21-04-2020 15:30:00 20.2 C 5.42 g/m*3 20.2 C 17.7 km/h
3068 21-04-2020 15:35:00 20.3 C 5.28 g/m*3 20.3 C 27.4 km/h
3069 21-04-2020 15:40:00 20.5 C 5.52 g/m*3 20.5 C 25.7 km/h
3070 21-04-2020 15:45:00 20.7 C 5.58 g/m*3 20.7 C 22.5 km/h
3071 21-04-2020 15:50:00 20.6 C 5.37 g/m*3 20.6 C 25.7 km/h
3072 21-04-2020 15:55:00 20.6 C 5.37 g/m*3 20.6 C 25.7 km/h
3073 21-04-2020 16:00:00 20.5 C 5.34 g/m*3 20.5 C 30.6 km/h
3074 21-04-2020 16:05:00 20.7 C 5.58 g/m*3 20.7 C 30.6 km/h
3075 21-04-2020 16:10:00 20.7 C 5.4 g/m*3 20.7 C 22.5 km/h
Sensor: Nr:Datum:Temp:Abs-Feuchte:Windchill:Wind:
Aussen-T/F 3076 21-04-2020 16:15:00 20.7 C 5.58 g/m*3 20.7 C 19.3 km/h
3077 21-04-2020 16:20:00 20.7 C 5.4 g/m*3 20.7 C 30.6 km/h
3078 21-04-2020 16:25:00 20.7 C 5.58 g/m*3 20.7 C 25.7 km/h
3079 21-04-2020 16:30:00 20.8 C 5.43 g/m*3 20.8 C 29 km/h
3080 21-04-2020 16:35:00 20.9 C 5.65 g/m*3 20.9 C 25.7 km/h
3081 21-04-2020 16:40:00 21 C 5.31 g/m*3 21 C 20.9 km/h
3082 21-04-2020 16:45:00 21.1 C 5.53 g/m*3 21.1 C 17.7 km/h
3083 21-04-2020 16:50:00 20.9 C 5.28 g/m*3 20.9 C 25.7 km/h
3084 21-04-2020 16:55:00 21 C 5.68 g/m*3 21 C 29 km/h
3085 21-04-2020 17:00:00 21.1 C 5.53 g/m*3 21.1 C 20.9 km/h
3086 21-04-2020 17:05:00 21.3 C 5.59 g/m*3 21.3 C 20.9 km/h
3087 21-04-2020 17:10:00 21.5 C 5.85 g/m*3 21.5 C 9.7 km/h
3088 21-04-2020 17:15:00 21.8 C 5.76 g/m*3 21.8 C 19.3 km/h
3089 21-04-2020 17:20:00 21.7 C 5.53 g/m*3 21.7 C 19.3 km/h
3090 21-04-2020 17:25:00 21.2 C 5.56 g/m*3 21.2 C 29 km/h
3091 21-04-2020 17:30:00 20.9 C 5.46 g/m*3 20.9 C 27.4 km/h
3092 21-04-2020 17:35:00 20.7 C 5.58 g/m*3 20.7 C 24.1 km/h
3093 21-04-2020 17:40:00 20.8 C 5.79 g/m*3 20.8 C 19.3 km/h
3094 21-04-2020 17:45:00 20.8 C 5.61 g/m*3 20.8 C 16.1 km/h
3095 21-04-2020 17:50:00 20.8 C 5.79 g/m*3 20.8 C 22.5 km/h
3096 21-04-2020 17:55:00 21.1 C 5.9 g/m*3 21.1 C 19.3 km/h
3097 21-04-2020 18:00:00 20.8 C 5.61 g/m*3 20.8 C 27.4 km/h
3098 21-04-2020 18:05:00 20.8 C 5.61 g/m*3 20.8 C 17.7 km/h
3099 21-04-2020 18:10:00 21.1 C 5.9 g/m*3 21.1 C 12.9 km/h
3100 21-04-2020 18:15:00 21.2 C 5.74 g/m*3 21.2 C 16.1 km/h
Sensor: Nr:Datum:Temp:Abs-Feuchte:Windchill:Wind:
Aussen-T/F 3101 21-04-2020 18:20:00 20.9 C 5.83 g/m*3 20.9 C 14.5 km/h
3102 21-04-2020 18:25:00 20.8 C 5.79 g/m*3 20.8 C 20.9 km/h
3103 21-04-2020 18:30:00 20.7 C 5.76 g/m*3 20.7 C 24.1 km/h
3104 21-04-2020 18:35:00 20.7 C 5.76 g/m*3 20.7 C 14.5 km/h
3105 21-04-2020 18:40:00 20.7 C 5.94 g/m*3 20.7 C 14.5 km/h
3106 21-04-2020 18:45:00 20.7 C 5.94 g/m*3 20.7 C 14.5 km/h
3107 21-04-2020 18:50:00 20.8 C 5.98 g/m*3 20.8 C 8.1 km/h
3108 21-04-2020 18:55:00 20.9 C 6.01 g/m*3 20.9 C 14.5 km/h
3109 21-04-2020 19:00:00 20.7 C 5.94 g/m*3 20.7 C 20.9 km/h
3110 21-04-2020 19:05:00 20.4 C 5.84 g/m*3 20.4 C 17.7 km/h
3111 21-04-2020 19:10:00 20.1 C 5.74 g/m*3 20.1 C 19.3 km/h
3112 21-04-2020 19:15:00 20 C 5.88 g/m*3 20 C 19.3 km/h
3113 21-04-2020 19:20:00 19.9 C 6.01 g/m*3 19.9 C 16.1 km/h
3114 21-04-2020 19:25:00 19.7 C 5.94 g/m*3 19.7 C 16.1 km/h
3115 21-04-2020 19:30:00 19.5 C 5.87 g/m*3 19.5 C 17.7 km/h
3116 21-04-2020 19:35:00 19.3 C 5.81 g/m*3 19.3 C 16.1 km/h
3117 21-04-2020 19:40:00 19.1 C 5.74 g/m*3 19.1 C 16.1 km/h
3118 21-04-2020 19:45:00 18.8 C 5.8 g/m*3 18.8 C 9.7 km/h
3119 21-04-2020 19:50:00 18.8 C 5.8 g/m*3 18.8 C 14.5 km/h
3120 21-04-2020 19:55:00 18.7 C 6.24 g/m*3 18.7 C 8.1 km/h
3121 21-04-2020 20:00:00 18.5 C 5.85 g/m*3 18.5 C 11.3 km/h
3122 21-04-2020 20:05:00 18.3 C 5.79 g/m*3 18.3 C 8.1 km/h
3123 21-04-2020 20:10:00 18.2 C 6.06 g/m*3 18.2 C 6.4 km/h
3124 21-04-2020 20:15:00 17.9 C 5.95 g/m*3 17.9 C 8.1 km/h
3125 21-04-2020 20:20:00 17.6 C 5.85 g/m*3 17.6 C 8.1 km/h
Sensor: Nr:Datum:Temp:Abs-Feuchte:Windchill:Wind:
Aussen-T/F 3126 21-04-2020 20:25:00 17.3 C 5.89 g/m*3 17.3 C 4.8 km/h
3127 21-04-2020 20:30:00 17.1 C 5.82 g/m*3 17.1 C 6.4 km/h
3128 21-04-2020 20:35:00 16.8 C 6.15 g/m*3 16.8 C 3.2 km/h
3129 21-04-2020 20:40:00 16.6 C 5.93 g/m*3 16.6 C 4.8 km/h
3130 21-04-2020 20:45:00 16.3 C 5.97 g/m*3 16.3 C 1.6 km/h
3131 21-04-2020 20:50:00 16 C 6.13 g/m*3 16 C 3.2 km/h
3132 21-04-2020 20:55:00 15.6 C 5.98 g/m*3 15.6 C 4.8 km/h
3133 21-04-2020 21:00:00 15.3 C 6.14 g/m*3 15.3 C 1.6 km/h
3134 21-04-2020 21:05:00 15.1 C 5.81 g/m*3 15.1 C 1.6 km/h
3135 21-04-2020 21:10:00 14.9 C 5.74 g/m*3 14.9 C 4.8 km/h
3136 21-04-2020 21:15:00 14.9 C 6.12 g/m*3 14.9 C 1.6 km/h
3137 21-04-2020 21:20:00 14.8 C 5.95 g/m*3 14.8 C 3.2 km/h
3138 21-04-2020 21:25:00 14.7 C 6.04 g/m*3 14.7 C 1.6 km/h
3139 21-04-2020 21:30:00 14.4 C 5.81 g/m*3 14.4 C 3.2 km/h
3140 21-04-2020 21:35:00 14.4 C 5.81 g/m*3 14.4 C 1.6 km/h
3141 21-04-2020 21:40:00 14.4 C 6.18 g/m*3 14.4 C 0 km/h
3142 21-04-2020 21:45:00 14.2 C 6.11 g/m*3 14.2 C 3.2 km/h
3143 21-04-2020 21:50:00 13.8 C 6.08 g/m*3 13.8 C 3.2 km/h
3144 21-04-2020 21:55:00 13.6 C 5.88 g/m*3 13.6 C 3.2 km/h
3145 21-04-2020 22:00:00 13.6 C 6.12 g/m*3 13.6 C 1.6 km/h
3146 21-04-2020 22:05:00 13.4 C 6.04 g/m*3 13.4 C 3.2 km/h
3147 21-04-2020 22:10:00 13.1 C 6.16 g/m*3 13.1 C 4.8 km/h
3148 21-04-2020 22:15:00 13.2 C 5.97 g/m*3 13.2 C 4.8 km/h
3149 21-04-2020 22:20:00 13.4 C 5.93 g/m*3 13.4 C 4.8 km/h
3150 21-04-2020 22:25:00 13.5 C 6.08 g/m*3 13.5 C 1.6 km/h
Sensor: Nr:Datum:Temp:Abs-Feuchte:Windchill:Wind:
Aussen-T/F 3151 21-04-2020 22:30:00 13.3 C 5.89 g/m*3 13.3 C 3.2 km/h
3152 21-04-2020 22:35:00 13.2 C 6.09 g/m*3 13.2 C 3.2 km/h
3153 21-04-2020 22:40:00 12.9 C 5.97 g/m*3 12.9 C 0 km/h
3154 21-04-2020 22:45:00 12.6 C 6.08 g/m*3 12.6 C 1.6 km/h
3155 21-04-2020 22:50:00 12.4 C 6.12 g/m*3 12.4 C 1.6 km/h
3156 21-04-2020 22:55:00 12.3 C 6.08 g/m*3 12.3 C 1.6 km/h
3157 21-04-2020 23:00:00 12.2 C 6.04 g/m*3 12.2 C 0 km/h
3158 21-04-2020 23:05:00 12.2 C 6.04 g/m*3 12.2 C 1.6 km/h
3159 21-04-2020 23:10:00 12.2 C 5.94 g/m*3 12.2 C 0 km/h
3160 21-04-2020 23:15:00 12.2 C 6.15 g/m*3 12.2 C 1.6 km/h
3161 21-04-2020 23:20:00 12 C 6.07 g/m*3 12 C 0 km/h
3162 21-04-2020 23:25:00 12 C 6.07 g/m*3 12 C 3.2 km/h
3163 21-04-2020 23:30:00 11.9 C 6.04 g/m*3 11.9 C 3.2 km/h
3164 21-04-2020 23:35:00 11.8 C 6 g/m*3 11.8 C 3.2 km/h
3165 21-04-2020 23:40:00 11.7 C 6.07 g/m*3 11.7 C 0 km/h
3166 21-04-2020 23:45:00 11.6 C 6.03 g/m*3 11.6 C 4.8 km/h
3167 21-04-2020 23:50:00 11.6 C 6.03 g/m*3 11.6 C 1.6 km/h
3168 21-04-2020 23:55:00 11.5 C 5.99 g/m*3 11.5 C 3.2 km/h
3169 22-04-2020 00:00:00 11.4 C 5.95 g/m*3 11.4 C 3.2 km/h
3170 22-04-2020 00:05:00 11.3 C 5.92 g/m*3 11.3 C 0 km/h
3171 22-04-2020 00:10:00 11.2 C 6.08 g/m*3 11.2 C 0 km/h
3172 22-04-2020 00:15:00 11.1 C 5.94 g/m*3 11.1 C 0 km/h
3173 22-04-2020 00:20:00 11 C 5.81 g/m*3 11 C 4.8 km/h
3174 22-04-2020 00:25:00 11.2 C 5.88 g/m*3 11.2 C 4.8 km/h
3175 22-04-2020 00:30:00 11.4 C 6.06 g/m*3 11.4 C 6.4 km/h
Sensor: Nr:Datum:Temp:Abs-Feuchte:Windchill:Wind:
Aussen-T/F 3176 22-04-2020 00:35:00 11.4 C 5.95 g/m*3 11.4 C 1.6 km/h
3177 22-04-2020 00:40:00 11.4 C 5.85 g/m*3 11.4 C 3.2 km/h
3178 22-04-2020 00:45:00 11.4 C 6.06 g/m*3 11.4 C 1.6 km/h
3179 22-04-2020 00:50:00 11.3 C 6.02 g/m*3 11.3 C 4.8 km/h
3180 22-04-2020 00:55:00 11.3 C 5.81 g/m*3 11.3 C 4.8 km/h
3181 22-04-2020 01:00:00 11.3 C 5.92 g/m*3 11.3 C 1.6 km/h
3182 22-04-2020 01:05:00 11.2 C 5.88 g/m*3 11.2 C 9.7 km/h
3183 22-04-2020 01:10:00 11.1 C 5.94 g/m*3 11.1 C 1.6 km/h
3184 22-04-2020 01:15:00 10.9 C 5.97 g/m*3 10.9 C 1.6 km/h
3185 22-04-2020 01:20:00 10.7 C 5.99 g/m*3 10.7 C 3.2 km/h
3186 22-04-2020 01:25:00 10.4 C 5.98 g/m*3 10.4 C 0 km/h
3187 22-04-2020 01:30:00 10.2 C 5.9 g/m*3 10.2 C 0 km/h
3188 22-04-2020 01:35:00 10.1 C 5.96 g/m*3 10.1 C 0 km/h
3189 22-04-2020 01:40:00 10.1 C 5.96 g/m*3 10.1 C 0 km/h
3190 22-04-2020 01:45:00 10.1 C 5.96 g/m*3 10.1 C 0 km/h
3191 22-04-2020 01:50:00 10.1 C 5.96 g/m*3 10.1 C 4.8 km/h
3192 22-04-2020 01:55:00 10.2 C 6 g/m*3 10.2 C 3.2 km/h
3193 22-04-2020 02:00:00 10.3 C 5.94 g/m*3 9.72 C 6.4 km/h
3194 22-04-2020 02:05:00 10.3 C 5.94 g/m*3 10.3 C 1.6 km/h
3195 22-04-2020 02:10:00 10.2 C 5.9 g/m*3 10.2 C 1.6 km/h
3196 22-04-2020 02:15:00 10.2 C 6 g/m*3 10.2 C 1.6 km/h
3197 22-04-2020 02:20:00 10.1 C 5.96 g/m*3 10.1 C 0 km/h
3198 22-04-2020 02:25:00 9.9 C 5.88 g/m*3 9.9 C 4.8 km/h
3199 22-04-2020 02:30:00 9.8 C 5.94 g/m*3 9.8 C 1.6 km/h
3200 22-04-2020 02:35:00 9.8 C 5.85 g/m*3 9.8 C 4.8 km/h
Sensor: Nr:Datum:Temp:Abs-Feuchte:Windchill:Wind:
Aussen-T/F 3201 22-04-2020 02:40:00 9.8 C 5.94 g/m*3 9.8 C 4.8 km/h
3202 22-04-2020 02:45:00 9.9 C 5.88 g/m*3 9.9 C 4.8 km/h
3203 22-04-2020 02:50:00 9.8 C 5.94 g/m*3 9.8 C 1.6 km/h
3204 22-04-2020 02:55:00 9.7 C 5.9 g/m*3 9.7 C 1.6 km/h
3205 22-04-2020 03:00:00 9.6 C 5.86 g/m*3 9.6 C 4.8 km/h
3206 22-04-2020 03:05:00 9.6 C 5.86 g/m*3 9.6 C 1.6 km/h
3207 22-04-2020 03:10:00 9.5 C 5.92 g/m*3 9.5 C 3.2 km/h
3208 22-04-2020 03:15:00 9.5 C 5.92 g/m*3 9.5 C 1.6 km/h
3209 22-04-2020 03:20:00 9.5 C 5.92 g/m*3 9.5 C 0 km/h
3210 22-04-2020 03:25:00 9.4 C 5.88 g/m*3 9.4 C 0 km/h
3211 22-04-2020 03:30:00 9.3 C 5.84 g/m*3 9.3 C 0 km/h
3212 22-04-2020 03:35:00 9.2 C 5.89 g/m*3 9.2 C 0 km/h
3213 22-04-2020 03:40:00 9.1 C 5.94 g/m*3 9.1 C 0 km/h
3214 22-04-2020 03:45:00 8.9 C 5.87 g/m*3 8.9 C 0 km/h
3215 22-04-2020 03:50:00 8.8 C 5.83 g/m*3 8.8 C 0 km/h
3216 22-04-2020 03:55:00 8.7 C 5.88 g/m*3 8.7 C 0 km/h
3217 22-04-2020 04:00:00 8.7 C 5.79 g/m*3 8.7 C 0 km/h
3218 22-04-2020 04:05:00 8.7 C 5.88 g/m*3 8.7 C 0 km/h
3219 22-04-2020 04:10:00 8.7 C 5.79 g/m*3 8.7 C 0 km/h
3220 22-04-2020 04:15:00 8.6 C 5.84 g/m*3 8.6 C 0 km/h
3221 22-04-2020 04:20:00